     2.11           OBSERVATION DATA    G (GPS)             RINEX VERSION / TYPE
teqc 2010Oct21 OPUS Account 20111027 16:51:48UTC            PGM / RUN BY / DATE
K 1525                                                      MARKER NAME
3014                                                        MARKER NUMBER
CSMIDDLETON NGS                                             OBSERVER / AGENCY
4624K01615 TRIMBLE NETR5 4.41                               REC # / TYPE / VERS
12338145 TRM41249.00 NONE                                   ANT # / TYPE
  -763314.8658 -5547682.9638  3042996.5998                  APPROX POSITION XYZ
        2.0000        0.0000        0.0000                  ANTENNA: DELTA H/E/N
     1     1                                                WAVELENGTH FACT L1/2
     5    L1    L2    C1    P1    P2                        # / TYPES OF OBSERV
    15                                                      LEAP SECONDS
  2011     8    16    17    41   30.0000000     GPS         TIME OF FIRST OBS
                                                            END OF HEADER
 11  8 16 17 41 30.0000000  0  8G19G11G08G07G13G28G03G23
 112924514.34017  87993146.31456  21488820.703                    21488826.719
 119106780.18017  92810514.52554  22665267.422                    22665276.059
 115923733.43517  90330259.93555  22059566.805                    22059575.590
 108964756.04018  84907631.54817  20735303.586                    20735310.941
 111090088.22118  86563726.75156  21139741.641                    21139749.621
 120977515.49417  94268227.36554  23021256.172                    23021264.465
 122657925.63816  95577636.74453  23341027.320                    23341036.605
 120309383.15517  93747602.90154  22894115.867                    22894123.816
 11  8 16 17 42  0.0000000  0  8G19G11G08G07G13G28G03G23
 112981939.735 7  88037893.33646  21499748.945                    21499754.684
 119039008.992 7  92757705.84144  22652371.070                    22652380.238
 115852750.726 7  90274948.75045  22046059.117                    22046067.762
 108927642.697 8  84878712.060 7  20728241.648                    20728248.434
 111168828.794 8  86625082.96645  21154725.125                    21154733.641
 120935386.459 7  94235399.60144  23013239.820                    23013248.043
 122762334.583 6  95658994.25843  23360895.367                    23360904.805
 120418868.949 7  93832916.31644  22914950.625                    22914958.367
 11  8 16 17 42 30.0000000  0  8G19G11G08G07G13G28G03G23
 113039873.082 7  88083036.15046  21510773.070                    21510779.137
 118971493.409 7  92705096.30644  22639523.180                    22639531.586
 115781820.882 7  90219678.74845  22032561.641                    22032569.609
 108890769.793 8  84849979.912 7  20721224.844                    20721231.746
 111248004.076 8  86686777.92545  21169791.867                    21169799.695
 120893438.036 7  94202712.55444  23005256.086                    23005264.824
 122866942.384 6  95740506.70643  23380802.047                    23380811.504
 120528527.169 7  93918364.07444  22935817.547                    22935826.379
 11  8 16 17 43  0.0000000  0  8G19G11G08G07G13G28G03G23
 113098312.649 8  88128573.43946  21521893.930                    21521900.051
 118904236.972 7  92652688.73544  22626724.633                    22626733.086
 115710946.000 7  90164451.57145  22019074.773                    22019083.035
 108854139.741 8  84821436.999 7  20714254.406                    20714261.148
 111327612.239 8  86748810.19146  21184941.266                    21184949.059
 120851670.064 7  94170166.11944  22997308.352                    22997316.883
 122971746.939 6  95822172.50843  23400745.750                    23400755.191
 120638355.178 6  94003944.13744  22956717.836                    22956725.691
 11  8 16 17 43 30.0000000  0  8G19G11G08G07G13G28G03G23
 113157255.285 7  88174502.72546  21533110.266                    21533116.227
 118837242.310 7  92600485.11544  22613976.359                    22613984.633
 115640126.788 7  90109267.78645  22005598.141                    22005606.105
 108817753.992 8  84793084.453 7  20707330.117                    20707337.422
 111407649.993 7  86811177.21146  21200171.656                    21200179.695
 120810081.046 7  94137759.10744  22989393.609                    22989402.656
 123076744.638 7  95903988.81543  23420725.953                    23420735.727
 120748349.662 7  94089653.91444  22977648.523                    22977657.422
 11  8 16 17 44  0.0000000  0  8G19G11G08G07G13G28G03G23
 113216698.793 7  88220822.30446  21544422.078                    21544428.109
 118770511.759 7  92548487.32344  22601278.063                    22601286.379
 115569364.344 7  90054128.21545  21992132.594                    21992140.277
 108781613.858 8  84764923.286 7  20700452.813                    20700460.285
 111488114.308 8  86873876.60545  21215483.602                    21215491.313
 120768669.902 7  94105490.71744  22981513.711                    22981521.848
 123181932.635 7  95985953.40443  23440742.094                    23440751.938
 120858507.491 7  94175490.96144  22998611.250                    22998619.457
 11  8 16 17 44 30.0000000  0  8G19G11G08G07G13G28G03G23
 113276640.997 7  88267530.46846  21555828.836                    21555834.535
 118704048.451 7  92496697.75244  22588630.461                    22588638.512
 115498660.901 7  89999034.61845  21978678.375                    21978686.191
 108745721.160 8  84736954.959 7  20693622.945                    20693630.242
 111569003.033 7  86936906.71945  21230875.945                    21230884.113
 120727435.944 7  94073360.40844  22973667.258                    22973675.727
 123287308.031 7  96068063.99843  23460794.969                    23460804.723
 120968825.651 7  94261452.96144  23019604.555                    23019612.844
 11  8 16 17 45  0.0000000  0  8G19G11G08G07G13G28G03G23
 113337079.332 8  88314625.23546  21567329.742                    21567335.977
 118637855.671 7  92445119.00844  22576034.477                    22576042.516
 115428018.154 7  89943988.33845  21965235.336                    21965243.336
 108710078.234 8  84709181.236 8  20686840.148                    20686847.938
 111650313.562 7  87000265.49446  21246349.273                    21246357.648
 120686378.709 7  94041367.77344  22965854.430                    22965862.859
 123392868.190 6  96150318.58743  23480883.086                    23480892.051
 121079301.068 7  94347537.48244  23040627.656                    23040636.324
 11  8 16 17 45 30.0000000  0  8G19G11G08G07G13G28G03G23
 113398011.641 7  88362104.91746  21578924.844                    21578930.602
 118571936.485 7  92393753.42444  22563490.508                    22563498.891
 115357437.786 7  89888990.64745  21951804.438                    21951812.477
 108674687.028 8  84681603.660 7  20680105.594                    20680112.699
 111732043.457 7  87063951.06445  21261901.836                    21261910.242
 120645497.264 7  94009512.13944  22958075.227                    22958083.699
 123498610.509 6  96232715.12443  23501004.383                    23501013.734
 121189931.102 6  94433742.46744  23061679.758                    23061688.703
 11  8 16 17 46  0.0000000  0  8G19G11G08G07G13G28G03G23
 113459435.618 7  88409967.72746  21590612.938                    21590619.535
 118506293.629 7  92342603.19244  22550998.570                    22551007.219
 115286921.660 7  89834043.02145  21938385.500                    21938393.840
 108639549.093 8  84654223.432 7  20673418.758                    20673425.785
 111814189.650 7  87127961.00645  21277534.219                    21277541.879
 120604790.719 7  93977792.76944  22950328.609                    22950337.051
 123604531.886 6  96315251.19943  23521161.023                    23521170.348
 121300712.713 7  94520065.56544  23082761.109                    23082770.223
 11  8 16 17 46 30.0000000  0  8G19G11G08G07G13G28G03G23
 113521349.153 8  88458211.99646  21602395.203                    21602400.934
 118440930.386 7  92291670.84744  22538560.461                    22538569.219
 115216471.129 7  89779146.52245  21924979.375                    21924986.883
 108604666.642 8  84627042.280 7  20666781.141                    20666788.277
 111896749.798 7  87192293.51545  21293244.547                    21293252.770
 120564258.262 7  93946209.07444  22942615.883                    22942623.852
 123710630.137 6  96397925.06043  23541350.477                    23541360.895
 121411643.258 7  94606504.71544  23103870.695                    23103878.953
 11  8 16 17 47  0.0000000  0  8G19G11G08G07G13G28G03G23
 113583751.905 8  88506837.47746  21614270.211                    21614275.945
 118375851.679 7  92240960.20644  22526176.297                    22526184.680
 115146090.241 7  89724304.27745  21911586.227                    21911594.121
 108570043.721 8  84600063.370 8  20660192.734                    20660199.625
 111979723.592 7  87256948.34845  21309034.148                    21309042.270
 120523901.604 7  93914762.35144  22934936.023                    22934944.617
 123816904.326 6  96480736.00443  23561573.953                    23561584.117
 121522721.966 7  94693059.32844  23125008.672                    23125017.723
 11  8 16 17 47 30.0000000  0  8G19G11G08G07G13G28G03G23
 113646639.211 8  88555840.53546  21626237.086                    21626243.375
 118311058.276 7  92190471.88144  22513846.383                    22513855.043
 115075778.216 7  89669515.68945  21898206.422                    21898214.199
 108535679.593 8  84573286.121 7  20653653.742                    20653660.902
 112063105.891 8  87321921.48845  21324901.320                    21324909.527
 120483717.114 7  93883449.79144  22927289.344                    22927297.410
 123923349.092 6  96563679.91143  23581829.383                    23581839.211
 121633943.304 7  94779725.11544  23146172.859                    23146181.316
 11  8 16 17 48  0.0000000  0  8G19G11G08G07G13G28G03G23
 113710008.541 8  88605219.19746  21638295.789                    21638301.840
 118246553.163 7  92140208.19344  22501571.969                    22501579.711
 115005536.886 7  89614782.20645  21884839.656                    21884848.117
 108501576.395 8  84546712.175 7  20647163.898                    20647170.910
 112146893.979 7  87387210.84345  21340845.492                    21340853.875
 120443704.157 7  93852270.90944  22919675.469                    22919682.848
 124029961.763 6  96646754.64843  23602117.469                    23602126.695
 121745304.591 6  94866499.90344  23167364.703                    23167373.441
 11  8 16 17 48 30.0000000  0  8G19G11G08G07G13G28G03G23
 113773857.403 7  88654971.51645  21650445.734                    21650452.223
 118182339.040 7  92090171.25144  22489352.211                    22489360.406
 114935367.750 7  89560104.99145  21871486.891                    21871495.031
 108467735.688 8  84520342.782 7  20640724.000                    20640730.988
 112231085.037 7  87452814.17745  21356867.016                    21356875.023
 120403861.686 7  93821224.84644  22912092.813                    22912100.832
 124136739.903 6  96729958.27443  23622436.688                    23622446.273
 121856802.760 7  94953381.31844  23188582.328                    23188591.926
 11  8 16 17 49  0.0000000  0  9G24G19G11G08G07G13G28G03G23
 125825101.24117  98045563.44853  23943715.539                    23943728.129
 113838183.609 7  88705095.78945  21662687.031                    21662692.957
 118118418.795 7  92040363.32844  22477188.352                    22477196.992
 114865273.008 7  89505485.70445  21858148.398                    21858156.594
 108434159.462 8  84494179.476 8  20634334.734                    20634341.863
 112315676.410 7  87518729.45645  21372964.172                    21372972.211
 120364188.911 7  93790311.02344  22904543.477                    22904551.469
 124243680.537 6  96813288.54143  23642787.617                    23642797.098
 121968434.598 7  95040366.93644  23209825.281                    23209834.836
 11  8 16 17 49 30.0000000  0  9G24G19G11G08G07G13G28G03G23
 125751742.249 6  97988400.65843  23929755.680                    23929768.719
 113902984.327 8  88755589.81046  21675018.055                    21675024.305
 118054795.570 7  91990786.81744  22465081.383                    22465089.797
 114795253.927 7  89450925.40145  21844823.742                    21844832.441
 108400849.518 8  84468223.662 7  20627996.180                    20628003.496
 112400665.350 8  87584954.53745  21389136.891                    21389145.207
 120324685.257 7  93759528.98844  22897026.000                    22897034.508
 124350780.866 6  96896743.24043  23663168.250                    23663177.926
 122080197.195 7  95127454.43244  23231093.336                    23231102.707
 11  8 16 17 50  0.0000000  0  9G24G19G11G08G07G13G28G03G23
 125678402.328 6  97931252.75143  23915800.117                    23915812.617
 113968257.557 7  88806452.01745  21687439.320                    21687445.121
 117991472.442 7  91941444.15945  22453031.492                    22453039.461
 114725312.841 7  89396425.88845  21831514.500                    21831522.902
 108367808.113 8  84442477.097 7  20621708.469                    20621715.676
 112486049.338 7  87651487.40945  21405385.109                    21405393.031
 120285349.549 7  93728877.82644  22889540.906                    22889548.539
 124458038.407 6  96980320.47443  23683577.859                    23683588.074
 122192088.067 7  95214641.87744  23252385.789                    23252394.453
 11  8 16 17 50 30.0000000  0  9G24G19G11G08G07G13G28G03G23
 125605084.172 6  97874121.81643  23901847.078                    23901860.199
 114034000.527 8  88857680.27746  21699949.656                    21699955.922
 117928452.155 7  91892337.48744  22441038.805                    22441047.301
 114655451.214 7  89341988.25945  21818220.227                    21818228.551
 108335036.816 8  84416941.008 7  20615472.359                    20615479.641
 112571825.386 7  87718325.82045  21421707.992                    21421715.852
 120246181.047 7  93698356.94544  22882087.836                    22882095.523
 124565450.366 6  97064018.01043  23704017.938                    23704027.809
 122304104.064 7  95301926.83344  23273701.844                    23273710.508
 11  8 16 17 51  0.0000000  0 10G01G24G19G11G08G07G13G28G03G23
 126222613.31416  98355381.38316  24019384.367                    24019398.617
 125531791.115 7  97817010.41043  23887900.305                    23887912.871
 114100211.271 8  88909273.01845  21712549.242                    21712555.023
 117865737.947 7  91843469.31044  22429104.375                    22429113.176
 114585671.091 7  89287614.14445  21804941.625                    21804949.797
 108302538.186 8  84391617.388 8  20609288.141                    20609295.645
 112657991.201 7  87785467.92945  21438104.703                    21438113.016
 120207179.282 7  93667965.98944  22874665.922                    22874673.484
 124673014.313 6  97147833.96943  23724486.297                    23724497.004
 122416242.582 7  95389307.24244  23295040.742                    23295050.109
 11  8 16 17 51 30.0000000  0 10G01G24G19G11G08G07G13G28G03G23
 126148195.864 6  98297393.881 6  24005222.805                    24005237.289
 125458526.262 6  97759920.97543  23873958.734                    23873971.055
 114166887.353 8  88961228.38646  21725237.281                    21725243.371
 117803332.967 7  91794842.09745  22417229.563                    22417237.813
 114515974.529 7  89233305.15145  21791678.789                    21791686.914
 108270313.678 8  84366507.373 7  20603155.680                    20603163.387
 112744543.855 8  87852911.46145  21454575.211                    21454583.000
 120168343.201 7  93637704.12844  22867275.563                    22867283.176
 124780727.135 6  97231765.94543  23744983.938                    23744994.508
 122528500.627 7  95476780.78743  23316403.289                    23316412.488
 11  8 16 17 52  0.0000000  0 10G01G24G19G11G08G07G13G28G03G23
 126073838.692 6  98239453.324 6  23991073.031                    23991087.137
 125385292.279 6  97702855.66243  23860021.727                    23860034.945
 114234026.050 7  89013544.22745  21738013.461                    21738019.324
 117741239.871 7  91746457.90444  22405413.383                    22405421.250
 114446362.968 7  89179062.38745  21778432.008                    21778440.430
 108238365.135 8  84341612.392 8  20597076.578                    20597083.516
 112831480.724 7  87920654.40745  21471118.891                    21471126.895
 120129672.028 7  93607570.78144  22859916.531                    22859924.270
 124888586.424 6  97315812.01443  23765509.063                    23765519.906
 122640875.114 7  95564345.06243  23337787.945                    23337796.379
 11  8 16 17 52 30.0000000  0 10G01G24G19G11G08G07G13G28G03G23
 125999544.720 6  98181562.045 6  23976935.156                    23976949.859
 125312092.169 6  97645816.71543  23846092.344                    23846105.723
 114301624.585 8  89066218.39645  21750876.820                    21750883.477
 117679461.287 7  91698318.76145  22393657.172                    22393665.703
 114376837.939 7  89124887.02945  21765202.336                    21765209.719
 108206694.300 8  84316933.801 7  20591049.477                    20591056.719
 112918798.712 8  87988694.30545  21487734.578                    21487743.359
 120091164.807 7  93577565.18444  22852588.852                    22852597.184
 124996589.409 6  97399970.07943  23786061.320                    23786071.488
 122753362.909 7  95651997.62143  23359193.922                    23359202.988
 11  8 16 17 53  0.0000000  0 10G01G24G19G11G08G07G13G28G03G23
 125925316.805 6  98123722.228 6  23962810.680                    23962823.891
 125238928.835 6  97588806.44343  23832170.055                    23832183.141
 114369680.897 7  89119249.24845  21763827.281                    21763833.820
 117618000.416 7  91650427.19844  22381961.008                    22381969.664
 114307401.826 8  89070780.97145  21751988.961                    21751997.219
 108175303.525 8  84292473.439 7  20585076.375                    20585083.574
 113006495.155 7  88057029.09745  21504422.695                    21504431.328
 120052820.756 7  93547686.75644  22845291.844                    22845300.301
 125104733.324 6  97484237.97743  23806640.656                    23806650.688
 122865961.498 6  95739736.53643  23380620.094                    23380629.945
 11  8 16 17 53 30.0000000  0 10G01G24G19G11G08G07G13G28G03G23
 125851158.019 6  98065936.235 6  23948698.406                    23948712.297
 125165805.045 6  97531826.97343  23818255.492                    23818268.199
 114438191.921 7  89172634.43145  21776864.586                    21776870.934
 117556860.103 7  91602785.43044  22370327.523                    22370335.406
 114238056.136 8  89016745.38645  21738792.773                    21738800.984
 108144194.023 8  84268232.245 8  20579155.938                    20579163.344
 113094567.268 7  88125656.63245  21521182.648                    21521190.594
 120014638.845 7  93517934.63844  22838026.195                    22838034.316
 125213015.137 6  97568613.30543  23827245.438                    23827256.359
 122978667.845 7  95827559.36844  23402068.313                    23402077.293
 11  8 16 17 54  0.0000000  0 10G01G24G19G11G08G07G13G28G03G23
 125777071.534 6  98008206.601 7  23934600.023                    23934613.664
 125092723.860 6  97474880.69843  23804347.609                    23804360.867
 114507155.541 8  89226372.26745  21789988.320                    21789994.672
 117496043.316 7  91555395.75145  22358754.648                    22358762.594
 114168803.393 7  88962782.21345  21725614.297                    21725622.285
 108113368.284 8  84244212.181 7  20573290.156                    20573297.574
 113183012.430 7  88194574.84745  21538012.727                    21538021.535
 119976618.246 7  93488308.20944  22830791.148                    22830799.008
 125321432.591 6  97653094.36343  23847877.211                    23847886.762
 123091479.145 7  95915464.00943  23423536.141                    23423545.547
 11  8 16 17 54 30.0000000  0 10G01G24G19G11G08G07G13G28G03G23
 125703060.224 6  97950535.568 6  23920516.563                    23920530.141
 125019688.562 6  97417970.20243  23790448.805                    23790463.000
 114576569.376 8  89280460.93646  21803197.328                    21803203.465
 117435552.819 7  91508260.33144  22347243.305                    22347251.492
 114099645.076 8  88908892.62645  21712453.898                    21712462.031
 108082828.257 8  84220414.741 8  20567478.531                    20567485.637
 113271827.573 7  88263781.35045  21554914.656                    21554922.574
 119938758.251 7  93458806.93044  22823586.500                    22823594.938
 125429983.025 6  97737679.01043  23868534.023                    23868543.527
 123204392.501 7  96003448.19544  23445022.406                    23445032.555
 11  8 16 17 55  0.0000000  0 10G01G24G19G11G08G07G13G28G03G23
 125629127.323 6  97892925.569 7  23906446.680                    23906460.457
 124946702.034 6  97361097.69643  23776560.766                    23776574.449
 114646430.677 8  89334898.27446  21816491.813                    21816497.418
 117375391.772 7  91461381.60945  22335795.195                    22335803.070
 114030582.643 7  88855077.74945  21699311.734                    21699320.070
 108052575.716 8  84196841.334 8  20561722.039                    20561729.199
 113361010.144 7  88333274.17045  21571885.250                    21571893.742
 119901058.019 7  93429430.14144  22816412.234                    22816420.711
 125538663.981 6  97822365.34142  23889215.313                    23889224.531
 123317405.128 7  96091509.72843  23466527.734                    23466537.730
 11  8 16 17 55 30.0000000  0 10G01G24G19G11G08G07G13G28G03G23
 125555275.620 6  97835378.865 6  23892393.586                    23892407.563
 124873767.492 6  97304265.72743  23762681.797                    23762694.957
 114716737.197 8  89389682.56446  21829870.477                    21829876.449
 117315563.312 7  91414762.05745  22324410.117                    22324418.324
 113961618.454 7  88801339.44645  21686188.492                    21686196.422
 108022612.925 8  84173493.683 7  20556020.031                    20556027.277
 113450557.707 7  88403051.40345  21588925.820                    21588934.180
 119863516.769 7  93400177.24344  22809268.672                    22809277.082
 125647472.877 6  97907151.41543  23909920.531                    23909930.898
 123430514.103 7  96179646.28943  23488051.945                    23488062.070
 11  8 16 17 56  0.0000000  0 10G01G24G19G11G08G07G13G28G03G23
 125481507.790 6  97777897.494 6  23878355.656                    23878369.922
 124800887.865 6  97247476.53043  23748813.586                    23748826.203
 114787486.073 8  89444811.51745  21843333.938                    21843340.105
 117256070.064 7  91368403.71845  22313088.445                    22313096.664
 113892754.431 7  88747679.17945  21673083.930                    21673092.348
 107992941.453 8  84150373.037 8  20550374.047                    20550380.926
 113540466.969 8  88473110.47345  21606035.500                    21606043.566
 119826133.469 7  93371047.41744  22802154.727                    22802162.961
 125756406.867 6  97992034.91043  23930650.922                    23930660.715
 123543716.354 7  96267855.55644  23509594.172                    23509603.805
 11  8 16 17 56 30.0000000  0 10G01G24G19G11G08G07G13G28G03G23
 125407827.237 6  97720484.147 6  23864334.336                    23864348.207
 124728065.877 6  97190732.25043  23734955.055                    23734968.168
 114858674.666 7  89500283.13045  21856880.609                    21856886.094
 117196914.762 7  91322308.70645  22301831.727                    22301840.207
 113823992.267 7  88694098.28945  21659999.414                    21660007.395
 107963563.024 8  84127480.749 8  20544783.492                    20544790.871
 113630735.093 7  88543449.18145  21623212.203                    21623221.098
 119788907.257 7  93342040.00144  22795070.648                    22795078.598
 125865463.171 6  98077013.71343  23951403.063                    23951413.504
 123657009.077 7  96356135.32044  23531153.133                    23531163.391
 11  8 16 17 57  0.0000000  0 10G01G24G19G11G08G07G13G28G03G23
 125334236.314 6  97663140.626 6  23850331.320                    23850344.723
 124655304.469 6  97134035.18743  23721108.898                    23721122.313
 114930300.291 7  89556095.28245  21870510.023                    21870516.395
 117138100.070 7  91276479.10645  22290639.453                    22290647.855
 113755333.833 7  88640598.20845  21646933.875                    21646941.613
 107934479.370 8  84104818.154 7  20539249.500                    20539256.078
 113721359.181 7  88614065.24445  21640457.617                    21640466.047
 119751837.162 7  93313154.21544  22788016.703                    22788024.637
 125974639.127 6  98162085.83743  23972178.422                    23972189.313
 123770389.265 7  96444483.25144  23552729.555                    23552738.977
 11  8 16 17 57 30.0000000  0 10G01G24G19G11G08G07G13G28G03G23
 125260738.152 6  97605869.386 7  23836344.961                    23836358.965
 124582606.841 6  97077387.80843  23707274.766                    23707288.246
 115002360.231 7  89612245.84745  21884222.352                    21884229.121
 117079628.981 7  91230917.22244  22279513.156                    22279520.996
 113686781.181 8  88587180.56545  21633888.266                    21633896.383
 107905692.759 8  84082387.018 8  20533771.164                    20533778.473
 113812336.165 7  88684956.29845  21657770.297                    21657778.453
 119714922.349 7  93284389.45545  22780991.930                    22780999.867
 126083932.335 6  98247249.23643  23992976.906                    23992986.570
 123883854.243 7  96532897.21044  23574320.398                    23574331.434
 11  8 16 17 58  0.0000000  0 10G01G24G19G11G08G07G13G28G03G23
 125187335.738 6  97548672.782 7  23822376.734                    23822390.563
 124509976.043 6  97020792.46643  23693454.164                    23693466.730
 115074852.094 8  89668732.97245  21898017.141                    21898023.633
 117021504.030 7  91185625.07644  22268452.328                    22268460.320
 113618336.187 8  88533846.81345  21620864.023                    21620872.523
 107877204.761 8  84060188.566 8  20528350.094                    20528357.082
 113903663.003 7  88756119.97145  21675148.992                    21675157.605
 119678161.744 7  93255744.86144  22773996.336                    22774004.848
 126193340.009 6  98332501.87243  24013796.406                    24013806.344
 123997400.788 6  96621374.70943  23595928.438                    23595938.961
 11  8 16 17 58 30.0000000  0 10G01G24G19G11G08G07G13G28G03G23
 125114032.450 6  97491553.401 6  23808427.750                    23808441.488
 124437415.248 6  96964251.72543  23679646.555                    23679658.945
 115147773.479 8  89725554.80145  21911893.641                    21911900.418
 116963728.789 7  91140605.41945  22257458.305                    22257466.117
 113550001.091 8  88480598.69945  21607860.367                    21607868.566
 107849017.642 7  84038224.572 8  20522986.008                    20522993.258
 113995337.531 7  88827554.56645  21692594.508                    21692603.148
 119641554.801 7  93227219.98245  22767030.750                    22767038.625
 126302859.571 6  98417841.68743  24034637.469                    24034647.695
 124111026.286 6  96709913.77244  23617550.500                    23617561.223
 11  8 16 17 59  0.0000000  0 10G01G24G19G11G08G07G13G28G03G23
 125040831.198 6  97434513.526 6  23794497.664                    23794511.371
 124364927.412 7  96907767.78343  23665852.813                    23665864.484
 115221121.449 8  89782709.01445  21925851.922                    21925858.207
 116906305.941 7  91095860.36845  22246530.453                    22246539.367
 113481777.615 8  88427437.55445  21594877.797                    21594885.500
 107821133.342 8  84016496.523 8  20517680.188                    20517687.164
 114087356.688 7  88899257.70445  21710104.727                    21710113.992
 119605100.640 7  93198814.16144  22760093.328                    22760101.121
 126412488.582 6  98503266.76043  24055499.320                    24055509.652
 124224727.951 6  96798512.09843  23639188.055                    23639198.199
 11  8 16 17 59 30.0000000  0 10G01G24G19G11G08G07G13G28G03G23
 124967734.780 6  97377555.356 6  23780587.180                    23780601.434
 124292515.174 6  96851342.75543  23652072.344                    23652085.691
 115294893.270 8  89840193.50545  21939890.586                    21939896.418
 116849237.649 7  91051391.59445  22235670.594                    22235679.172
 113413667.647 8  88374364.85445  21581916.563                    21581924.676
 107793553.225 8  83995005.498 8  20512431.883                    20512439.016
 114179717.157 7  88971226.77945  21727680.766                    21727689.070
 119568797.980 7  93170526.39744  22753185.555                    22753193.172
 126522224.515 6  98588775.22743  24076380.797                    24076390.926
 124338502.462 6  96887167.26543  23660837.617                    23660849.070
 11  8 16 18  0  0.0000000  0 10G01G24G19G11G08G07G13G28G03G23
 124894745.737 6  97320680.844 7  23766698.094                    23766712.504
 124220181.680 7  96794979.09743  23638307.602                    23638320.582
 115369086.344 8  89898006.26845  21954008.586                    21954014.699
 116792527.102 7  91007201.55444  22224879.023                    22224887.273
 113345673.188 8  88321382.16645  21568978.383                    21568986.223
 107766279.322 8  83973753.095 7  20507241.453                    20507248.883
 114272415.970 7  89043459.51545  21745321.227                    21745329.207
 119532646.132 7  93142356.13745  22746306.055                    22746314.332
 126632064.457 6  98674364.68143  24097282.547                    24097293.125
 124452347.249 6  96975877.12543  23682503.063                    23682513.637
 11  8 16 18  0 30.0000000  0 10G01G24G19G11G08G07G13G28G03G23
 124821867.866 6  97263892.979 6  23752829.758                    23752843.883
 124147930.374 7  96738679.43643  23624558.750                    23624571.441
 115443698.176 8  89956145.30745  21968207.242                    21968213.352
 116736177.012 7  90963292.41545  22214156.016                    22214163.582
 113277796.424 8  88268491.18445  21556061.633                    21556069.672
 107739313.676 8  83952740.885 7  20502109.930                    20502117.273
 114365450.781 7  89115954.07245  21763025.180                    21763033.633
 119496644.107 7  93114302.64345  22739454.672                    22739462.844
 126742006.088 6  98760033.36043  24118205.078                    24118214.266
 124566259.796 6  97064639.83243  23704180.406                    23704189.996
 11  8 16 18  1  0.0000000  0 10G01G24G19G11G08G07G13G28G03G23
 124749103.684 6  97207193.667 7  23738983.430                    23738997.066
 124075764.098 6  96682446.06243  23610825.555                    23610838.680
 115518726.315 7  90014608.75745  21982484.188                    21982490.594
 116680190.168 7  90919666.29244  22203501.930                    22203509.992
 113210039.520 8  88215693.61745  21543167.445                    21543175.711
 107712658.351 8  83931970.479 8  20497038.195                    20497045.629
 114458818.225 7  89188707.80945  21780792.250                    21780800.715
 119460791.147 7  93086365.30045  22732631.891                    22732640.477
 126852046.747 5  98845779.22342  24139144.531                    24139153.930
 124680236.674 6  97153452.68743  23725868.953                    23725879.289
 11  8 16 18  1 30.0000000  0 10G01G24G19G11G08G07G13G28G03G23
 124676456.464 6  97150585.521 7  23725159.391                    23725173.078
 124003685.876 6  96626281.30843  23597109.695                    23597122.758
 115594167.376 8  90073393.96045  21996840.141                    21996846.414
 116624569.392 7  90876325.44045  22192917.914                    22192926.223
 113142403.995 8  88162990.61045  21530297.234                    21530305.000
 107686315.110 8  83911443.263 8  20492025.055                    20492032.066
 114552515.427 7  89261718.51145  21798622.273                    21798631.098
 119425086.562 7  93058543.56245  22725837.953                    22725845.855
 126962184.066 5  98931600.37942  24160102.891                    24160112.809
 124794275.355 7  97242313.69743  23747570.297                    23747580.297
 11  8 16 18  2  0.0000000  0  9G01G24G19G11G08G07G13G28G23
 124603929.616 6  97094071.190 7  23711357.422                    23711371.344
 123931699.172 7  96570187.81343  23583411.422                    23583423.777
 115670019.953 7  90132499.82045  22011274.906                    22011280.516
 116569318.197 7  90833272.55145  22182404.094                    22182412.199
 113074892.688 8  88110384.39545  21517450.445                    21517458.336
 107660286.198 8  83891160.972 8  20487071.891                    20487079.266
 114646540.344 7  89334984.57145  21816515.031                    21816523.406
 119389529.641 7  93030836.88345  22719072.203                    22719079.418
 124908373.347 7  97331220.90143  23769283.070                    23769293.125
 11  8 16 18  2 30.0000000  0  9G01G24G19G11G08G07G13G28G23
 124531525.688 6  97037652.623 7  23697579.563                    23697593.496
 123859806.808 6  96514167.83443  23569730.469                    23569743.078
 115746280.721 7  90191923.75545  22025786.711                    22025792.688
 116514438.937 7  90790509.52044  22171960.656                    22171968.730
 113007507.146 7  88057876.20145  21504627.016                    21504635.129
 107634573.277 8  83871124.909 8  20482178.977                    20482186.438
 114740889.491 7  89408503.26045  21834468.914                    21834477.070
 119354119.019 7  93003244.21745  22712333.383                    22712341.621
 125022527.429 6  97420171.80343  23791005.953                    23791016.223
 11  8 16 18  3  0.0000000  0  9G01G24G19G11G08G07G13G28G23
 124459247.046 7  96981331.667 7  23683825.234                    23683838.637
 123788011.238 6  96458223.31743  23556068.414                    23556080.867
 115822946.178 7  90251663.02945  22040375.617                    22040381.605
 116459933.651 7  90748037.86745  22161588.703                    22161596.922
 112940248.922 8  88005467.20245  21491828.234                    21491836.453
 107609177.253 8  83851335.801 8  20477346.617                    20477353.523
 114835559.278 7  89482271.82145  21852483.781                    21852492.016
 119318853.383 7  92975764.52345  22705622.148                    22705630.633
 125136734.289 7  97509163.80943  23812738.875                    23812749.398
 11  8 16 18  3 30.0000000  0  9G01G24G19G11G08G07G13G28G23
 124387097.224 7  96925111.107 6  23670095.570                    23670109.156
 123716316.134 6  96402357.08143  23542425.555                    23542437.301
 115900014.158 7  90311715.96945  22055040.688                    22055047.125
 116405805.343 7  90705859.97145  22151288.570                    22151296.852
 112873120.508 8  87953159.34345  21479054.094                    21479062.262
 107584100.918 8  83831795.765 7  20472574.445                    20472581.566
 114930547.059 7  89556288.14845  21870559.195                    21870568.332
 119283732.414 7  92948397.57145  22698939.008                    22698947.145
 125250991.406 6  97598195.05243  23834481.516                    23834491.879
 11  8 16 18  4  0.0000000  0  9G01G24G19G11G08G07G13G28G23
 124315079.084 6  96868993.184 7  23656390.758                    23656404.266
 123644724.258 6  96346571.28043  23528801.391                    23528813.828
 115977481.902 7  90372080.39645  22069782.555                    22069789.063
 116352056.665 7  90663977.89545  22141060.234                    22141068.746
 112806123.792 8  87900954.12145  21466304.945                    21466312.836
 107559345.930 8  83812506.140 8  20467863.516                    20467870.793
 115025849.830 7  89630549.93445  21888695.031                    21888703.828
 119248754.939 7  92921142.41244  22692283.359                    22692290.953
 125365296.065 6  97687263.28043  23856233.469                    23856243.398
 11  8 16 18  4 30.0000000  0  9G01G24G19G11G08G07G13G28G23
 124243195.734 7  96812980.254 6  23642712.047                    23642725.879
 123573238.878 7  96290868.44443  23515198.188                    23515210.090
 116055346.638 7  90432754.16545  22084600.172                    22084606.168
 116298690.359 7  90622393.76145  22130904.742                    22130913.016
 112739260.900 8  87848853.18045  21453581.313                    21453589.734
 107534914.099 8  83793468.326 8  20463214.570                    20463221.859
 115121464.783 7  89705054.96045  21906890.359                    21906899.031
 119213920.056 7  92893998.36645  22685654.320                    22685661.777
 125479645.544 6  97776366.43743  23877993.250                    23878004.383
 11  8 16 18  5  0.0000000  0  9G01G24G19G11G08G07G13G28G23
 124171450.960 6  96757075.328 7  23629059.570                    23629073.434
 123501863.412 6  96235251.29043  23501615.773                    23501628.621
 116133606.038 7  90493735.46745  22099492.031                    22099498.496
 116245710.002 7  90581110.38445  22120823.570                    22120832.234
 112672534.542 8  87796858.62046  21440883.875                    21440891.367
 107510808.128 8  83774684.441 8  20458626.984                    20458634.332
 115217389.731 7  89779801.55045  21925144.016                    21925152.938
 119179227.610 7  92866965.31445  22679052.391                    22679060.770
 125594037.148 6  97865502.36343  23899761.367                    23899772.699
 11  8 16 18  5 30.0000000  0  9G01G24G19G11G08G07G13G28G23
 124099846.671 7  96701279.870 7  23615433.430                    23615447.246
 123430600.316 6  96179721.69043  23488054.945                    23488067.250
 116212257.097 7  90555021.96145  22114458.945                    22114465.559
 116193117.376 7  90540129.13245  22110814.906                    22110822.824
 112605946.120 8  87744971.55345  21428212.656                    21428220.117
 107487028.734 8  83756155.030 8  20454102.133                    20454109.559
 115313620.458 7  89854786.40244  21943456.742                    21943465.113
 119144675.533 7  92840041.64044  22672476.922                    22672485.285
 125708467.400 6  97954668.48543  23921537.453                    23921548.313
 11  8 16 18  6  0.0000000  0  9G01G24G19G11G08G07G13G28G23
 124028386.303 7  96645596.539 7  23601834.742                    23601847.980
 123359452.777 6  96124282.12443  23474515.500                    23474527.930
 116291297.110 7  90616611.52745  22129499.930                    22129505.938
 116140915.327 7  90499452.21645  22100881.031                    22100889.543
 112539497.804 8  87693193.64946  21415568.016                    21415575.668
 107463578.075 8  83737881.768 8  20449639.742                    20449647.016
 115410154.454 7  89930007.57445  21961826.313                    21961834.766
 119110263.389 7  92813226.99844  22665929.008                    22665936.762
 125822933.647 6  98043862.57543  23943319.359                    23943331.301
 11  8 16 18  6 30.0000000  0  9G01G24G19G11G08G07G13G28G23
 123957072.902 6  96590027.724 7  23588264.320                    23588277.867
 123288423.912 6  96068935.04643  23460998.680                    23461011.395
 116370723.404 7  90678502.09845  22144614.023                    22144620.055
 116089106.457 7  90459081.68045  22091022.633                    22091030.988
 112473191.609 7  87641526.49246  21402950.438                    21402957.926
 107440457.879 8  83719866.013 7  20445240.227                    20445247.379
 115506988.641 7  90005462.64945  21980253.211                    21980261.895
 119075989.951 7  92786520.43344  22659406.430                    22659415.035
 125937433.049 6  98133082.51943  23965108.391                    23965119.676
 11  8 16 18  7  0.0000000  0  9G01G24G19G11G08G07G13G28G23
 123885909.175 7  96534575.558 7  23574722.648                    23574735.750
 123217516.644 7  96013682.71043  23447506.289                    23447518.707
 116450532.856 7  90740691.22945  22159801.859                    22159807.805
 116037693.504 7  90419019.65645  22081239.117                    22081246.945
 112407029.839 8  87589971.87845  21390360.031                    21390367.949
 107417670.085 8  83702109.278 8  20440903.891                    20440910.684
 115604119.776 7  90081149.12545  21998736.867                    21998745.273
 119041854.630 7  92759921.49744  22652911.039                    22652919.172
 126051963.164 6  98222326.36543  23986902.945                    23986914.898
 11  8 16 18  7 30.0000000  0 10G17G01G24G19G11G08G07G13G28G23
 129421654.00816 100848066.17915  24628121.719                    24628136.953
 123814898.398 7  96479242.584 7  23561209.367                    23561223.059
 123146734.405 6  95958527.83943  23434036.594                    23434049.012
 116530722.830 7  90803176.87945  22175061.258                    22175067.074
 115986679.228 7  90379268.28045  22071531.570                    22071539.516
 112341014.692 7  87538531.52045  21377797.688                    21377805.773
 107395216.803 8  83684613.189 8  20436631.117                    20436637.836
 115701545.261 7  90157064.95645  22017276.258                    22017285.367
 119007856.727 7  92733429.64245  22646441.828                    22646449.457
 126166521.097 6  98311591.94043  24008703.281                    24008714.527
 11  8 16 18  8  0.0000000  0 10G17G01G24G19G11G08G07G13G28G23
 129316978.299 6 100766500.977 5  24608202.063                    24608217.813
 123744042.341 7  96424030.153 7  23547725.523                    23547738.910
 123076079.183 7  95903471.94943  23420592.063                    23420603.285
 116611289.881 7  90865956.36945  22190392.555                    22190398.680
 115936065.058 7  90339828.68245  22061899.734                    22061908.008
 112275147.251 7  87487206.23445  21365263.664                    21365271.266
 107373098.974 8  83667378.493 8  20432422.141                    20432429.641
 115799261.167 7  90233207.10645  22035871.211                    22035879.848
 118973994.095 7  92707043.18744  22639997.805                    22640005.367
 126281103.106 6  98400876.25543  24030507.875                    24030519.023
 11  8 16 18  8 30.0000000  0 10G17G01G24G19G11G08G07G13G28G23
 129212403.437 6 100685014.436 6  24588302.477                    24588318.789
 123673345.064 6  96368941.439 6  23534272.789                    23534285.656
 123005554.730 7  95848517.88444  23407171.445                    23407182.922
 116692231.715 7  90929027.86445  22205795.781                    22205801.594
 115885854.819 7  90300703.82345  22052344.867                    22052353.375
 112209430.557 8  87435998.43445  21352758.461                    21352766.418
 107351318.711 8  83650406.849 7  20428277.602                    20428284.688
 115897265.153 7  90309573.71545  22054520.836                    22054529.617
 118940266.739 7  92680762.13344  22633579.430                    22633587.148
 126395707.070 6  98490177.74143  24052316.148                    24052327.879
 11  8 16 18  9  0.0000000  0 10G17G01G24G19G11G08G07G13G28G23
 129107932.001 6 100603608.405 6  24568422.133                    24568437.828
 123602809.577 7  96313978.774 7  23520850.000                    23520863.184
 122935164.492 6  95793668.46143  23393775.547                    23393787.879
 116773545.968 7  90992389.58145  22221268.844                    22221275.070
 115836051.036 7  90261895.69145  22042868.078                    22042875.953
 112143866.817 8  87384909.81245  21340281.406                    21340289.617
 107329878.483 8  83633700.157 8  20424197.875                    20424204.801
 115995554.358 7  90386162.56845  22073224.859                    22073233.816
 118906674.054 7  92654586.03145  22627186.906                    22627194.891
 126510330.525 6  98579494.35943  24074129.195                    24074140.406
 11  8 16 18  9 30.0000000  0 10G17G01G24G19G11G08G07G13G28G23
 129003565.509 7 100522284.174 6  24548561.438                    24548577.254
 123532439.036 6  96259144.680 7  23507458.984                    23507472.762
 122864911.452 7  95738925.94344  23380406.930                    23380418.543
 116855229.862 7  91056039.31445  22236812.734                    22236819.133
 115786656.277 7  90223406.27745  22033468.219                    22033476.273
 112078458.035 7  87333941.93545  21327834.578                    21327842.848
 107308779.614 8  83617259.456 8  20420182.688                    20420189.695
 116094125.569 7  90462971.17245  22091982.328                    22091991.289
 118873214.608 7  92628513.71944  22620819.633                    22620827.363
 126624970.335 6  98668823.70443  24095944.500                    24095955.414
 11  8 16 18 10  0.0000000  0 10G17G01G24G19G11G08G07G13G28G23
 128899306.691 7 100441043.813 6  24528721.734                    24528737.414
 123462236.719 6  96204441.662 6  23494099.773                    23494113.680
 122794798.870 6  95684292.85143  23367065.273                    23367076.645
 116937280.808 7  91119975.07545  22252427.133                    22252433.305
 115737673.297 7  90185237.72945  22024147.570                    22024155.418
 112013206.721 8  87283096.76645  21315417.547                    21315425.719
 107288024.685 8  83601086.761 8  20416232.859                    20416240.168
 116192976.399 7  90539997.66445  22110792.898                    22110802.309
 118839888.034 7  92602544.98245  22614478.344                    22614486.152
 126739624.253 6  98758164.05543  24117763.039                    24117773.691
 11  8 16 18 10 30.0000000  0 10G17G01G24G19G11G08G07G13G28G23
 128795157.162 7 100359888.633 6  24508902.680                    24508917.973
 123392205.278 6  96149871.763 7  23480773.570                    23480786.254
 122724829.650 7  95629771.47543  23353750.055                    23353762.285
 117019695.721 7  91184194.43445  22268110.352                    22268116.555
 115689104.276 7  90147391.74245  22014904.695                    22014913.027
 111948114.988 8  87232375.93046  21303031.266                    21303039.316
 107267615.043 8  83585183.135 8  20412349.422                    20412356.641
 116292103.160 7  90617239.15645  22129656.570                    22129665.691
 118806693.108 7  92576678.80745  22608161.555                    22608169.453
 126854289.098 6  98847512.97143  24139582.617                    24139594.254
 11  8 16 18 11  0.0000000  0 10G17G01G24G19G11G08G07G13G28G23
 128691119.096 7 100278820.300 6  24489104.195                    24489120.000
 123322347.807 6  96095437.452 6  23467479.203                    23467492.547
 122655007.162 7  95575364.43743  23340463.875                    23340475.672
 117102471.932 7  91248695.32545  22283861.781                    22283867.961
 115640952.138 7  90109870.59745  22005741.797                    22005749.906
 111883185.192 7  87181781.29246  21290676.094                    21290683.922
 107247552.520 8  83569549.970 8  20408531.734                    20408538.645
 116391503.131 7  90694693.53844  22148571.906                    22148580.934
 118773628.678 7  92550914.34645  22601869.102                    22601877.520
 126968962.165 6  98936868.23043  24161404.453                    24161415.867
 11  8 16 18 11 30.0000000  0 10G17G01G24G19G11G08G07G13G28G23
 128587194.440 7 100197840.363 6  24469327.875                    24469343.762
 123252667.640 6  96041141.280 6  23454220.297                    23454232.938
 122585334.367 7  95521074.04543  23327205.563                    23327216.688
 117185606.488 7  91313475.45145  22299681.711                    22299688.215
 115593219.668 7  90072676.47345  21996658.516                    21996666.676
 111818419.437 7  87131314.48945  21278351.305                    21278359.336
 107227838.892 8  83554188.679 8  20404780.078                    20404787.773
 116491173.282 7  90772358.45645  22167538.719                    22167547.578
 118740694.252 7  92525251.14845  22595602.172                    22595609.719
 127083640.849 5  99026227.94542  24183226.586                    24183239.297
 11  8 16 18 12  0.0000000  0 10G17G01G24G19G11G08G07G13G28G23
 128483385.560 7 100116950.670 6  24449573.289                    24449588.680
 123183167.192 6  95986985.163 7  23440994.102                    23441007.785
 122515814.243 7  95466902.60343  23313976.203                    23313987.703
 117269096.823 7  91378532.79845  22315569.516                    22315576.129
 115545909.131 7  90035811.12945  21987655.641                    21987663.754
 111753819.658 8  87080976.99446  21266057.984                    21266065.758
 107208476.180 8  83539100.837 8  20401095.867                    20401103.125
 116591110.763 7  90850231.66744  22186556.531                    22186565.527
 118707889.029 7  92499688.63345  22589359.352                    22589367.508
 127198322.484 6  99115589.90843  24205050.633                    24205063.320
 11  8 16 18 12 30.0000000  0 10G17G01G24G19G11G08G07G13G28G23
 128379694.726 6 100036152.963 6  24429841.336                    24429856.852
 123113849.976 7  95932971.846 7  23427803.086                    23427816.879
 122446449.867 7  95412852.53843  23300776.070                    23300788.246
 117352939.995 7  91443865.10245  22331524.445                    22331530.473
 115499022.992 7  89999276.49245  21978733.609                    21978741.473
 111689388.239 7  87030770.68546  21253797.125                    21253804.863
 107189466.105 8  83524287.766 7  20397478.195                    20397485.258
 116691312.299 7  90928310.65744  22205624.203                    22205632.789
 118675212.021 7  92474226.03045  22583141.766                    22583149.547
 127313004.102 6  99204951.83643  24226874.094                    24226887.230
 11  8 16 18 13  0.0000000  0 10G17G01G24G19G11G08G07G13G28G23
 128276123.815 6  99955448.714 6  24410131.953                    24410148.066
 123044718.616 6  95879103.330 6  23414648.359                    23414661.172
 122377244.370 7  95358926.26243  23287607.008                    23287618.598
 117437133.131 7  91509470.09245  22347545.844                    22347552.160
 115452563.574 7  89963074.34145  21969892.359                    21969900.836
 111625127.396 8  86980697.30846  21241568.961                    21241577.332
 107170810.106 8  83509750.600 7  20393928.141                    20393935.324
 116791774.600 7  91006592.85444  22224741.156                    22224750.496
 118642661.731 7  92448862.17845  22576947.547                    22576955.367
 127427682.822 6  99294311.51843  24248697.172                    24248709.758
 11  8 16 18 13 30.0000000  0 10G17G01G24G19G11G08G07G13G28G23
 128172674.830 6  99874839.455 6  24390446.672                    24390461.977
 122975776.402 7  95825382.179 7  23401528.680                    23401541.910
 122308201.029 7  95305126.32044  23274468.336                    23274480.094
 117521673.490 7  91575345.65345  22363633.391                    22363639.672
 115406533.619 7  89927206.85045  21961133.109                    21961141.238
 111561039.179 8  86930758.43046  21229372.930                    21229381.234
 107152510.383 8  83495491.061 8  20390446.211                    20390452.836
 116892495.031 7  91085076.16345  22243907.797                    22243917.375
 118610237.962 7  92423596.92045  22570777.313                    22570784.902
 127542356.185 6  99383667.03443  24270519.523                    24270532.086
 11  8 16 18 14  0.0000000  0 10G17G01G24G19G11G08G07G13G28G23
 128069350.187 6  99794327.059 6  24370783.789                    24370799.379
 122907026.579 7  95771810.954 7  23388446.305                    23388459.227
 122239323.043 7  95251455.26644  23261361.922                    23261373.250
 117606558.462 7  91641489.73145  22379786.586                    22379792.891
 115360935.652 7  89891675.97745  21952456.352                    21952464.398
 111497126.361 8  86880956.22645  21217210.969                    21217219.043
 107134569.120 8  83481510.837 8  20387031.773                    20387038.992
 116993470.927 7  91163758.53145  22263123.000                    22263132.781
 118577939.726 7  92398429.46545  22564631.438                    22564638.605
 127657021.953 6  99473016.62943  24292339.578                    24292352.754
 11  8 16 18 14 30.0000000  0 10G17G01G24G19G11G08G07G13G28G23
 127966151.298 6  99713912.659 6  24351144.773                    24351160.055
 122838471.791 7  95718391.708 7  23375400.813                    23375414.203
 122170613.195 7  95197915.21044  23248285.813                    23248297.680
 117691785.136 7  91707900.07245  22396004.125                    22396010.371
 115315772.133 7  89856483.63945  21943861.586                    21943870.168
 111433390.474 8  86831291.88946  21205082.484                    21205090.520
 107116987.341 8  83467810.710 8  20383686.156                    20383693.016
 117094698.549 7  91242637.04844  22282386.133                    22282395.730
 118545765.610 7  92373358.75345  22558508.078                    22558516.324
 127771676.517 6  99562357.49743  24314157.180                    24314171.914
 11  8 16 18 15  0.0000000  0 10G17G01G24G19G11G08G07G13G28G23
 127863080.315 6  99633597.932 6  24331531.875                    24331546.145
 122770114.534 7  95665126.366 7  23362392.664                    23362406.387
 122102074.168 7  95144508.26444  23235242.703                    23235255.563
 117777350.365 7  91774574.24545  22412287.320                    22412293.727
 115271044.969 7  89821631.31245  21935350.359                    21935358.484
 111369833.616 8  86781767.04646  21192987.766                    21192995.711
 107099766.514 8  83454391.864 8  20380408.813                    20380416.207
 117196174.375 7  91321708.97944  22301696.461                    22301706.168
 118513714.618 7  92348383.96045  22552409.766                    22552417.281
 127886316.855 6  99651687.28043  24335973.188                    24335987.387
 11  8 16 18 15 30.0000000  0 10G17G01G24G19G11G08G07G13G28G23
 127760139.519 6  99553384.622 6  24311942.508                    24311956.910
 122701958.279 7  95612017.676 7  23349423.297                    23349436.918
 122033709.561 7  95091237.23644  23222233.891                    23222246.055
 117863251.431 7  91841510.07145  22428633.820                    22428640.078
 115226756.991 7  89787121.21045  21926922.813                    21926930.813
 111306458.735 8  86732384.00346  21180928.297                    21180936.250
 107082909.083 8  83441256.191 8  20377201.117                    20377208.422
 117297895.963 7  91400972.39545  22321053.719                    22321063.078
 118481786.491 7  92323504.89145  22546333.914                    22546341.727
 128000941.059 6  99741004.49443  24357786.109                    24357799.785
 11  8 16 18 16  0.0000000  0 10G17G01G24G19G11G08G07G13G28G23
 127657331.251 6  99473274.570 6  24292377.992                    24292393.168
 122634006.231 7  95559068.085 7  23336492.555                    23336505.645
 121965522.920 7  95038104.87844  23209258.422                    23209270.566
 117949485.954 7  91908705.75945  22445043.750                    22445050.383
 115182910.906 7  89752955.43145  21918579.281                    21918587.414
 111243268.153 8  86683144.58046  21168903.664                    21168911.691
 107066417.219 8  83428405.365 8  20374063.133                    20374070.191
 117399860.642 7  91480425.24145  22340457.203                    22340466.668
 118449980.092 7  92298720.71645  22540281.258                    22540289.289
 128115546.542 6  99830307.14743  24379594.773                    24379608.477
 11  8 16 18 16 30.0000000  0 10G17G01G24G19G11G08G07G13G28G23
 127554657.012 6  99393268.916 6  24272840.055                    24272854.457
 122566261.169 7  95506279.776 7  23323600.602                    23323613.797
 121897516.733 7  94985113.11844  23196317.063                    23196329.789
 118036050.432 7  91976158.56045  22461516.109                    22461522.410
 115139508.751 7  89719135.59445  21910320.195                    21910327.934
 111180263.353 8  86634049.92546  21156914.148                    21156921.844
 107050291.478 8  83415839.832 7  20370994.336                    20371001.512
 117502064.464 7  91560064.42844  22359906.102                    22359915.211
 118418293.968 7  92274030.25345  22534251.648                    22534259.363
 128230129.838 6  99919592.50943  24401400.109                    24401413.395
 11  8 16 18 17  0.0000000  0 10G17G01G24G19G11G08G07G13G28G23
 127452119.236 6  99313369.607 6  24253327.094                    24253341.691
 122498725.954 7  95453654.974 7  23310749.008                    23310761.816
 121829694.021 7  94932264.34144  23183411.156                    23183423.262
 118122942.254 7  92043866.41045  22478051.281                    22478058.234
 115096552.791 7  89685663.43445  21902145.750                    21902154.121
 111117447.010 8  86585102.10246  21144960.633                    21144968.551
 107034533.939 8  83403561.195 8  20367995.602                    20368002.695
 117604504.991 7  91639888.05544  22379399.891                    22379408.855
 118386727.489 7  92249433.03745  22528244.320                    22528252.441
 128344688.518 6 100008858.68543  24423199.508                    24423213.758
 11  8 16 18 17 30.0000000  0 10G17G01G24G19G11G08G07G13G28G23
 127349719.755 6  99233578.040 6  24233841.477                    24233855.219
 122431403.807 7  95401196.223 7  23297938.055                    23297951.734
 121762058.088 7  94879561.10044  23170540.500                    23170552.055
 118210158.618 7  92111827.17145  22494648.219                    22494654.316
 115054045.605 7  89652540.95245  21894057.023                    21894064.973
 111054821.517 8  86536303.01446  21133043.117                    21133051.262
 107019146.705 8  83391571.125 8  20365067.664                    20365075.027
 117707178.794 7  91719893.46744  22398937.875                    22398947.785
 118355280.069 7  92224928.56845  22522260.258                    22522268.023
 128459220.138 6 100098103.75843  24444994.523                    24445008.629
 11  8 16 18 18  0.0000000  0 10G17G01G24G19G11G08G07G13G28G23
 127247461.713 6  99153896.703 6  24214381.727                    24214396.613
 122364298.598 6  95348906.487 7  23285168.773                    23285181.168
 121694613.077 7  94827006.60644  23157705.625                    23157717.707
 118297697.960 7  92180039.59845  22511306.211                    22511312.137
 115011990.673 7  89619770.89245  21886054.141                    21886062.137
 110992390.225 8  86487655.24246  21121163.219                    21121171.160
 107004132.642 8  83379871.831 8  20362210.688                    20362217.848
 117810084.205 7  91800079.31444  22418520.117                    22418530.047
 118323951.690 7  92200516.86145  22516298.734                    22516306.570
 128573722.781 6 100187326.28043  24466784.336                    24466797.918
 11  8 16 18 18 30.0000000  0  9G17G01G24G19G11G08G07G13G28
 127145346.102 6  99074326.322 6  24194949.289                    24194965.316
 122297412.163 7  95296787.228 7  23272439.969                    23272453.703
 121627360.782 7  94774602.28944  23144908.211                    23144920.324
 118385555.919 7  92248500.28345  22528025.234                    22528031.969
 114970388.837 7  89587353.88345  21878137.641                    21878145.824
 110930154.275 8  86439159.68546  21109320.039                    21109328.285
 106989491.831 8  83368463.385 8  20359424.539                    20359432.145
 117913216.520 7  91880441.98744  22438145.539                    22438155.691
 118292740.183 7  92176196.23745  22510359.195                    22510367.160
 11  8 16 18 19  0.0000000  0  9G17G01G24G19G11G08G07G13G28
 127043374.296 6  98994868.007 6  24175545.242                    24175560.254
 122230746.895 7  95244840.322 7  23259754.805                    23259767.922
 121560303.951 7  94722350.26944  23132147.578                    23132159.551
 118473729.618 7  92317207.01745  22544803.969                    22544810.199
 114929242.204 7  89555291.58445  21870307.289                    21870315.922
 110868115.540 8  86390817.79946  21097514.438                    21097522.672
 106975225.382 8  83357346.647 8  20356710.172                    20356717.199
 118016572.542 7  91960978.99344  22457813.703                    22457823.941
 118261643.771 7  92151965.25845  22504441.531                    22504449.473
 11  8 16 18 19 30.0000000  0  9G17G01G24G19G11G08G07G13G28
 126941549.335 6  98915524.132 6  24156168.648                    24156183.125
 122164306.833 7  95193068.863 7  23247110.703                    23247123.656
 121493446.344 7  94670253.48144  23119424.594                    23119437.012
 118562216.551 7  92386157.81545  22561642.633                    22561649.410
 114888553.696 7  89523586.26445  21862564.813                    21862573.027
 110806276.997 8  86342631.91846  21085747.000                    21085755.008
 106961336.277 8  83346523.941 8  20354066.984                    20354074.168
 118120150.031 7  92041688.55244  22477524.305                    22477533.844
 118230662.761 7  92127824.24145  22498546.523                    22498554.285
 11  8 16 18 20  0.0000000  0  9G17G01G24G19G11G08G07G13G28
 126839872.960 6  98836296.045 6  24136819.922                    24136833.934
 122098094.542 7  95141474.885 7  23234511.414                    23234524.504
 121426790.795 7  94618314.15544  23106740.688                    23106752.238
 118651013.909 7  92455350.51445  22578540.438                    22578547.012
 114848325.464 7  89492239.60745  21854909.281                    21854918.059
 110744640.554 7  86294603.51946  21074017.719                    21074025.898
 106947825.933 8  83335996.376 8  20351495.805                    20351503.309
 118223945.624 7  92122568.06244  22497275.875                    22497285.730
 118199796.043 7  92103772.26845  22492672.398                    22492680.414
 11  8 16 18 20 30.0000000  0 10G17G26G01G24G19G11G08G07G13G28
 126738346.815 6  98757184.999 6  24117499.633                    24117513.707
 127431145.73515  99297073.20952  24249349.805                    24249359.785
 122032113.035 6  95090060.763 7  23221954.484                    23221968.168
 121360340.279 7  94566534.59444  23094095.867                    23094107.074
 118740118.843 7  92524782.87045  22595496.453                    22595502.695
 114808559.559 7  89461253.18645  21847342.125                    21847350.594
 110683208.460 7  86246734.34746  21062327.836                    21062335.848
 106934695.740 8  83325765.024 8  20348997.531                    20349004.836
 118327955.985 7  92203614.93144  22517068.734                    22517078.422
 118169042.370 7  92079808.35045  22486820.414                    22486827.785
 11  8 16 18 21  0.0000000  0 10G17G26G01G24G19G11G08G07G13G28
 126636973.960 6  98678193.411 6  24098208.672                    24098223.277
 127342721.496 5  99228171.21342  24232523.609                    24232533.574
 121966366.094 6  95038829.416 7  23209443.688                    23209456.906
 121294098.861 7  94514917.95744  23081490.219                    23081501.672
 118829529.099 7  92594453.14745  22612510.438                    22612516.676
 114769259.357 7  89430629.66845  21839863.711                    21839871.773
 110621984.473 8  86199027.34346  21050677.117                    21050685.680
 106921948.283 8  83315831.925 8  20346571.492                    20346578.969
 118432178.813 7  92284827.35144  22536901.805                    22536911.539
 118138401.967 7  92055932.72845  22480989.508                    22480997.723
 11  8 16 18 21 30.0000000  0 10G17G26G01G24G19G11G08G07G13G28
 126535755.999 6  98599322.483 6  24078947.383                    24078961.414
 127254674.710 5  99159563.30642  24215769.070                    24215778.941
 121900855.991 6  94987782.615 7  23196977.531                    23196991.180
 121228069.059 7  94463466.20844  23068925.227                    23068937.023
 118919241.127 7  92664358.61145  22629581.867                    22629588.559
 114730426.593 7  89400370.38245  21832473.594                    21832482.551
 110560969.780 8  86151483.42646  21039066.203                    21039074.582
 106909584.886 8  83306198.086 8  20344218.992                    20344225.945
 118536610.573 7  92366202.58744  22556774.531                    22556784.195
 118107873.116 7  92032144.02245  22475180.109                    22475188.063
 11  8 16 18 22  0.0000000  0 10G17G26G01G24G19G11G08G07G13G28
 126434694.527 6  98520573.541 6  24059715.203                    24059730.484
 127167007.64215  99091251.41352  24199086.469                    24199096.898
 121835585.389 7  94936922.460 7  23184557.047                    23184570.617
 121162253.502 7  94412181.42344  23056400.609                    23056412.926
 119009252.113 7  92734496.96645  22646710.180                    22646716.965
 114692062.593 7  89370476.36245  21825173.695                    21825182.250
 110500166.567 8  86104104.29246  21027496.297                    21027503.770
 106897606.576 8  83296864.326 8  20341939.594                    20341946.695
 118641247.893 7  92447737.96844  22576686.938                    22576696.836
 118077454.592 7  92008441.27545  22469391.438                    22469399.527
 11  8 16 18 22 30.0000000  0 10G17G26G01G24G19G11G08G07G13G28
 126333791.269 6  98441947.917 6  24040513.602                    24040528.328
 127079723.026 5  99023237.45442  24182476.227                    24182486.715
 121770557.460 7  94886251.359 7  23172182.797                    23172195.930
 121096655.315 6  94361066.00244  23043917.977                    23043929.281
 119099559.129 7  92804866.03645  22663895.602                    22663902.000
 114654169.635 7  89340949.38945  21817963.063                    21817970.859
 110439576.964 8  86056891.60946  21015966.297                    21015974.105
 106886014.871 8  83287831.806 8  20339733.609                    20339740.930
 118746087.490 7  92529430.99044  22596637.250                    22596647.363
 118047145.654 7  91984823.91945  22463623.664                    22463631.496
 11  8 16 18 23  0.0000000  0 10G17G26G01G24G19G11G08G07G13G28
 126233048.875 6  98363447.619 6  24021343.070                    24021357.563
 126992824.058 6  98955523.95942  24165939.883                    24165950.090
 121705775.236 7  94835771.702 7  23159855.328                    23159868.266
 121031277.999 7  94310122.67344  23031476.523                    23031488.516
 119190159.583 7  92875463.75844  22681136.273                    22681142.086
 114616750.625 7  89311791.73345  21810842.352                    21810850.672
 110379204.054 8  86009847.78946  21004477.469                    21004485.973
 106874811.967 8  83279102.221 8  20337601.977                    20337609.043
 118851126.712 7  92611279.56044  22616625.492                    22616635.379
 118016945.387 7  91961291.24545  22457877.375                    22457884.746
 11  8 16 18 23 30.0000000  0 10G17G26G01G24G19G11G08G07G13G28
 126132469.134 7  98285074.000 6  24002204.063                    24002217.453
 126906313.157 6  98888112.89842  24149478.016                    24149487.797
 121641241.010 7  94785485.336 7  23147574.156                    23147587.992
 120966124.041 7  94259353.38944  23019078.148                    23019090.555
 119281050.205 7  92946287.57845  22698432.359                    22698439.098
 114579807.155 7  89283004.62145  21803811.844                    21803820.527
 110319049.514 8  85962974.12246  20993030.539                    20993038.668
 106863998.982 8  83270676.490 8  20335544.430                    20335551.758
 118956362.095 7  92693280.95944  22636651.484                    22636661.559
 117986852.718 7  91937842.44345  22452150.258                    22452158.500
 11  8 16 18 24  0.0000000  0 10G17G26G01G24G19G11G08G07G13G28
 126032053.637 7  98206828.399 6  23983095.617                    23983108.250
 126820193.526 6  98821006.69343  24133089.773                    24133099.398
 121576958.610 7  94735395.155 7  23135342.172                    23135355.078
 120901197.011 7  94208760.93344  23006723.344                    23006734.348
 119372228.420 7  93017335.47445  22715782.688                    22715789.457
 114543341.598 7  89254589.92445  21796872.633                    21796881.453
 110259116.249 8  85916272.87946  20981625.719                    20981633.668
 106853578.026 8  83262556.242 8  20333561.273                    20333569.066
 119061790.812 7  92775433.01544  22656713.484                    22656724.258
 117956866.975 7  91914476.94045  22446444.539                    22446452.164
 11  8 16 18 24 30.0000000  0 10G17G26G01G24G19G11G08G07G13G28
 125931804.620 7  98128712.500 6  23964018.352                    23964032.125
 126734467.583 6  98754207.25043  24116776.641                    24116786.773
 121512930.491 7  94685503.159 7  23123157.859                    23123171.074
 120836499.616 7  94158347.42744  22994411.320                    22994423.078
 119463691.370 7  93088605.26245  22733188.594                    22733193.914
 114507355.964 7  89226549.18545  21790024.906                    21790033.863
 110199406.185 8  85869745.56346  20970263.219                    20970271.496
 106843550.500 8  83254742.542 8  20331653.336                    20331660.195
 119167409.693 7  92857733.25244  22676811.328                    22676822.902
 117926987.383 7  91891194.13445  22440758.430                    22440766.551
 11  8 16 18 25  0.0000000  0 10G17G26G01G24G19G11G08G07G13G28
 125831724.047 7  98050727.873 6  23944973.609                    23944987.816
 126649138.217 6  98687716.82943  24100538.617                    24100549.172
 121449159.848 7  94635811.767 7  23111022.883                    23111035.977
 120772035.047 7  94108115.32344  22982144.570                    22982156.145
 119555436.069 7  93160094.59045  22750646.422                    22750652.746
 114471852.348 8  89198884.04145  21783269.078                    21783277.477
 110139921.742 8  85823394.04846  20958943.797                    20958952.004
 106833917.968 8  83247236.659 8  20329819.945                    20329827.270
 119273215.715 7  92940179.29444  22696946.867                    22696956.844
 117897212.628 7  91867993.05445  22435092.422                    22435100.535
 11  8 16 18 25 30.0000000  0 10G17G26G01G24G19G11G08G07G13G28
 125731814.127 7  97972876.219 6  23925960.898                    23925975.055
 126564208.173 6  98621537.52943  24084378.055                    24084387.914
 121385649.566 7  94586323.260 7  23098937.594                    23098950.352
 120707806.439 7  94058067.07544  22969922.234                    22969933.703
 119647460.060 7  93231801.53345  22768157.992                    22768163.926
 114436833.156 7  89171596.36245  21776605.422                    21776613.672
 110080665.861 8  85777220.64346  20947667.758                    20947676.000
 106824682.196 8  83240039.919 8  20328062.820                    20328069.617
 119379205.995 7  93022768.92244  22717116.211                    22717126.879
 117867542.059 7  91844873.13245  22429446.773                    22429454.742
 11  8 16 18 26  0.0000000  0 10G17G26G01G24G19G11G08G07G13G28
 125632076.840 7  97895159.098 6  23906981.969                    23906995.414
 126479680.210 6  98555671.59043  24068292.281                    24068302.902
 121322402.619 7  94537039.939 7  23086901.617                    23086914.895
 120643816.983 7  94008205.20044  22957745.484                    22957757.684
 119739760.353 7  93303723.78745  22785722.336                    22785728.961
 114402300.215 7  89144687.58745  21770033.836                    21770041.984
 110021640.708 8  85731227.01246  20936435.672                    20936443.668
 106815844.894 8  83233153.689 8  20326380.813                    20326388.227
 119485377.295 7  93105499.61644  22737319.906                    22737330.738
 117837975.044 7  91821833.91345  22423820.531                    22423828.586
 11  8 16 18 26 30.0000000  0 10G17G26G01G24G19G11G08G07G13G28
 125532513.738 6  97817577.691 6  23888034.875                    23888048.609
 126395557.030 6  98490121.10243  24052283.234                    24052294.551
 121259421.646 7  94487963.899 7  23074916.656                    23074929.922
 120580069.480 7  93958531.85344  22945614.414                    22945625.941
 119832333.920 7  93375858.96545  22803338.852                    22803345.043
 114368255.616 7  89118159.34145  21763554.781                    21763563.426
 109962847.916 8  85685414.44146  20925247.477                    20925256.156
 106807407.374 8  83226578.978 8  20324775.547                    20324782.805
 119591726.376 7  93188368.83144  22757558.102                    22757568.621
 117808510.419 7  91798874.47745  22418213.273                    22418220.988
 11  8 16 18 27  0.0000000  0 10G17G26G01G24G19G11G08G07G13G28
 125433127.353 6  97740133.991 6  23869122.484                    23869136.215
 126311841.272 6  98424888.04643  24036353.773                    24036363.488
 121196709.770 7  94439097.551 7  23062983.445                    23062996.242
 120516567.348 7  93909049.70444  22933530.578                    22933542.289
 119925177.863 7  93448204.83745  22821006.047                    22821012.418
 114334701.192 7  89092013.05545  21757170.031                    21757178.027
 109904290.622 8  85639785.38646  20914104.453                    20914112.844
 106799371.233 8  83220317.020 8  20323245.883                    20323253.441
 119698250.333 7  93271374.30744  22777829.188                    22777840.012
 117779147.326 7  91775994.16045  22412625.797                    22412633.375
 11  8 16 18 27 30.0000000  0 10G17G26G01G24G19G11G08G07G13G28
 125333919.386 6  97662829.352 6  23850242.266                    23850257.434
 126228535.666 6  98359974.59243  24020500.773                    24020510.891
 121134270.094 7  94390443.317 7  23051101.164                    23051114.305
 120453313.494 7  93859761.01344  22921494.117                    22921505.480
 120018289.738 7  93520759.47745  22838724.625                    22838731.105
 114301639.444 7  89066250.66345  21750878.820                    21750887.078
 109845971.065 8  85594341.57146  20903006.508                    20903014.102
 106791738.162 8  83214369.138 8  20321793.805                    20321800.871
 119804945.896 7  93354513.51044  22798132.398                    22798143.191
 117749885.098 7  91753192.42145  22407057.180                    22407064.926
 11  8 16 18 28  0.0000000  0 10G17G26G01G24G19G11G08G07G13G28
 125234891.662 6  97585665.192 7  23831398.148                    23831412.746
 126145642.984 6  98295382.94043  24004727.258                    24004737.633
 121072105.418 6  94342003.378 7  23039271.508                    23039285.004
 120390310.995 7  93810668.19444  22909504.492                    22909516.195
 120111666.615 7  93593520.63944  22856493.758                    22856499.625
 114269072.426 7  89040873.77445  21744681.180                    21744689.625
 109787891.851 8  85549085.03646  20891954.547                    20891963.156
 106784509.720 8  83208736.559 8  20320417.859                    20320425.141
 119911810.286 7  93437784.26244  22818468.469                    22818479.305
 117720722.310 7  91730468.18245  22401507.867                    22401515.363
 11  8 16 18 28 30.0000000  0 10G17G26G01G24G19G11G08G07G13G28
 125136046.506 6  97508643.240 6  23812588.531                    23812603.156
 126063165.813 6  98231115.02043  23989032.367                    23989042.766
 121010218.944 6  94293780.209 7  23027494.781                    23027508.105
 120327562.953 7  93761773.64744  22897564.281                    22897576.000
 120205305.879 7  93666486.23744  22874312.813                    22874319.133
 114237001.952 7  89015883.80245  21738578.227                    21738586.672
 109730055.369 8  85504017.64246  20880948.711                    20880957.402
 106777687.663 8  83203420.660 8  20319119.898                    20319127.398
 120018840.323 7  93521184.05644  22838836.102                    22838846.648
 117691658.695 7  91707821.21645  22395977.227                    22395984.824
 11  8 16 18 29  0.0000000  0 10G17G26G01G24G19G11G08G07G13G28
 125037385.481 6  97431764.748 6  23793813.688                    23793827.941
 125981106.793 6  98167172.94443  23973415.734                    23973426.375
 120948613.113 6  94245775.759 7  23015772.008                    23015784.754
 120265072.152 7  93713079.56844  22885672.828                    22885684.191
 120299204.244 7  93739653.74144  22892180.789                    22892186.840
 114205429.566 7  88991281.94645  21732570.250                    21732579.094
 109672463.924 7  85459141.19246  20869989.484                    20869997.238
 106771273.005 8  83198422.193 8  20317899.344                    20317906.918
 120126032.910 7  93604710.53544  22859233.828                    22859244.918
 117662693.337 7  91685250.80045  22390465.039                    22390473.129
 11  8 16 18 29 30.0000000  0 10G17G26G01G24G19G11G08G07G13G28
 124938910.563 6  97355031.286 6  23775074.852                    23775088.395
 125899468.750 5  98103558.94942  23957880.477                    23957891.777
 120887290.919 7  94197992.289 7  23004102.516                    23004115.387
 120202841.660 7  93664588.31944  22873830.406                    22873841.652
 120393358.956 7  93813020.99544  22910097.898                    22910104.879
 114174357.520 7  88967069.96245  21726657.734                    21726665.281
 109615119.641 8  85414457.33046  20859076.906                    20859084.914
 106765267.538 8  83193742.594 8  20316756.438                    20316763.480
 120233384.844 7  93688361.17744  22879662.195                    22879672.813
 117633824.820 7  91662755.86545  22384971.977                    22384979.805
 11  8 16 18 30  0.0000000  0 10G17G26G01G24G19G11G08G07G13G28
 124840623.728 6  97278444.329 6  23756371.750                    23756384.344
 125818253.995 6  98040274.77442  23942425.688                    23942437.813
 120826254.977 7  94150431.887 7  22992487.359                    22992500.988
 120140874.586 6  93616302.34544  22862038.789                    22862049.844
 120487767.566 7  93886586.06744  22928063.469                    22928069.801
 114143787.716 7  88943249.34545  21720840.203                    21720848.602
 109558025.323 8  85369968.24346  20848212.617                    20848220.133
 106759672.550 8  83189382.858 8  20315691.805                    20315699.082
 120340893.202 7  93772133.70644  22900120.375                    22900131.051
 117605052.722 7  91640336.03645  22379496.820                    22379504.270
 11  8 16 18 30 30.0000000  0 10G17G26G01G24G19G11G08G07G13G28
 124742527.184 7  97202005.653 6  23737704.188                    23737717.289
 125737465.817 6  97977323.02043  23927052.281                    23927063.516
 120765508.542 6  94103097.057 7  22980928.070                    22980940.699
 120079174.173 6  93568224.16844  22850296.836                    22850308.371
 120582426.990 7  93960346.62644  22946076.609                    22946082.902
 114113722.219 7  88919821.68645  21715119.164                    21715127.367
 109501183.515 8  85325675.92246  20837396.156                    20837403.813
 106754490.274 8  83185344.684 8  20314706.023                    20314713.227
 120448554.873 7  93856025.70944  22920608.375                    22920618.820
 117576376.432 7  91617990.85645  22374039.836                    22374047.027
 11  8 16 18 31  0.0000000  0 10G17G26G01G24G19G11G08G07G13G28
 124644622.475 7  97125716.487 6  23719073.758                    23719086.594
 125657106.192 6  97914705.14342  23911761.023                    23911771.926
 120705054.355 6  94055989.993 7  22969423.984                    22969436.625
 120017743.034 7  93520355.83644  22838606.734                    22838618.523
 120677334.319 7  94034300.31644  22964136.586                    22964143.719
 114084162.662 7  88896788.26845  21709494.219                    21709501.996
 109444596.429 7  85281582.09246  20826628.023                    20826636.078
 106749721.359 8  83181628.624 8  20313798.398                    20313805.645
 120556366.790 7  93940034.77043  22941124.422                    22941135.168
 117547794.738 7  91595719.42245  22368600.734                    22368608.961
 11  8 16 18 31 30.0000000  0 10G17G26G01G24G19G11G08G07G13G28
 124546911.579 7  97049578.364 6  23700479.711                    23700492.539
 125577177.984 6  97852423.46443  23896551.500                    23896561.688
 120644895.321 7  94009112.892 7  22957976.031                    22957987.875
 119956584.391 6  93472699.82544  22826969.031                    22826980.301
 120772486.728 7  94108444.98544  22982243.977                    22982250.883
 114055110.974 7  88874150.60445  21703965.844                    21703973.703
 109388266.550 8  85237688.68246  20815908.469                    20815916.262
 106745367.408 7  83178235.916 8  20312969.672                    20312977.230
 120664325.744 7  94024158.39944  22961668.336                    22961678.508
 117519306.239 7  91573520.57445  22363179.703                    22363187.496
 11  8 16 18 32  0.0000000  0 10G17G26G01G24G19G11G08G07G13G28
 124449396.569 7  96973592.855 6  23681922.945                    23681935.871
 125497683.968 6  97790480.07443  23881424.914                    23881435.074
 120585034.697 7  93962468.320 7  22946584.930                    22946597.086
 119895701.527 6  93425258.68344  22815383.219                    22815394.801
 120867881.492 7  94182778.54045  23000397.250                    23000403.355
 114026569.291 7  88851910.33645  21698534.469                    21698542.422
 109332196.456 7  85193997.68746  20805239.156                    20805246.449
 106741430.605 8  83175168.252 8  20312220.734                    20312228.047
 120772429.118 7  94108394.59644  22982240.594                    22982249.980
 117490911.022 7  91551394.42145  22357776.250                    22357784.199
 11  8 16 18 32 30.0000000  0 10G17G26G01G24G19G11G08G07G13G28
 124352079.091 7  96897761.266 6  23663404.078                    23663416.777
 125418626.267 7  97728876.59843  23866380.195                    23866389.871
 120525474.883 7  93916058.141 7  22935251.492                    22935263.355
 119835096.795 7  93378034.32044  22803850.305                    22803861.613
 120963515.913 7  94257298.78645  23018595.461                    23018602.406
 113998539.053 8  88830068.60345  21693200.602                    21693208.551
 109276388.319 8  85150510.82846  20794619.016                    20794626.824
 106737911.492 8  83172426.064 8  20311551.023                    20311558.617
 120880673.309 7  94192740.47743  23002838.719                    23002848.230
 117462607.320 7  91529339.60845  22352389.820                    22352398.406
 11  8 16 18 33  0.0000000  0 10G17G26G01G24G19G11G08G07G13G28
 124254961.457 7  96822085.429 6  23644922.133                    23644936.023
 125340007.772 7  97667615.38843  23851419.961                    23851428.676
 120466218.732 7  93869884.563 7  22923974.625                    22923987.449
 119774773.773 6  93331029.45344  22792371.445                    22792382.770
 121059387.363 7  94332003.76445  23036839.430                    23036846.203
 113971022.177 7  88808626.89345  21687964.320                    21687972.574
 109220845.103 8  85107230.40446  20784049.117                    20784057.590
 106734812.428 8  83170011.180 8  20310960.859                    20310968.773
 120989055.725 7  94277194.10843  23023463.656                    23023473.711
 117434394.924 7  91507355.92345  22347021.625                    22347029.082
 11  8 16 18 33 30.0000000  0 10G17G26G01G24G19G11G08G07G13G28
 124158045.268 7  96746566.563 6  23626480.492                    23626493.031
 125261831.025 7  97606698.44243  23836543.180                    23836552.273
 120407269.114 7  93823949.865 7  22912756.992                    22912769.945
 119714735.206 6  93284246.24344  22780946.570                    22780957.586
 121155492.189 7  94406890.61144  23055127.109                    23055134.410
 113944020.067 7  88787586.30145  21682825.828                    21682834.262
 109165568.804 8  85064157.96246  20773530.609                    20773538.660
 106732133.843 8  83167923.951 8  20310451.594                    20310459.012
 121097573.038 7  94361752.82744  23044113.398                    23044123.961
 117406273.000 7  91485442.72745  22341670.430                    22341677.879
 11  8 16 18 34  0.0000000  0 10G17G26G01G24G19G11G08G07G13G28
 124061332.418 6  96671206.108 6  23608075.672                    23608088.668
 125184098.448 6  97546127.60943  23821751.047                    23821760.742
 120348628.954 7  93778256.288 7  22901598.031                    22901610.543
 119654984.028 6  93237686.93544  22769576.297                    22769587.090
 121251828.419 7  94481957.72945  23073459.563                    23073466.980
 113917535.122 7  88766948.68845  21677786.148                    21677793.938
 109110562.004 8  85021295.51746  20763063.156                    20763070.883
 106729877.689 8  83166165.876 8  20310022.242                    20310029.473
 121206222.048 7  94446414.17144  23064788.336                    23064799.879
 117378240.481 7  91463599.22245  22336335.992                    22336343.195
 11  8 16 18 34 30.0000000  0 10G17G26G01G24G19G11G08G07G13G28
 123964824.882 6  96596005.650 6  23589710.852                    23589723.754
 125106812.493 6  97485904.81543  23807043.109                    23807054.055
 120290300.657 6  93732805.718 7  22890498.867                    22890511.527
 119595523.347 7  93191354.03044  22758261.430                    22758271.848
 121348392.925 7  94557202.73944  23091835.695                    23091842.363
 113891568.700 7  88746715.12745  21672844.859                    21672852.891
 109055826.755 8  84978644.66546  20752647.188                    20752654.914
 106728045.144 8  83164737.901 8  20309673.359                    20309680.926
 121314999.641 7  94531175.72244  23085488.813                    23085499.227
 117350296.537 7  91441824.72045  22331018.172                    22331025.473
 11  8 16 18 35  0.0000000  0 10G17G26G01G24G19G11G08G07G13G28
 123868524.426 6  96520966.564 6  23571385.852                    23571398.523
 125029975.951 6  97426032.24243  23792421.703                    23792432.301
 120232287.927 7  93687601.033 7  22879459.320                    22879471.488
 119536356.355 7  93145249.93044  22747001.539                    22747013.012
 121445183.285 7  94632623.73344  23110254.188                    23110261.395
 113866123.010 7  88726887.33245  21668002.414                    21668010.543
 109001366.295 8  84936207.95346  20742283.773                    20742291.871
 106726638.202 8  83163641.554 8  20309405.852                    20309413.223
 121423903.308 7  94616035.51844  23106212.461                    23106223.289
 117322440.440 7  91420118.68845  22325717.070                    22325725.059
 11  8 16 18 35 30.0000000  0 10G17G26G01G24G19G11G08G07G13G28
 123772433.041 7  96446090.416 6  23553100.047                    23553112.387
 124953591.311 6  97366511.78643  23777886.523                    23777896.633
 120174593.221 6  93642644.173 7  22868479.859                    22868493.012
 119477485.787 6  93099376.84244  22735799.188                    22735809.902
 121542196.387 6  94708218.31144  23128714.438                    23128721.895
 113841199.461 8  88707466.40545  21663259.430                    21663267.449
 108947183.047 8  84893987.24046  20731973.336                    20731980.914
 106725657.900 8  83162877.645 8  20309219.391                    20309226.688
 121532929.859 7  94700991.05244  23126960.016                    23126971.207
 117294671.138 7  91398480.29845  22320433.016                    22320440.992
 11  8 16 18 36  0.0000000  0 10G17G26G01G24G19G11G08G07G13G28
 123676552.480 7  96371378.526 6  23534854.453                    23534867.289
 124877661.184 7  97307345.50643  23763438.328                    23763448.391
 120117219.134 6  93597937.145 7  22857562.164                    22857574.637
 119418914.378 7  93053736.86644  22724653.148                    22724664.109
 121639429.511 7  94783984.30644  23147218.023                    23147224.977
 113816799.434 7  88688453.42145  21658616.430                    21658624.355
 108893279.036 8  84851984.11446  20721715.664                    20721723.359
 106725105.416 7  83162447.112 8  20309114.016                    20309121.785
 121642075.844 7  94786039.65944  23147729.906                    23147740.645
 117266987.917 7  91376908.97745  22315165.008                    22315172.738
 11  8 16 18 36 30.0000000  0 10G17G26G01G24G19G11G08G07G13G28
 123580884.778 7  96296832.494 6  23516649.258                    23516661.594
 124802187.827 7  97248535.12343  23749075.672                    23749086.316
 120060168.650 7  93553482.258 7  22846705.383                    22846718.504
 119360645.536 7  93008332.63544  22713565.398                    22713576.391
 121736879.727 7  94859919.47544  23165762.461                    23165769.250
 113792924.796 8  88669849.82445  21654073.461                    21654081.152
 108839657.357 8  84810200.98346  20711511.352                    20711518.898
 106724982.278 7  83162351.132 8  20309090.766                    20309098.016
 121751338.515 7  94871179.19443  23168521.555                    23168533.117
 117239390.241 7  91355404.32445  22309913.180                    22309920.938
 11  8 16 18 37  0.0000000  0 10G17G26G01G24G19G11G08G07G13G28
 123485431.307 7  96222453.368 6  23498485.000                    23498497.258
 124727173.820 7  97190082.63943  23734801.063                    23734811.230
 120003444.174 7  93509281.442 7  22835911.242                    22835924.000
 119302681.719 7  92963166.07344  22702534.750                    22702545.684
 121834544.166 7  94936021.57344  23184347.398                    23184354.117
 113769576.871 7  88651656.64945  21649630.406                    21649638.359
 108786319.173 8  84768638.75946  20701361.664                    20701369.719
 106725289.664 7  83162590.622 8  20309149.492                    20309156.734
 121860714.638 7  94956407.10544  23189335.375                    23189346.891
 117211876.848 7  91333965.34245  22304677.695                    22304685.277
 11  8 16 18 37 30.0000000  0 10G17G26G01G24G19G11G08G07G13G28
 123390194.238 7  96148242.888 6  23480361.789                    23480373.609
 124652621.602 6  97131989.97743  23720614.383                    23720624.883
 119947049.017 6  93465337.200 7  22825179.633                    22825192.328
 119245026.142 7  92918239.73644  22691563.070                    22691574.586
 121932420.502 7  95012288.76044  23202972.125                    23202979.152
 113746758.075 8  88633875.79145  21645288.313                    21645296.152
 108733267.998 8  84727300.18446  20691266.734                    20691274.328
 106726029.508 8  83163167.096 8  20309290.297                    20309297.543
 121970201.401 7  95041721.25743  23210169.805                    23210181.707
 117184447.102 7  91312591.52145  22299458.039                    22299465.473
 11  8 16 18 38  0.0000000  0 10G17G26G01G24G19G11G08G07G13G28
 123295175.443 7  96074202.449 6  23462280.070                    23462292.402
 124578533.275 6  97074258.74843  23706515.453                    23706525.766
 119890985.588 7  93421651.456 7  22814511.078                    22814523.676
 119187681.885 7  92873555.97644  22680651.211                    22680662.320
 122030505.923 7  95088718.92344  23221637.539                    23221644.176
 113724469.169 7  88616507.83445  21641046.430                    21641054.992
 108680506.158 8  84686187.05446  20681226.148                    20681234.227
 106727202.478 8  83164081.066 8  20309512.844                    20309520.742
 122079795.439 7  95127118.96043  23231025.555                    23231037.406
 117157100.351 7  91291282.37245  22294254.227                    22294261.590
 11  8 16 18 38 30.0000000  0 10G17G26G01G24G19G11G08G07G13G28
 123200376.405 7  96000333.266 6  23444240.125                    23444252.594
 124504911.512 6  97016891.16143  23692505.789                    23692516.301
 119835256.348 6  93378226.134 7  22803905.258                    22803918.848
 119130651.448 6  92829116.73344  22669798.039                    22669810.016
 122128797.552 7  95165309.72644  23240342.406                    23240349.066
 113702711.754 8  88599554.02245  21636906.453                    21636914.039
 108628035.909 8  84645301.15646  20671241.125                    20671249.320
 106728809.930 8  83165333.593 8  20309819.711                    20309826.973
 122189493.917 7  95212598.08043  23251900.977                    23251912.492
 117129835.659 7  91270037.17545  22289065.961                    22289073.406
 11  8 16 18 39  0.0000000  0 10G17G26G01G24G19G11G08G07G13G28
 123105799.461 7  95926637.160 6  23426242.602                    23426254.559
 124431758.768 6  96959889.04143  23678585.352                    23678595.770
 119779864.760 7  93335063.917 7  22793365.336                    22793377.973
 119073938.103 7  92784924.57344  22659005.883                    22659017.336
 122227292.446 7  95242058.93344  23259084.805                    23259092.504
 113681488.179 7  88583016.17645  21632867.328                    21632875.758
 108575860.193 8  84604644.73046  20661312.734                    20661321.086
 106730853.448 8  83166925.907 8  20310208.148                    20310215.660
 122299294.080 7  95298156.39843  23272794.758                    23272806.750
 117102652.016 7  91248855.13145  22283892.906                    22283900.953
 11  8 16 18 39 30.0000000  0 10G17G26G01G24G19G11G08G07G13G28
 123011446.392 7  95853115.479 6  23408288.531                    23408299.402
 124359077.401 6  96903254.31943  23664753.867                    23664764.914
 119724813.113 7  93292166.543 7  22782889.188                    22782902.293
 119017544.753 7  92740981.77144  22648274.953                    22648286.508
 122325987.797 7  95318964.31944  23277865.656                    23277872.660
 113660799.466 7  88566895.11945  21628930.539                    21628938.813
 108523981.123 8  84564219.47546  20651440.758                    20651448.551
 106733334.129 8  83168858.868 8  20310679.891                    20310687.578
 122409192.550 7  95383791.35643  23293708.391                    23293719.688
 117075548.645 7  91227735.65645  22278735.352                    22278743.223
 11  8 16 18 40  0.0000000  0 10G17G26G01G24G19G11G08G07G13G28
 122917318.671 7  95779769.340 6  23390375.523                    23390387.398
 124286869.817 6  96846988.71943  23651013.477                    23651024.758
 119670104.088 7  93249536.190 7  22772478.555                    22772491.480
 118961474.132 7  92697290.45644  22637605.055                    22637615.988
 122424881.222 7  95396024.08744  23296684.563                    23296691.449
 113640646.673 7  88551191.64745  21625095.609                    21625103.375
 108472400.885 8  84524027.08246  20641624.789                    20641633.238
 106736253.430 8  83171133.627 8  20311235.867                    20311243.039
 122519186.304 7  95469500.56443  23314639.164                    23314650.547
 117048525.133 7  91206678.38645  22273592.656                    22273600.422
 11  8 16 18 40 30.0000000  0 10G17G26G01G24G19G11G08G07G13G28
 122823417.792 7  95706600.026 6  23372506.523                    23372519.164
 124215138.332 7  96791094.07344  23637364.477                    23637374.184
 119615740.511 6  93207174.994 7  22762133.883                    22762146.617
 118905729.572 7  92653853.18644  22626996.781                    22627007.867
 122523969.828 7  95473235.90144  23315540.914                    23315547.914
 113621031.650 7  88535907.22345  21621362.805                    21621371.250
 108421122.454 8  84484069.85146  20631866.828                    20631874.641
 106739612.439 8  83173751.008 8  20311875.195                    20311883.098
 122629272.539 7  95555281.77843  23335588.766                    23335600.090
 117021580.306 7  91185682.43045  22268465.109                    22268472.945
 11  8 16 18 41  0.0000000  0 10G17G26G01G24G19G11G08G07G13G28
 122729745.832 7  95633609.052 6  23354681.625                    23354693.523
 124143885.491 7  96735572.41044  23623804.828                    23623815.453
 119561725.111 7  93165085.121 7  22751854.867                    22751867.789
 118850313.400 7  92610671.80744  22616451.430                    22616462.824
 122623250.646 6  95550597.48444  23334433.406                    23334440.676
 113601955.592 8  88521042.76745  21617733.008                    21617741.348
 108370148.060 8  84444349.53346  20622166.859                    20622174.922
 106743412.101 8  83176711.754 8  20312598.195                    20312605.605
 122739447.833 7  95641132.43843  23356554.156                    23356565.926
 116994713.169 7  91164747.01545  22263352.727                    22263360.477
 11  8 16 18 41 30.0000000  0 10G17G26G01G24G19G11G08G07G13G28
 122636304.995 7  95560798.146 6  23336900.352                    23336911.820
 124073113.530 6  96680425.43743  23610337.742                    23610347.668
 119508061.076 7  93123269.015 7  22741642.758                    22741655.480
 118795228.777 7  92567748.78244  22605969.219                    22605980.266
 122722721.420 7  95628107.11744  23353362.500                    23353368.941
 113583420.434 7  88506599.78545  21614205.664                    21614213.758
 108319481.018 8  84404868.71246  20612525.492                    20612533.406
 106747654.392 8  83180017.416 8  20313405.273                    20313412.809
 122849709.690 7  95727050.53243  23377536.375                    23377548.926
 116967923.620 7  91143872.04245  22258254.852                    22258262.848
 11  8 16 18 42  0.0000000  0 10G17G26G01G24G19G11G08G07G13G28
 122543097.060 7  95488168.734 6  23319162.953                    23319175.125
 124002824.755 7  96625654.97243  23596962.023                    23596971.969
 119454750.450 6  93081728.299 7  22731497.969                    22731510.383
 118740478.595 7  92525086.37644  22595550.891                    22595562.063
 122822378.842 7  95705762.18644  23372326.813                    23372333.727
 113565427.222 7  88492579.11045  21610781.414                    21610790.336
 108269123.141 8  84365628.79846  20602942.563                    20602950.746
 106752340.042 8  83183668.537 8  20314296.906                    20314304.188
 122960054.862 7  95813033.51744  23398535.281                    23398546.965
 116941210.341 7  91123056.52045  22253171.273                    22253179.125
 11  8 16 18 42 30.0000000  0 10G17G26G01G24G19G11G08G07G13G28
 122450123.194 7  95415721.734 6  23301470.484                    23301482.141
 123933021.201 6  96571262.61343  23583679.367                    23583688.633
 119401795.897 7  93040465.034 7  22721421.141                    22721433.617
 118686065.261 7  92482686.41044  22585195.922                    22585207.055
 122922220.364 7  95783560.72144  23391325.758                    23391332.746
 113547977.107 7  88478981.63745  21607461.141                    21607468.797
 108219076.514 8  84326631.42246  20593419.344                    20593427.148
 106757469.858 8  83187665.777 8  20315273.297                    20315280.746
 123070479.911 7  95899078.76444  23419548.047                    23419560.309
 116914572.441 7  91102299.72545  22248101.906                    22248110.352
 11  8 16 18 43  0.0000000  0 10G17G26G01G24G19G11G08G07G13G28
 122357385.038 7  95343458.393 6  23283823.250                    23283834.969
 123863705.542 6  96517250.40043  23570487.188                    23570498.316
 119349200.269 6  92999481.467 7  22711412.500                    22711425.129
 118631991.779 7  92440551.29244  22574905.828                    22574917.203
 123022243.185 7  95861500.48644  23410359.688                    23410365.965
 113531071.732 7  88465808.61045  21604243.711                    21604252.223
 108169343.652 8  84287878.52846  20583955.391                    20583963.055
 106763045.375 8  83192010.321 8  20316333.945                    20316341.844
 123180982.287 7  95985184.26444  23440576.055                    23440588.336
 116888009.232 7  91081601.11945  22243047.148                    22243055.039
 11  8 16 18 43 30.0000000  0 10G17G26G01G24G19G11G08G07G13G28
 122264884.667 7  95271380.302 6  23266220.430                    23266232.539
 123794879.905 7  96463620.01843  23557390.852                    23557400.871
 119296966.438 7  92958779.814 7  22701472.492                    22701485.035
 118578261.290 7  92398683.41744  22564681.602                    22564692.762
 123122444.562 7  95939579.43444  23429427.203                    23429433.902
 113514712.682 8  88453061.31145  21601130.953                    21601139.512
 108119927.402 8  84249372.35246  20574551.680                    20574559.621
 106769067.881 7  83196703.150 7  20317480.297                    20317487.168
 123291558.929 7  96071347.61843  23461618.398                    23461630.504
 116861520.266 7  91060960.35545  22238007.195                    22238014.496
 11  8 16 18 44  0.0000000  0 10G17G26G01G24G19G11G08G07G13G28
 122172623.811 7  95199488.885 6  23248664.172                    23248675.684
 123726546.341 7  96410373.08943  23544387.594                    23544397.547
 119245096.706 6  92918361.878 7  22691602.578                    22691614.551
 118524876.491 7  92357084.93144  22554522.836                    22554534.004
 123222822.292 6  96017795.77944  23448528.500                    23448535.668
 113498901.035 7  88440740.55445  21598122.406                    21598130.414
 108070830.207 8  84211114.79146  20565209.211                    20565217.008
 106775538.514 8  83201745.170 8  20318711.555                    20318718.957
 123402206.734 7  96157566.44243  23482673.820                    23482686.250
 116835104.406 7  91040376.58745  22232980.359                    22232988.164
 11  8 16 18 44 30.0000000  0 10G17G26G01G24G19G11G08G07G13G28
 122080604.460 7  95127785.603 6  23231153.047                    23231164.379
 123658707.537 7  96357511.70743  23531478.867                    23531488.469
 119193594.243 6  92878230.115 7  22681801.367                    22681814.207
 118471840.192 7  92315757.99544  22544430.250                    22544441.027
 123323373.457 7  96096147.25044  23467663.531                    23467669.773
 113483638.072 8  88428847.33545  21595217.688                    21595225.473
 108022055.081 8  84173108.19946  20555927.289                    20555935.520
 106782458.578 8  83207137.414 8  20320027.703                    20320036.266
 123512923.136 6  96243838.68943  23503742.781                    23503755.137
 116808761.071 7  91019849.33045  22227967.328                    22227974.773
 11  8 16 18 45  0.0000000  0 10G17G26G01G24G19G11G08G07G13G28
 121988828.182 7  95056271.718 6  23213688.789                    23213700.266
 123591365.395 7  96305037.30643  23518664.461                    23518674.016
 119142461.369 7  92838386.347 7  22672070.781                    22672083.805
 118419155.270 7  92274704.83944  22534404.289                    22534415.508
 123424095.204 6  96174631.68044  23486829.281                    23486836.344
 113468925.040 8  88417382.66145  21592417.555                    21592426.066
 107973604.177 8  84135354.25046  20546707.188                    20546714.820
 106789829.030 8  83212880.596 8  20321431.016                    20321438.469
 123623705.059 6  96330161.96343  23524824.383                    23524836.625
 116782489.712 7  90999378.16645  22222967.594                    22222975.633
 11  8 16 18 45 30.0000000  0 10G17G26G01G24G19G11G08G07G13G28
 121897296.560 7  94984948.546 6  23196270.633                    23196282.332
 123524522.355 7  96252951.83343  23505944.195                    23505954.227
 119091700.811 6  92798832.693 7  22662411.672                    22662424.086
 118366824.481 7  92233927.65044  22524446.453                    22524457.387
 123524984.948 6  96253246.99344  23506028.102                    23506035.484
 113454763.219 8  88406347.49945  21589723.094                    21589731.125
 107925479.636 8  84097854.60646  20537549.367                    20537557.266
 106797651.194 8  83218975.782 8  20322919.398                    20322926.875
 123734549.194 7  96416533.76343  23545917.375                    23545929.602
 116756289.681 7  90978962.57445  22217981.914                    22217989.480
 11  8 16 18 46  0.0000000  0 10G17G26G01G24G19G11G08G07G13G28
 121806011.090 7  94913817.155 7  23178899.258                    23178911.348
 123458180.108 6  96201256.58443  23493319.109                    23493329.402
 119041314.488 7  92759570.660 7  22652823.672                    22652835.621
 118314850.528 7  92193428.52544  22514556.266                    22514566.922
 123626039.865 6  96331991.03744  23525259.172                    23525265.656
 113441153.527 8  88395742.54845  21587133.563                    21587141.277
 107877683.587 8  84060610.92046  20528454.164                    20528461.824
 106805925.500 8  83225423.264 8  20324494.430                    20324501.867
 123845452.364 7  96502951.53443  23567022.313                    23567034.063
 116730159.562 7  90958601.43345  22213009.484                    22213017.121
 11  8 16 18 46 30.0000000  0 10G17G26G01G24G19G11G08G07G13G28
 121714973.924 7  94842879.247 7  23161575.406                    23161586.945
 123392341.271 6  96149953.62743  23480790.375                    23480800.449
 118991305.637 7  92720602.757 7  22643307.328                    22643319.496
 118263236.210 7  92153209.59144  22504734.195                    22504744.879
 123727257.391 6  96410861.78944  23544519.727                    23544526.824
 113428097.307 8  88385568.88245  21584649.000                    21584656.828
 107830219.214 8  84023625.68846  20519422.242                    20519430.316
 106814653.596 8  83232224.355 8  20326154.828                    20326162.813
 123956411.911 6  96589413.24243  23588137.172                    23588149.242
 116704099.118 8  90938294.61545  22208050.484                    22208058.430
 11  8 16 18 47  0.0000000  0 10G17G26G01G24G19G11G08G07G13G28
 121624186.341 7  94772135.811 6  23144298.344                    23144311.035
 123327007.734 7  96099044.37643  23468357.969                    23468367.871
 118941676.558 7  92681930.794 7  22633862.867                    22633875.414
 118211984.264 7  92113273.03944  22494980.969                    22494991.953
 123828634.732 6  96489857.05644  23563810.594                    23563817.664
 113415595.579 7  88375827.28345  21582269.398                    21582277.859
 107783088.753 8  83986900.66046  20510453.258                    20510461.430
 106823836.033 8  83239379.478 8  20327902.664                    20327909.941
 124067424.737 6  96675916.47543  23609262.375                    23609274.813
 116678107.385 7  90918041.33045  22203104.469                    22203112.441
 11  8 16 18 47 30.0000000  0 10G17G26G01G24G19G11G08G07G13G28
 121533650.169 7  94701588.293 6  23127070.719                    23127082.297
 123262181.792 7  96048530.64043  23456022.172                    23456031.715
 118892429.875 7  92643556.804 7  22624491.477                    22624504.059
 118161097.353 7  92073620.93944  22485297.305                    22485308.422
 123930169.224 6  96568974.79044  23583132.117                    23583139.086
 113403649.715 8  88366518.84245  21579996.602                    21580004.418
 107736294.591 8  83950437.66446  20501548.977                    20501556.871
 106833474.270 8  83246889.778 8  20329736.453                    20329744.137
 124178487.986 6  96762458.94543  23630396.922                    23630409.703
 116652183.470 8  90897840.88745  22198171.320                    22198179.008
 11  8 16 18 48  0.0000000  0 10G17G26G01G24G19G11G08G07G13G28
 121443367.322 7  94631238.179 7  23109889.875                    23109901.820
 123197865.453 7  95998414.02343  23443783.086                    23443792.863
 118843568.497 6  92605483.053 7  22615193.758                    22615205.641
 118110578.573 7  92034255.70444  22475684.383                    22475695.395
 124031858.251 6  96648212.93944  23602483.406                    23602490.402
 113392261.024 8  88357644.54545  21577829.445                    21577837.438
 107689839.572 8  83914238.93646  20492708.938                    20492716.820
 106843569.539 7  83254756.212 8  20331657.555                    20331665.004
 124289598.892 6  96849038.56343  23651541.195                    23651554.203
 116626327.160 7  90877693.13645  22193250.867                    22193258.395
 11  8 16 18 48 30.0000000  0 10G17G26G01G24G19G11G08G07G13G28
 121353339.146 7  94561086.498 6  23092758.578                    23092770.074
 123134060.963 6  95948696.24643  23431641.617                    23431651.156
 118795094.564 7  92567711.193 7  22605969.617                    22605981.457
 118060430.496 7  91995179.32444  22466141.578                    22466151.648
 124133699.211 6  96727569.45344  23621862.727                    23621869.602
 113381430.301 8  88349205.02445  21575768.164                    21575776.652
 107643725.936 8  83878306.23646  20483933.836                    20483941.828
 106854122.771 8  83262979.474 8  20333666.070                    20333673.418
 124400754.456 6  96935653.02243  23672693.617                    23672706.422
 116600537.382 7  90857597.22045  22188343.391                    22188351.469
 11  8 16 18 49  0.0000000  0 10G17G26G01G24G19G11G08G07G13G28
 121263567.371 7  94491134.580 6  23075675.313                    23075686.785
 123070770.228 6  95899378.81143  23419597.172                    23419607.977
 118747010.770 7  92530243.347 7  22596819.484                    22596832.113
 118010655.766 7  91956393.84844  22456669.344                    22456679.945
 124235689.390 6  96807042.24044  23641270.563                    23641278.027
 113371158.559 7  88341201.07845  21573813.680                    21573821.711
 107597956.029 8  83842641.37346  20475223.969                    20475231.891
 106865134.642 8  83271560.135 8  20335761.297                    20335768.945
 124511951.336 6  97022299.67343  23693853.984                    23693866.594
 116574813.385 7  90837552.56845  22183448.313                    22183456.539
 11  8 16 18 49 30.0000000  0 10G17G26G01G24G19G11G08G07G13G28
 121174053.884 7  94421383.944 6  23058641.258                    23058652.395
 123007995.385 6  95850463.37643  23407652.070                    23407662.898
 118699319.449 7  92493081.313 7  22587744.008                    22587756.676
 117961256.941 7  91917901.31244  22447268.797                    22447280.023
 124337826.058 7  96886629.19944  23660707.086                    23660714.246
 113361446.807 8  88333633.48145  21571965.688                    21571973.340
 107552532.440 8  83807246.37146  20466579.891                    20466587.977
 106876606.249 8  83280499.028 8  20337944.617                    20337952.113
 124623186.848 6  97108976.44943  23715020.859                    23715034.172
 116549154.569 8  90817558.71245  22178565.367                    22178573.266
 11  8 16 18 50  0.0000000  0 10G17G26G01G24G19G11G08G07G13G28
 121084800.267 7  94351835.814 6  23041656.359                    23041668.047
 122945738.677 6  95801951.69743  23395804.969                    23395815.137
 118652023.401 7  92456227.313 7  22578743.594                    22578756.004
 117912237.103 7  91879704.07744  22437941.000                    22437952.180
 124440106.993 6  96966328.58444  23680170.922                    23680177.555
 113352296.192 8  88326503.13545  21570224.063                    21570232.059
 107507458.076 8  83772123.47646  20458002.586                    20458010.258
 106888538.923 8  83289797.193 8  20340215.055                    20340222.492
 124734458.360 6  97195681.24243  23736196.219                    23736208.309
 116523560.072 8  90797614.96145  22173694.805                    22173702.754
 11  8 16 18 50 30.0000000  0 10G17G26G01G24G19G11G08G07G13G28
 120995807.737 7  94282491.091 6  23024722.281                    23024733.055
 122884001.707 6  95753844.95843  23384056.430                    23384066.379
 118605124.793 7  92419682.977 7  22569819.063                    22569831.672
 117863598.669 7  91841804.04244  22428685.930                    22428696.055
 124542529.169 6  97046137.98944  23699660.703                    23699668.086
 113343707.693 8  88319810.79945  21568589.930                    21568597.691
 107462734.688 8  83737274.08246  20449492.305                    20449500.133
 106900933.055 8  83299454.933 8  20342573.523                    20342580.984
 124845762.514 7  97282411.42743  23757376.602                    23757389.270
 116498029.452 7  90777720.99045  22168837.078                    22168844.719
 11  8 16 18 51  0.0000000  0 10G17G26G01G24G19G11G08G07G13G28
 120907077.812 7  94213351.026 6  23007836.680                    23007848.098
 122822786.525 6  95706144.81543  23372408.055                    23372417.469
 118558626.262 7  92383450.390 7  22560971.102                    22560983.262
 117815344.451 7  91804203.40844  22419503.117                    22419513.883
 124645090.044 6  97126055.47544  23719177.867                    23719184.887
 113335682.154 8  88313557.13145  21567062.828                    21567070.988
 107418364.848 8  83702700.17646  20441048.984                    20441056.945
 106913789.432 8  83309472.875 8  20345020.297                    20345027.699
 124957096.145 7  97369164.62043  23778562.305                    23778575.621
 116472561.778 8  90757876.07345  22163990.508                    22163998.129
 11  8 16 18 51 30.0000000  0 10G17G26G01G24G19G11G08G07G13G28
 120818612.717 7  94144417.287 6  22991002.242                    22991013.266
 122762095.408 6  95658853.03243  23360858.383                    23360868.285
 118512530.216 7  92347531.434 7  22552198.961                    22552211.348
 117767477.138 7  91766904.26344  22410394.156                    22410404.965
 124747787.236 6  97206079.15544  23738719.883                    23738727.219
 113328220.718 8  88307743.02745  21565642.594                    21565650.977
 107374351.647 8  83668404.17046  20432673.539                    20432681.027
 106927109.699 8  83319852.284 8  20347554.656                    20347563.012
 125068456.917 6  97455938.91343  23799754.469                    23799767.590
 116447156.605 7  90738079.85045  22159155.734                    22159163.707
 11  8 16 18 52  0.0000000  0 10G17G26G01G24G19G11G08G07G13G28
 120730413.902 7  94075691.059 7  22974218.438                    22974229.355
 122701930.186 6  95611971.06743  23349409.945                    23349419.715
 118466839.425 7  92311928.269 7  22543504.156                    22543516.742
 117719999.526 7  91729908.76444  22401359.117                    22401369.859
 124850617.970 6  97286206.92644  23758288.578                    23758296.020
 113321324.285 8  88302369.18445  21564330.461                    21564338.422
 107330697.334 8  83634387.83046  20424366.172                    20424373.789
 106940894.486 7  83330593.669 8  20350178.258                    20350185.777
 125179841.725 6  97542731.96743  23820950.242                    23820963.902
 116421813.293 8  90718331.82045  22154333.367                    22154340.988
 11  8 16 18 52 30.0000000  0 10G17G26G01G24G19G11G08G07G13G28
 120642482.736 7  94007173.387 6  22957486.023                    22957497.449
 122642292.839 6  95565500.39743  23338061.117                    23338071.043
 118421555.817 7  92276642.367 7  22534887.188                    22534899.336
 117672913.842 7  91693218.68044  22392398.492                    22392409.777
 124953579.502 6  97366436.64344  23777881.555                    23777888.797
 113314993.497 8  88297436.11945  21563125.609                    21563133.754
 107287403.905 8  83600652.67346  20416128.063                    20416135.703
 106955144.630 7  83341697.638 8  20352889.570                    20352897.078
 125291247.624 6  97629541.42243  23842150.961                    23842164.500
 116396530.711 7  90698631.12745  22149521.898                    22149529.840
 11  8 16 18 53  0.0000000  0 10G17G26G01G24G19G11G08G07G13G28
 120554820.865 7  93938865.565 7  22940804.445                    22940815.477
 122583185.303 6  95519442.58943  23326813.164                    23326823.523
 118376682.296 7  92241676.010 7  22526347.594                    22526360.152
 117626222.817 7  91656836.09544  22383514.117                    22383524.863
 125056669.310 6  97446766.31744  23797498.547                    23797505.992
 113309229.676 8  88292944.83045  21562028.867                    21562036.852
 107244474.209 8  83567200.97246  20407958.680                    20407966.316
 106969861.043 8  83353164.945 8  20355690.336                    20355697.613
 125402671.656 6  97716365.01343  23863353.820                    23863367.551
 116371308.527 8  90678977.48345  22144722.609                    22144730.410
 11  8 16 18 53 30.0000000  0 10G17G26G01G24G19G11G08G07G13G28
 120467429.972 7  93870768.872 7  22924174.453                    22924185.227
 122524609.242 6  95473798.93444  23315667.148                    23315676.934
 118332220.887 7  92207030.790 7  22517887.109                    22517899.813
 117579929.212 7  91620763.20844  22374704.086                    22374715.633
 125159884.907 6  97527193.96444  23817140.320                    23817147.715
 113304033.242 8  88288895.67845  21561040.086                    21561048.008
 107201910.696 8  83534034.59346  20399858.953                    20399866.852
 106985044.301 8  83364996.036 8  20358579.375                    20358587.258
 125514111.040 6  97803200.53643  23884561.063                    23884574.082
 116346146.000 8  90659370.33145  22139934.422                    22139941.828
 11  8 16 18 54  0.0000000  0 10G17G26G01G24G19G11G08G07G13G28
 120380311.481 7  93802884.445 6  22907596.313                    22907607.258
 122466566.817 6  95428571.08643  23304620.742                    23304632.008
 118288174.156 7  92172708.679 7  22509505.102                    22509517.430
 117534035.624 7  91585002.02044  22365970.992                    22365981.902
 125263223.428 6  97607717.40444  23836804.961                    23836812.984
 113299404.909 8  88285289.18145  21560158.922                    21560167.180
 107159715.507 8  83501155.21546  20391829.539                    20391837.652
 107000695.527 8  83377191.770 8  20361557.953                    20361565.406
 125625562.776 6  97890045.70443  23905769.508                    23905782.789
 116321042.524 8  90639809.20045  22135157.102                    22135164.680
 11  8 16 18 54 30.0000000  0 10G17G26G01G24G19G11G08G07G13G28
 120293466.812 7  93735213.400 6  22891070.195                    22891081.121
 122409059.724 6  95383760.36943  23293678.305                    23293688.246
 118244544.667 7  92138711.707 7  22501202.750                    22501215.031
 117488544.611 7  91549554.50144  22357314.883                    22357325.344
 125366682.759 6  97688335.01044  23856492.492                    23856500.016
 113295345.738 8  88282126.21345  21559386.883                    21559395.094
 107117891.138 8  83468564.77946  20383870.875                    20383878.633
 107016815.546 8  83389752.807 8  20364625.211                    20364632.969
 125737023.875 6  97976898.16243  23926980.234                    23926993.281
 116295997.115 7  90620293.31645  22130390.820                    22130399.371
 11  8 16 18 55  0.0000000  0 10G17G26G01G24G19G11G08G07G13G28
 120206897.694 7  93667757.072 7  22874596.500                    22874608.273
 122352089.807 6  95339368.24243  23282837.117                    23282847.289
 118201334.182 7  92105041.227 7  22492980.102                    22492991.977
 117443458.498 7  91514422.50844  22348734.883                    22348745.504
 125470260.073 6  97769044.54244  23876203.055                    23876210.195
 113291856.227 8  88279407.12545  21558723.398                    21558730.777
 107076439.986 8  83436265.17546  20375983.070                    20375990.977
 107033405.149 8  83402679.748 8  20367782.281                    20367789.996
 125848491.437 6  98063755.64343  23948191.336                    23948204.910
 116271009.348 8  90600822.34545  22125636.125                    22125644.023
 11  8 16 18 55 30.0000000  0 10G17G26G01G24G19G11G08G07G13G28
 120120605.820 7  93600516.751 7  22858176.164                    22858187.250
 122295658.717 6  95295395.97844  23272098.109                    23272108.305
 118158545.613 7  92071699.518 7  22484837.859                    22484849.953
 117398779.865 7  91479608.01144  22340232.727                    22340243.543
 125573952.832 6  97849844.04743  23895935.195                    23895942.125
 113288937.241 7  88277132.60745  21558167.375                    21558175.648
 107035364.371 8  83404258.19346  20368166.313                    20368174.141
 107050465.014 8  83415973.123 8  20371028.461                    20371036.184
 125959962.592 6  98150615.97143  23969404.594                    23969417.938
 116246078.527 7  90581395.72645  22120891.938                    22120899.398
 11  8 16 18 56  0.0000000  0 10G17G26G01G24G19G11G08G07G13G28
 120034591.888 7  93533493.031 7  22841807.656                    22841819.313
 122239768.387 7  95251845.10544  23261462.766                    23261473.059
 118116180.701 7  92038687.923 7  22476775.820                    22476787.977
 117354511.201 7  91445112.98744  22331809.031                    22331819.820
 125677758.110 6  97930731.21844  23915688.727                    23915695.844
 113286589.074 8  88275302.88145  21557721.094                    21557728.488
 106994666.585 8  83372545.62246  20360422.031                    20360429.359
 107067995.304 8  83429633.067 8  20374364.734                    20374372.422
 126071434.510 6  98237476.86743  23990616.883                    23990630.996
 116221203.951 8  90562012.94345  22116158.836                    22116165.906
 11  8 16 18 56 30.0000000  0 10G17G26G01G24G19G11G08G07G13G28
 119948858.371 7  93466687.802 7  22825492.938                    22825504.145
 122184420.711 6  95208717.03543  23250930.945                    23250940.734
 118074242.435 7  92006008.776 7  22468795.289                    22468808.070
 117310655.538 7  91410939.75544  22323463.398                    22323474.117
 125781674.144 6  98011704.68843  23935463.266                    23935470.352
 113284813.177 8  88273919.07745  21557382.977                    21557390.508
 106954349.942 8  83341130.03546  20352749.766                    20352757.535
 107085997.977 8  83443661.104 8  20377790.727                    20377798.258
 126182904.511 6  98324336.28043  24011829.109                    24011843.031
 116196385.344 8  90542673.79245  22111435.789                    22111443.254
 11  8 16 18 57  0.0000000  0 10G17G26G01G24G19G11G08G07G13G28
 119863406.840 7  93400102.328 7  22809232.156                    22809243.219
 122129617.418 7  95166013.19243  23240501.727                    23240512.016
 118032732.998 7  91973663.805 7  22460895.891                    22460908.805
 117267214.967 7  91377089.98344  22315197.086                    22315207.531
 125885698.160 6  98092762.27044  23955258.023                    23955266.109
 113283609.853 8  88272981.42945  21557153.758                    21557161.152
 106914416.470 8  83310013.04746  20345150.961                    20345158.879
 107104473.099 8  83458057.296 8  20381306.164                    20381314.063
 126294369.641 6  98411191.93443  24033040.625                    24033054.852
 116171621.593 7  90523377.37145  22106723.266                    22106731.117
 11  8 16 18 57 30.0000000  0 10G17G26G01G24G19G11G08G07G13G28
 119778238.437 7  93333737.464 7  22793025.211                    22793036.320
 122075360.172 7  95123734.82643  23230177.109                    23230187.258
 117991654.422 7  91941654.564 7  22453078.859                    22453091.598
 117224192.455 7  91343565.98644  22307009.852                    22307020.969
 125989827.432 6  98173901.86943  23975073.758                    23975081.199
 113282979.995 8  88272490.63645  21557033.750                    21557041.832
 106874868.638 8  83279196.55446  20337624.898                    20337633.242
 107123421.764 8  83472822.463 8  20384912.242                    20384919.758
 126405827.089 6  98498041.56543  24054250.586                    24054264.523
 116146912.518 8  90504123.56245  22102021.477                    22102028.895
 11  8 16 18 58  0.0000000  0 10G17G26G01G24G19G11G08G07G13G28
 119693354.316 7  93267594.099 7  22776871.961                    22776883.000
 122021650.770 6  95081883.35743  23219956.586                    23219966.758
 117951009.451 6  91909983.193 7  22445344.820                    22445357.551
 117181589.894 7  91310369.21645  22298902.719                    22298913.738
 126094059.543 6  98255121.64943  23994908.406                    23994916.016
 113282923.798 8  88272446.85245  21557023.250                    21557030.938
 106835708.690 8  83248682.29246  20330173.070                    20330180.750
 107142844.298 8  83487956.885 8  20388608.000                    20388615.762
 126517274.246 6  98584883.27442  24075458.297                    24075471.715
 116122257.537 8  90484911.88845  22097329.922                    22097337.059
 11  8 16 18 58 30.0000000  0 10G17G26G01G24G19G11G08G07G13G28
 119608756.204 7  93201673.594 7  22760773.586                    22760784.691
 121968490.875 6  95040460.06043  23209841.141                    23209850.781
 117910799.673 7  91878650.955 7  22437692.820                    22437704.980
 117139410.053 7  91277501.83945  22290876.523                    22290887.121
 126198391.908 7  98336419.51044  24014762.156                    24014769.422
 113283442.255 8  88272850.85345  21557121.680                    21557129.266
 106796938.975 8  83218472.11646  20322795.633                    20322803.512
 107162741.434 8  83503461.121 8  20392394.273                    20392401.953
 126628708.007 6  98671714.48842  24096664.250                    24096676.996
 116097655.873 8  90465741.77145  22092648.313                    22092655.953
 11  8 16 18 59  0.0000000  0 10G17G26G01G24G19G11G08G07G13G28
 119524445.680 7  93135977.206 7  22744729.633                    22744740.695
 121915882.100 6  94999466.17543  23199829.484                    23199839.590
 117871027.964 7  91847660.049 7  22430124.398                    22430137.188
 117097655.475 7  91244965.83745  22282930.852                    22282941.641
 126302822.199 6  98417793.69144  24034634.719                    24034642.113
 113284535.733 8  88273702.92645  21557329.781                    21557337.719
 106758562.380 8  83188568.27446  20315492.633                    20315500.664
 107183113.894 8  83519335.751 7  20396271.055                    20396278.742
 126740125.785 6  98758533.20442  24117865.602                    24117880.680
 116073106.919 8  90446612.73845  22087976.742                    22087984.035
 11  8 16 18 59 30.0000000  0 10G17G26G01G24G19G11G08G07G13G28
 119440424.262 7  93070506.100 7  22728740.578                    22728751.469
 121863825.887 6  94958902.88043  23189924.195                    23189933.375
 117831696.043 7  91817011.860 7  22422640.125                    22422652.121
 117056328.587 7  91212763.11044  22275066.664                    22275076.984
 126407347.756 7  98499242.11644  24054525.063                    24054532.332
 113286204.532 8  88275003.29845  21557647.477                    21557655.500
 106720580.491 8  83158971.98946  20308264.859                    20308273.063
 107203962.218 8  83535581.150 8  20400238.500                    20400246.273
 126851524.207 6  98845336.85643  24139063.789                    24139079.789
 116048609.832 7  90427524.10745  22083314.953                    22083322.227
 11  8 16 19  0  0.0000000  0 10G17G26G01G24G19G11G08G07G13G28
 119356693.159 7  93005261.182 7  22712807.336                    22712817.813
 121812324.195 6  94918771.68743  23180123.289                    23180133.160
 117792806.622 7  91786708.466 7  22415239.109                    22415251.781
 117015431.793 7  91180895.53045  22267283.852                    22267294.727
 126511966.214 7  98580762.93244  24074433.578                    24074440.309
 113288449.378 7  88276752.52545  21558074.234                    21558082.527
 106682996.298 8  83129685.59146  20301113.313                    20301120.953
 107225287.376 8  83552198.131 8  20404296.656                    20404304.277
 126962901.013 5  98932123.63542  24160259.539                    24160274.473
 116024164.230 7  90408475.61045  22078663.125                    22078670.711
 11  8 16 19  0 30.0000000  0 10G17G26G01G24G19G11G08G07G13G28
 119273253.710 7  92940243.545 7  22696928.883                    22696940.113
 121761378.479 6  94879073.72843  23170428.508                    23170438.492
 117754361.779 7  91756751.478 7  22407923.633                    22407935.543
 116974967.418 7  91149364.89245  22259583.984                    22259594.754
 126616675.166 7  98662354.24343  24094358.945                    24094366.582
 113291270.741 7  88278950.98245  21558611.516                    21558619.418
 106645812.154 8  83100710.93146  20294036.930                    20294044.977
 107247089.816 8  83569187.013 8  20408445.445                    20408453.129
 127074253.267 5  99018891.26242  24181449.266                    24181463.297
 115999769.697 7  90389466.89145  22074020.883                    22074028.836
 11  8 16 19  1  0.0000000  0 10G17G26G01G24G19G11G08G07G13G28
 119190107.542 7  92875454.448 7  22681106.789                    22681117.313
 121710990.528 6  94839810.38643  23160839.406                    23160849.773
 117716363.391 7  91727142.381 7  22400693.023                    22400705.090
 116934937.862 7  91118173.06344  22251966.688                    22251977.020
 126721472.062 7  98744014.08243  24114300.969                    24114309.020
 113294668.816 8  88281598.83245  21559257.531                    21559265.680
 106609030.082 8  83072049.57346  20287037.539                    20287045.551
 107269370.145 8  83586548.274 8  20412685.148                    20412693.242
 127185577.832 5  99105637.25842  24202633.438                    24202648.547
 115975425.681 8  90370497.53845  22069388.180                    22069396.168
 11  8 16 19  1 30.0000000  0 10G17G26G01G24G19G11G08G07G13G28
 119107256.015 7  92810894.921 7  22665340.344                    22665351.254
 121661161.586 6  94800982.63743  23151357.500                    23151368.000
 117678813.547 7  91697882.797 7  22393546.758                    22393559.422
 116895345.496 7  91087321.92744  22244432.195                    22244443.348
 126826354.317 6  98825740.45843  24134259.039                    24134266.680
 113298644.130 8  88284696.49545  21560014.094                    21560022.340
 106572652.648 8  83043703.50746  20280115.227                    20280123.238
 107292128.627 8  83604282.128 7  20417016.211                    20417023.961
 127296872.036 6  99192359.68043  24223813.250                    24223827.773
 115951131.261 8  90351566.83645  22064765.070                    22064773.402
 11  8 16 19  2  0.0000000  0 10G17G26G01G24G19G11G08G07G13G28
 119024700.262 7  92746565.858 7  22649630.461                    22649641.164
 121611893.272 6  94762591.72143  23141982.477                    23141992.242
 117641714.314 7  91668974.355 7  22386487.477                    22386499.754
 116856192.473 7  91056813.13144  22236981.719                    22236991.789
 126931319.488 7  98907531.43444  24154234.148                    24154240.996
 113303196.845 8  88288244.04645  21560881.016                    21560888.457
 106536681.815 8  83015674.27646  20273270.094                    20273278.211
 107315366.007 8  83622389.142 8  20421437.961                    20421445.957
 127408133.003 6  99279056.16043  24244985.203                    24245000.414
 115926885.944 8  90332674.39545  22060151.258                    22060158.883
 11  8 16 19  2 30.0000000  0 10G17G26G01G24G19G11G08G07G13G28
 118942441.962 7  92682468.577 7  22633977.070                    22633987.957
 121563187.166 6  94724638.88943  23132713.836                    23132723.961
 117605068.351 7  91640419.093 7  22379513.961                    22379525.957
 116817481.506 7  91026648.79244  22229614.836                    22229625.727
 127036365.294 6  98989385.23743  24174223.414                    24174231.078
 113308327.917 8  88292242.29245  21561856.781                    21561865.215
 106501120.478 8  82987964.12146  20266503.164                    20266511.191
 107339083.038 8  83640869.921 8  20425951.375                    20425958.902
 127519358.288 6  99365724.92243  24266150.766                    24266165.789
 115902689.034 8  90313819.66145  22055546.664                    22055554.043
 11  8 16 19  3  0.0000000  0 10G17G26G01G24G19G11G08G07G13G28
 118860482.273 7  92618604.008 7  22618381.258                    22618391.570
 121515044.591 7  94687125.18743  23123552.461                    23123562.996
 117568877.341 7  91612218.334 7  22372626.914                    22372639.359
 116779214.596 7  90996830.47244  22222333.102                    22222343.625
 127141489.216 6  99071299.90143  24194227.688                    24194235.281
 113314037.224 7  88296691.09645  21562943.641                    21562951.777
 106465970.790 7  82960574.75046  20259814.461                    20259822.508
 107363279.793 8  83659724.507 7  20430555.617                    20430563.371
 127630545.022 6  99452363.62443  24287309.031                    24287324.383
 115878540.189 7  90295002.40145  22050951.656                    22050959.199
 11  8 16 19  3 30.0000000  0 10G17G26G01G24G19G11G08G07G13G28
 118778823.021 7  92554973.525 7  22602841.438                    22602852.219
 121467467.161 7  94650051.82843  23114499.367                    23114508.922
 117533143.812 7  91584374.083 7  22365826.977                    22365839.336
 116741394.351 7  90967360.18045  22215136.578                    22215146.613
 127246688.907 6  99153273.60343  24214246.617                    24214254.547
 113320325.478 7  88301591.03445  21564140.211                    21564148.391
 106431235.286 8  82933508.11146  20253204.516                    20253212.641
 107387957.429 8  83678953.801 7  20435251.852                    20435259.484
 127741690.433 6  99538970.12043  24308460.086                    24308474.836
 115854439.231 7  90276222.45145  22046365.688                    22046372.867
 11  8 16 19  4  0.0000000  0 10G17G26G01G24G19G11G08G07G13G28
 118697465.078 7  92491577.854 7  22587359.047                    22587370.598
 121420456.002 6  94613419.79443  23105553.063                    23105563.004
 117497869.279 7  91556887.470 7  22359114.695                    22359127.141
 116704022.728 7  90938239.49844  22208024.695                    22208035.109
 127351961.956 6  99235304.50843  24234279.578                    24234287.750
 113327192.592 7  88306942.02845  21565447.258                    21565455.453
 106396915.653 8  82906765.53046  20246673.609                    20246681.695
 107413115.771 8  83698557.666 8  20440039.031                    20440047.098
 127852791.399 6  99625541.96843  24329601.813                    24329617.063
 115830385.018 7  90257478.91245  22041787.773                    22041795.488
 11  8 16 19  4 30.0000000  0 10G17G26G01G24G19G11G08G07G13G28
 118616409.788 7  92428417.989 7  22571934.992                    22571945.898
 121374012.681 7  94577230.17044  23096715.406                    23096725.422
 117463055.864 7  91529760.164 7  22352489.688                    22352502.039
 116667102.242 7  90909470.33144  22200998.766                    22201008.871
 127457305.886 6  99317390.62243  24254325.797                    24254334.336
 113334638.902 8  88312744.34845  21566864.141                    21566872.016
 106363014.529 8  82880349.05546  20240222.336                    20240230.445
 107438755.230 8  83718536.441 7  20444918.445                    20444926.293
 127963845.218 6  99712077.08142  24350734.969                    24350749.762
 115806377.114 7  90238771.47045  22037218.844                    22037226.871
 11  8 16 19  5  0.0000000  0 10G17G26G01G24G19G11G08G07G13G28
 118535658.700 7  92365495.179 7  22556568.008                    22556579.230
 121328138.789 7  94541484.31344  23087985.609                    23087995.668
 117428705.769 7  91502993.896 7  22345953.148                    22345965.098
 116630635.179 7  90881054.47744  22194059.422                    22194069.723
 127562718.286 6  99399530.07943  24274385.000                    24274393.563
 113342664.571 8  88318998.10745  21568391.227                    21568399.199
 106329534.464 8  82854260.69046  20233851.469                    20233859.324
 107464876.533 8  83738890.670 8  20449888.930                    20449896.910
 128074849.586 6  99798573.61942  24371858.289                    24371873.773
 115782415.174 7  90220099.82345  22032659.484                    22032667.211
 11  8 16 19  5 30.0000000  0 10G17G26G01G24G19G11G08G07G13G28
 118455213.411 7  92302810.663 7  22541260.352                    22541271.598
 121282835.748 7  94506183.24344  23079365.016                    23079374.414
 117394821.531 7  91476590.636 7  22339504.898                    22339517.582
 116594623.771 7  90852993.69445  22187206.828                    22187217.105
 127668196.980 6  99481721.21343  24294457.453                    24294465.234
 113351270.238 8  88325703.81745  21570028.977                    21570036.969
 106296478.277 8  82828502.60146  20227561.289                    20227569.137
 107491480.689 8  83759621.146 8  20454951.602                    20454959.613
 128185801.709 6  99885029.47942  24392972.000                    24392987.609
 115758499.210 7  90201464.00945  22028108.461                    22028116.363
 11  8 16 19  6  0.0000000  0 10G17G26G01G24G19G11G08G07G13G28
 118375074.605 7  92240364.949 7  22526009.711                    22526020.563
 121238104.557 7  94471327.76544  23070852.625                    23070862.828
 117361404.538 7  91450551.463 7  22333145.867                    22333158.266
 116559070.016 7  90825289.51644  22180440.906                    22180451.578
 127773739.274 6  99563961.87943  24314541.375                    24314549.637
 113360455.519 7  88332861.17445  21571776.813                    21571784.488
 106263847.254 8  82803075.82546  20221351.367                    20221359.449
 107518567.270 8  83780727.558 7  20460105.773                    20460113.551
 128296698.577 6  99971442.31942  24414075.930                    24414091.098
 115734627.935 7  90182863.01345  22023565.867                    22023573.301
 11  8 16 19  6 30.0000000  0 10G17G26G01G24G19G11G08G07G13G28
 118295243.863 7  92178159.288 7  22510818.328                    22510829.250
 121193946.732 7  94436919.07244  23062450.094                    23062459.387
 117328456.717 7  91424877.879 7  22326876.328                    22326888.383
 116523976.245 7  90797943.76445  22173762.539                    22173773.055
 127879343.120 6  99646250.50444  24334637.328                    24334644.992
 113370221.012 8  88340470.65245  21573635.063                    21573642.949
 106231643.998 8  82777982.37146  20215223.586                    20215231.816
 107546137.094 8  83802210.502 8  20465352.414                    20465360.352
 128407537.436 6 100057809.90342  24435167.758                    24435183.234
 115710800.928 7  90164296.52245  22019031.875                    22019039.688
 11  8 16 19  7  0.0000000  0 10G17G26G01G24G19G11G08G07G13G28
 118215722.433 7  92116194.651 7  22495686.555                    22495696.766
 121150363.456 7  94402958.08843  23054156.367                    23054165.910
 117295980.149 7  91399571.500 7  22320696.461                    22320708.281
 116489344.668 7  90770958.19045  22167172.633                    22167183.375
 127985005.806 6  99728584.99643  24354744.375                    24354751.922
 113380566.600 8  88348532.13945  21575603.961                    21575611.422
 106199870.943 8  82753224.13546  20209177.531                    20209185.543
 107574190.043 8  83824069.920 7  20470690.398                    20470698.578
 128518315.708 6 100144130.27242  24456249.031                    24456263.918
 115687017.817 8  90145764.23145  22014505.727                    22014513.555
 11  8 16 19  7 30.0000000  0 10G17G26G01G24G19G11G08G07G13G28
 118136511.523 7  92054471.967 7  22480612.664                    22480623.234
 121107356.070 7  94369445.86044  23045971.781                    23045982.324
 117263976.688 7  91374633.763 7  22314605.820                    22314618.492
 116455177.534 7  90744334.49645  22160670.547                    22160680.641
 128090725.284 6  99810963.72643  24374861.867                    24374869.500
 113391492.469 8  88357045.78345  21577683.266                    21577691.102
 106168530.375 8  82728802.91846  20203213.539                    20203221.363
 107602726.870 8  83846306.372 8  20476120.836                    20476128.977
 128629030.807 6 100230401.39543  24477317.656                    24477332.676
 115663278.247 8  90127265.87345  22009988.438                    22009995.934
 11  8 16 19  8  0.0000000  0 10G17G26G01G24G19G11G08G07G13G28
 118057612.257 7  91992992.108 7  22465598.500                    22465609.199
 121064925.597 7  94336383.14444  23037897.891                    23037907.820
 117232448.436 7  91350066.335 7  22308606.695                    22308618.141
 116421476.625 7  90718074.09544  22154257.672                    22154267.961
 128196499.122 6  99893384.81843  24394990.039                    24394997.695
 113402998.382 8  88366011.43945  21579872.602                    21579880.133
 106137623.970 8  82704719.98246  20197331.813                    20197340.590
 107631747.630 8  83868919.928 7  20481643.656                    20481651.875
 128739679.735 6 100316620.97043  24498373.078                    24498388.801
 115639581.699 8  90108801.02945  22005479.383                    22005486.930
 11  8 16 19  8 30.0000000  0 10G17G26G01G24G19G11G08G07G13G28
 117979026.279 7  91931756.410 7  22450644.234                    22450654.914
 121023073.725 7  94303771.28644  23029933.703                    23029943.301
 117201397.164 7  91325870.568 7  22302697.781                    22302709.973
 116388244.325 7  90692178.85445  22147933.859                    22147944.066
 128302324.916 6  99975846.39243  24415128.367                    24415136.207
 113415085.043 8  88375429.59745  21582172.656                    21582180.559
 106107154.784 8  82680977.75746  20191533.977                    20191542.180
 107661252.994 8  83891911.084 7  20487258.633                    20487266.512
 128850260.057 6 100402787.13142  24519416.266                    24519431.375
 115615927.796 7  90090369.41045  22000977.883                    22000985.484
 11  8 16 19  9  0.0000000  0 10G17G26G01G24G19G11G08G07G13G28
 117900754.826 7  91870765.767 7  22435749.781                    22435760.309
 120981801.238 7  94271610.93844  23022080.109                    23022090.367
 117170825.134 7  91302048.246 7  22296879.789                    22296891.730
 116355482.934 7  90666650.53944  22141699.164                    22141709.281
 128408200.467 6 100058346.74343  24435275.781                    24435283.266
 113427752.144 8  88385300.05845  21584583.305                    21584591.105
 106077124.790 8  82657577.75446  20185819.258                    20185827.750
 107691242.983 8  83915279.873 7  20492965.648                    20492973.434
 128960768.976 6 100488897.65642  24540445.914                    24540460.594
 115592315.821 8  90071970.47345  21996484.813                    21996492.793
 11  8 16 19  9 30.0000000  0 10G17G26G01G24G19G11G08G07G13G28
 117822799.013 7  91810021.092 7  22420914.891                    22420925.430
 120941109.427 7  94239903.02144  23014336.383                    23014346.551
 117140734.245 7  91278600.830 7  22291153.891                    22291165.855
 116323194.423 7  90641490.70945  22135554.883                    22135565.605
 128514123.440 6 100140884.06543  24455432.383                    24455439.375
 113440999.831 8  88395622.92745  21587104.094                    21587111.848
 106047536.059 8  82634521.58346  20180189.125                    20180197.273
 107721718.400 7  83939026.887 8  20498764.625                    20498772.926
 129071203.799 6 100574950.32242  24561461.492                    24561476.637
 115568745.411 8  90053603.92545  21991999.633                    21992006.828
 11  8 16 19 10  0.0000000  0 10G17G26G01G24G19G11G08G07G13G28
 117745159.947 7  91749523.204 7  22406140.508                    22406151.004
 120900999.402 7  94208648.47544  23006703.789                    23006713.906
 117111125.686 7  91255529.249 7  22285519.016                    22285531.867
 116291380.807 7  90616700.91945  22129501.055                    22129511.652
 128620091.526 6 100223456.50043  24475596.914                    24475604.824
 113454827.862 8  88406398.01845  21589735.039                    21589743.094
 106018390.917 8  82611811.06946  20174642.898                    20174651.297
 107752679.070 8  83963152.048 7  20504656.563                    20504664.398
 129181562.021 6 100660943.36842  24582461.633                    24582476.742
 115545215.930 8  90035269.27545  21987521.977                    21987529.574
 11  8 16 19 10 30.0000000  0 10G17G26G01G24G19G11G08G07G13G28
 117667838.801 7  91689273.071 7  22391426.578                    22391437.953
 120861472.213 7  94177848.07644  22999181.766                    22999192.477
 117082001.671 7  91232835.235 7  22279977.414                    22279989.605
 116260044.306 7  90592282.91044  22123537.539                    22123547.980
 128726102.546 6 100306062.42843  24495770.125                    24495777.398
 113469236.056 8  88417625.17345  21592477.281                    21592485.008
 105989691.760 8  82589448.08046  20169181.930                    20169189.773
 107784124.908 8  83987655.282 7  20510640.000                    20510648.016
 129291840.690 6 100746874.42342  24603447.430                    24603463.141
 115521727.284 8  90016966.43945  21983052.188                    21983059.531
 11  8 16 19 11  0.0000000  0 10G17G26G01G24G19G11G08G07G13G28
 117590836.569 7  91629271.442 7  22376774.039                    22376783.883
 120822528.935 7  94147502.65844  22991771.516                    22991781.645
 117053363.722 7  91210519.988 7  22274527.828                    22274539.754
 116229186.533 7  90568237.92144  22117665.344                    22117675.676
 128832153.965 6 100388699.82043  24515951.758                    24515959.094
 113484224.567 8  88429304.50545  21595329.477                    21595337.324
 105961440.293 8  82567433.92946  20163805.805                    20163813.746
 107816056.236 8  84012536.788 7  20516716.891                    20516724.512
 129402037.174 6 100832741.46342  24624417.398                    24624433.438
 115498278.948 8  89998694.99445  21978590.016                    21978597.082
 11  8 16 19 11 30.0000000  0 10G17G26G01G24G19G11G08G07G13G28
 117514154.730 7  91569519.437 7  22362181.398                    22362191.746
 120784170.694 7  94117613.12344  22984472.133                    22984481.723
 117025213.894 7  91188585.061 7  22269171.203                    22269183.434
 116198809.950 7  90544567.89045  22111885.023                    22111895.578
 128938243.500 6 100471366.90543  24536139.781                    24536147.113
 113499793.090 7  88441435.81945  21598291.820                    21598299.734
 105933638.938 8  82545770.52146  20158515.156                    20158523.270
 107848473.494 8  84037796.949 7  20522885.352                    20522893.102
 129512148.995 5 100918542.46942  24645370.609                    24645387.707
 115474870.148 8  89980454.36645  21974135.703                    21974143.406
 11  8 16 19 12  0.0000000  0 10G17G26G01G24G19G11G08G07G13G28
 117437794.743 7  91510018.222 7  22347650.969                    22347661.227
 120746398.590 7  94088180.31944  22977284.180                    22977294.676
 116997554.203 7  91167032.077 7  22263907.852                    22263920.055
 116168916.524 7  90521274.36045  22106196.781                    22106206.715
 129044369.064 6 100554062.06143  24556334.898                    24556342.969
 113515942.017 8  88454019.38545  21601365.305                    21601372.926
 105906289.829 8  82524459.50646  20153310.852                    20153318.824
 107881377.090 8  84063436.064 7  20529146.992                    20529155.063
 129622173.691 5 101004275.61542  24666309.305                    24666326.004
 115451501.372 8  89962244.93445  21969689.094                    21969696.293
 11  8 16 19 12 30.0000000  0  9G17G26G01G24G19G11G08G07G28
 117361758.968 7  91450769.655 7  22333181.320                    22333191.828
 120709215.253 7  94059206.29644  22970208.477                    22970218.668
 116970387.836 7  91145863.519 7  22258738.078                    22258750.191
 116139509.722 7  90498359.98745  22100601.078                    22100611.137
 129150530.167 6 100636784.93443  24576537.047                    24576544.496
 113532672.419 7  88467056.06145  21604548.945                    21604556.656
 105879397.224 8  82503504.21546  20148193.898                    20148201.500
 107914768.809 7  84089455.548 7  20535501.406                    20535509.270
 115428173.106 7  89944067.06645  21965249.672                    21965257.477
 11  8 16 19 13  0.0000000  0  9G17G26G01G24G19G11G08G07G28
 117286046.857 7  91391773.286 7  22318774.297                    22318784.129
 120672619.987 7  94030690.48544  22963244.281                    22963254.977
 116943714.831 7  91125079.377 7  22253661.594                    22253673.832
 116110589.758 7  90475824.98145  22095097.563                    22095108.023
 129256722.667 6 100719532.28143  24596744.297                    24596752.207
 113549982.548 7  88480544.47745  21607842.445                    21607850.930
 105852961.363 7  82482904.83046  20143162.758                    20143170.938
 107948646.574 7  84115853.765 7  20541947.609                    20541956.137
 115404883.411 7  89925919.26145  21960817.797                    21960825.313
 11  8 16 19 13 30.0000000  0  9G17G26G01G24G19G11G08G07G28
 117210659.372 7  91333029.875 7  22304428.188                    22304438.457
 120636613.301 7  94002633.30444  22956392.555                    22956402.754
 116917536.155 7  91104680.425 7  22248680.609                    22248692.715
 116082158.170 7  90453670.53745  22089687.047                    22089697.609
 129362944.092 6 100802302.13243  24616958.133                    24616965.035
 113567871.383 7  88494483.82445  21611246.789                    21611254.898
 105826983.632 8  82462662.43146  20138219.383                    20138227.285
 107983010.207 8  84142630.568 7  20548487.078                    20548494.973
 115381631.234 8  89907800.67445  21956392.836                    21956400.293
 11  8 16 19 14  0.0000000  0  9G17G26G01G24G19G11G08G07G28
 117135597.770 7  91274540.377 7  22290144.359                    22290154.770
 120601196.292 7  93975035.62344  22949653.063                    22949663.828
 116891854.065 7  91084668.426 7  22243793.734                    22243805.684
 116054217.354 7  90431898.48345  22084370.227                    22084380.391
 129469192.289 6 100885092.90343  24637176.250                    24637183.477
 113586339.244 7  88508874.34345  21614761.047                    21614769.590
 105801466.609 8  82442779.02546  20133363.828                    20133371.566
 108017860.312 8  84169786.449 7  20555118.711                    20555126.824
 115358416.742 7  89889711.47645  21951975.008                    21951982.953
 11  8 16 19 14 30.0000000  0  9G17G26G01G24G19G11G08G07G28
 117060863.034 7  91216305.621 7  22275922.984                    22275933.414
 120566370.062 7  93947898.30244  22943025.969                    22943036.305
 116866670.299 7  91065044.734 7  22239000.836                    22239013.203
 116026769.171 7  90410510.32145  22079146.758                    22079157.238
 129575465.065 6 100967902.77543  24657399.563                    24657406.781
 113605386.074 7  88523716.03945  21618385.336                    21618393.695
 105776412.329 8  82423256.19646  20128596.055                    20128604.633
 108053197.231 8  84197321.646 7  20561843.055                    20561850.988
 115335239.332 7  89871651.16245  21947564.977                    21947572.352
 11  8 16 19 15  0.0000000  0  9G17G26G01G24G19G11G08G07G28
 116986456.538 7  91158326.613 7  22261763.172                    22261773.367
 120532135.544 7  93921222.05944  22936511.758                    22936521.750
 116841986.566 7  91045810.695 7  22234303.453                    22234315.574
 115999815.517 7  90389507.49545  22074017.727                    22074028.230
 129681760.538 6 101050730.34943  24677626.898                    24677633.457
 113625011.505 8  88539008.56945  21622120.469                    21622128.977
 105751823.349 8  82404095.95146  20123916.828                    20123925.109
 108089020.758 8  84225236.040 7  20568660.539                    20568668.352
 115312099.188 8  89853619.89945  21943161.156                    21943169.184
 11  8 16 19 15 30.0000000  0  9G17G26G01G24G19G11G08G07G28
 116912379.452 7  91100604.311 7  22247667.438                    22247677.422
 120498493.645 7  93895007.57843  22930109.531                    22930119.410
 116817804.816 7  91026967.790 7  22229702.305                    22229714.613
 115973358.337 7  90368891.54145  22068983.070                    22068993.344
 129788076.694 6 101133574.06843  24697858.820                    24697865.363
 113645215.319 8  88554751.79645  21625964.977                    21625972.715
 105727701.828 8  82385299.94946  20119326.766                    20119334.781
 108125331.159 8  84253529.808 7  20575570.039                    20575578.141
 115288995.901 7  89835617.34045  21938765.031                    21938772.289
 11  8 16 19 16  0.0000000  0  9G17G26G01G24G19G11G08G07G28
 116838632.632 7  91043139.346 7  22233633.883                    22233643.426
 120465445.021 7  93869255.39544  22923820.172                    22923830.391
 116794126.221 7  91008516.948 7  22225195.492                    22225208.633
 115947399.371 7  90348663.80145  22064043.039                    22064053.230
 129894410.806 6 101216431.75243  24718092.102                    24718099.738
 113665997.079 8  88570945.38045  21629919.266                    21629927.242
 105704049.386 8  82366869.45646  20114826.250                    20114833.906
 108162128.180 8  84282202.772 7  20582572.414                    20582580.266
 115265928.757 8  89817642.93645  21934375.555                    21934383.266
 11  8 16 19 16 30.0000000  0  9G17G26G01G24G19G11G08G07G28
 116765216.958 7  90985932.416 7  22219663.125                    22219673.336
 120432990.070 6  93843965.83343  22917644.664                    22917654.113
 116770951.889 7  90990459.068 7  22220785.867                    22220798.605
 115921940.081 7  90328825.40845  22059198.609                    22059208.543
 130000760.622 6 101299301.64443  24738330.875                    24738338.305
 113687356.071 8  88587588.75345  21633984.039                    21633992.402
 105680867.658 8  82348805.76046  20110414.531                    20110422.844
 108199411.319 8  84311254.521 7  20589667.109                    20589675.215
 115242897.153 8  89799696.24845  21929993.086                    21930000.938
 11  8 16 19 17  0.0000000  0  9G17G26G01G24G19G11G08G07G28
 116692133.690 7  90928984.527 7  22205755.359                    22205766.191
 120401129.844 7  93819139.66644  22911581.945                    22911591.531
 116748283.684 7  90972795.557 7  22216472.281                    22216484.395
 115896982.136 7  90309377.69945  22054449.094                    22054459.500
 130107124.316 6 101382182.37943  24758571.609                    24758578.980
 113709292.128 8  88604681.77445  21638158.398                    21638165.891
 105658158.952 8  82331110.65946  20106093.242                    20106101.387
 108237181.026 8  84340685.429 7  20596854.430                    20596862.488
 115219900.963 8  89781777.16245  21925616.641                    21925624.211
 11  8 16 19 17 30.0000000  0  9G17G26G01G24G19G11G08G07G28
 116619383.932 7  90872296.490 7  22191911.531                    22191921.668
 120369865.514 7  93794777.86444  22905632.461                    22905642.039
 116726123.715 7  90955528.089 7  22212255.336                    22212267.578
 115872528.183 7  90290322.69645  22049795.516                    22049805.855
 130213499.894 6 101465072.41243  24778814.469                    24778822.066
 113731805.410 8  88622224.58245  21642442.031                    21642449.910
 105635926.137 8  82313786.36546  20101862.586                    20101870.480
 108275437.739 8  84370495.809 7  20604134.734                    20604142.715
 115196940.341 8  89763885.76445  21921247.273                    21921254.789
 11  8 16 19 18  0.0000000  0  9G17G26G01G24G19G11G08G07G28
 116546968.515 7  90815868.986 7  22178131.797                    22178141.867
 120339197.525 7  93770880.69744  22899796.141                    22899806.500
 116704473.083 7  90938657.499 7  22208135.367                    22208147.250
 115848579.659 7  90271661.55445  22045238.109                    22045248.863
 130319884.939 6 101547969.77043  24799058.391                    24799066.828
 113754894.993 8  88640216.46545  21646836.680                    21646844.125
 105614170.584 8  82296833.97046  20097722.602                    20097730.797
 108314180.966 8  84400685.290 7  20611507.219                    20611515.051
 115174014.586 8  89746021.53845  21916884.820                    21916892.418
 11  8 16 19 18 30.0000000  0  8G17G26G01G24G11G08G07G28
 116474889.107 7  90759703.314 7  22164415.047                    22164425.484
 120309126.778 7  93747448.96644  22894073.844                    22894084.004
 116683333.779 7  90922185.359 7  22204112.727                    22204124.922
 115825138.658 7  90253395.87845  22040777.445                    22040787.867
 113778560.790 8  88658657.32545  21651339.961                    21651347.715
 105592894.824 8  82280255.43246  20093673.703                    20093682.047
 108353411.174 7  84431254.239 7  20618972.570                    20618980.164
 115151123.852 7  89728184.60645  21912528.797                    21912536.168
 11  8 16 19 19  0.0000000  0  8G17G26G01G24G11G08G07G28
 116403146.472 7  90703800.062 7  22150763.039                    22150772.777
 120279654.097 7  93724483.21644  22888466.188                    22888475.895
 116662707.537 7  90906112.958 7  22200187.930                    22200199.578
 115802206.703 7  90235526.85245  22036413.953                    22036424.164
 113802802.269 8  88677546.78845  21655952.969                    21655960.172
 105572101.012 8  82264052.45546  20089716.930                    20089725.383
 108393128.397 8  84462202.667 7  20626530.508                    20626538.418
 115128267.571 7  89710374.53345  21908179.367                    21908186.996
 11  8 16 19 19 30.0000000  0  8G17G26G01G24G11G08G07G28
 116331741.358 7  90648159.788 7  22137174.859                    22137184.672
 120250779.752 7  93701983.68744  22882971.172                    22882981.285
 116642594.585 7  90890440.561 7  22196360.984                    22196373.055
 115779785.091 7  90218055.50545  22032147.219                    22032157.266
 113827618.509 8  88696884.10545  21660674.836                    21660682.672
 105551790.785 8  82248226.28446  20085851.961                    20085860.266
 108433331.311 8  84493529.540 7  20634180.625                    20634188.629
 115105445.101 8  89692590.79445  21903836.305                    21903843.805
 11  8 16 19 20  0.0000000  0  8G17G26G01G24G11G08G07G28
 116260674.329 7  90592782.972 7  22123651.195                    22123661.023
 120222504.315 7  93679950.87644  22877590.063                    22877600.828
 116622997.094 7  90875169.828 7  22192631.242                    22192643.250
 115757875.542 7  90200983.16545  22027978.164                    22027987.773
 113853008.941 7  88716668.86545  21665506.469                    21665514.688
 105531965.784 8  82232778.22346  20082079.242                    20082087.508
 108474020.288 8  84525235.178 7  20641924.000                    20641931.520
 115082656.262 8  89674833.25845  21899499.766                    21899507.195
 11  8 16 19 20 30.0000000  0  8G17G26G01G24G11G08G07G28
 116189946.590 7  90537670.547 7  22110192.148                    22110202.297
 120194828.319 7  93658385.15144  22872323.852                    22872333.863
 116603916.167 7  90860301.594 7  22189000.031                    22189011.934
 115736479.731 7  90184311.15345  22023906.273                    22023916.516
 113878973.249 7  88736900.78045  21670447.508                    21670455.531
 105512628.165 8  82217709.94746  20078399.727                    20078408.086
 108515195.385 8  84557319.609 7  20649759.031                    20649766.945
 115059900.744 8  89657101.69145  21895169.609                    21895177.137
 11  8 16 19 21  0.0000000  0  8G17G26G01G24G11G08G07G28
 116119559.646 7  90482823.660 7  22096797.313                    22096807.684
 120167752.520 7  93637287.11444  22867171.500                    22867181.668
 116585353.819 7  90845837.445 7  22185468.063                    22185479.789
 115715599.574 7  90168040.92145  22019933.484                    22019943.613
 113905511.084 7  88757579.61045  21675497.188                    21675505.418
 105493780.341 8  82203023.32046  20074813.141                    20074821.594
 108556856.761 8  84589782.962 7  20657687.070                    20657694.723
 115037179.171 8  89639396.56145  21890845.680                    21890853.254
 11  8 16 19 21 30.0000000  0  8G17G26G01G24G11G08G07G28
 116049514.076 7  90428242.768 7  22083468.664                    22083478.406
 120141277.562 7  93616657.25944  22862133.820                    22862143.285
 116567310.978 7  90831778.135 7  22182034.422                    22182046.516
 115695236.512 7  90152173.64745  22016057.813                    22016068.293
 113932621.565 8  88778704.65145  21680656.195                    21680664.480
 105475424.027 8  82188719.70046  20071319.820                    20071328.176
 108599003.999 8  84622624.911 7  20665707.242                    20665715.273
 115014490.750 7  89621717.27245  21886528.234                    21886536.664
 11  8 16 19 22  0.0000000  0  8G17G26G01G24G11G08G07G28
 115979810.349 7  90373928.260 7  22070204.133                    22070214.488
 120115403.796 7  93596495.84444  22857210.008                    22857220.734
 116549788.875 7  90818124.569 7  22178700.008                    22178711.938
 115675392.171 7  90136710.55745  22012282.141                    22012292.348
 113960303.899 7  88800275.29145  21685924.211                    21685931.969
 105457560.944 8  82174800.40546  20067920.945                    20067929.301
 108641636.486 8  84655844.979 7  20673819.922                    20673827.945
 114991834.756 8  89604063.25745  21882217.328                    21882225.207
 11  8 16 19 22 30.0000000  0  8G17G26G01G24G11G08G07G28
 115910450.217 8  90319881.484 7  22057005.859                    22057014.676
 120090131.778 7  93576803.36344  22852400.523                    22852411.492
 116532789.424 7  90804878.267 7  22175464.539                    22175477.145
 115656068.158 7  90121652.92045  22008604.922                    22008614.285
 113988557.933 7  88822291.41845  21691300.430                    21691308.680
 105440193.410 8  82161267.25446  20064615.766                    20064624.031
 108684754.413 8  84689443.314 7  20682025.328                    20682033.379
 114969211.752 8  89586434.94345  21877911.883                    21877919.652
 11  8 16 19 23  0.0000000  0  8G17G26G01G24G11G08G07G28
 115841434.027 8  90266102.703 7  22043872.000                    22043881.734
 120065461.670 7  93557579.89944  22847706.250                    22847716.445
 116516313.145 7  90792039.620 7  22172329.961                    22172342.109
 115637265.527 7  90107001.55345  22005026.547                    22005036.676
 114017382.372 7  88844752.01545  21696786.141                    21696794.016
 105423322.564 8  82148121.14646  20061405.391                    20061413.789
 108728357.411 8  84723419.617 7  20690322.438                    20690331.020
 114946620.404 8  89568831.29845  21873613.281                    21873620.602
 11  8 16 19 23 30.0000000  0  8G17G26G01G24G11G08G07G28
 115772762.427 8  90212592.443 7  22030804.156                    22030814.324
 120041393.634 7  93538825.54744  22843126.266                    22843136.027
 116500361.337 7  90779609.652 7  22169293.961                    22169305.902
 115618986.056 7  90092757.83945  22001547.891                    22001557.953
 114046776.404 7  88867656.44545  21702379.258                    21702387.250
 105406950.141 8  82135363.40146  20058289.836                    20058297.891
 108772444.839 8  84757773.410 7  20698712.344                    20698720.512
 114924060.985 8  89551252.53845  21869320.016                    21869327.723
 11  8 16 19 24  0.0000000  0  8G17G26G01G24G11G08G07G28
 115704435.978 8  90159351.127 7  22017802.352                    22017811.973
 120017928.137 7  93520540.73944  22838661.398                    22838671.387
 116484935.276 7  90767589.357 7  22166359.266                    22166371.043
 115601230.797 7  90078922.60344  21998169.375                    21998178.887
 114076739.309 8  88891004.15445  21708081.211                    21708089.090
 105391077.763 7  82122995.31146  20055269.484                    20055277.961
 108817016.016 8  84792504.143 7  20707193.961                    20707201.965
 114901533.156 8  89533698.39445  21865033.148                    21865040.855
 11  8 16 19 24 30.0000000  0  8G17G26G01G24G11G08G07G28
 115636456.046 8  90106379.834 7  22004866.180                    22004876.152
 119995065.602 7  93502725.76844  22834310.680                    22834320.668
 116470036.091 7  90755979.616 7  22163523.266                    22163535.594
 115584001.661 7  90065497.32445  21994890.602                    21994900.625
 114107270.369 7  88914794.56745  21713891.484                    21713899.324
 105375707.701 8  82111018.63046  20052344.711                    20052352.609
 108862071.197 8  84827612.045 7  20715767.648                    20715775.953
 114879036.372 8  89516168.42845  21860752.180                    21860758.977
 11  8 16 19 25  0.0000000  0  8G17G26G01G24G11G08G07G28
 115568823.324 8  90053679.074 7  21991995.820                    21992005.719
 119972806.483 7  93485380.96544  22830074.906                    22830085.020
 116455665.432 7  90744781.702 7  22160789.438                    22160801.301
 115567299.928 7  90052483.00745  21991711.836                    21991722.402
 114138369.312 7  88939027.50245  21719809.344                    21719817.168
 105360841.917 8  82099434.89746  20049515.898                    20049523.996
 108907610.053 8  84863096.822 7  20724433.172                    20724441.699
 114856570.655 8  89498662.68345  21856477.406                    21856484.453
 11  8 16 19 25 30.0000000  0  8G17G26G01G24G11G08G07G28
 115501539.315 8  90001250.055 7  21979192.336                    21979202.262
 119951151.721 7  93468507.11244  22825953.578                    22825964.254
 116441824.724 7  90733996.761 7  22158155.063                    22158167.195
 115551127.668 7  90039881.26945  21988634.938                    21988644.652
 114170035.306 7  88963702.29345  21725835.156                    21725842.996
 105346483.045 8  82088246.15846  20046783.727                    20046791.902
 108953632.857 8  84898958.698 7  20733191.672                    20733199.445
 114834136.899 8  89481181.83045  21852207.875                    21852215.676
 11  8 16 19 26  0.0000000  0  8G17G26G01G24G11G08G07G28
 115434604.562 8  89949093.172 7  21966454.641                    21966464.309
 119930101.092 7  93452103.99244  22821948.492                    22821958.773
 116428514.794 7  90723625.387 7  22155622.328                    22155634.145
 115535485.815 7  90027692.81545  21985657.500                    21985667.664
 114202267.203 7  88988818.03545  21731968.547                    21731976.176
 105332632.289 8  82077453.34346  20044147.688                    20044156.164
 109000138.742 8  84935196.998 7  20742041.039                    20742049.191
 114811734.072 8  89463725.07645  21847945.047                    21847952.223
 11  8 16 19 26 30.0000000  0  8G17G26G01G24G11G08G07G28
 115368019.881 8  89897209.082 7  21953783.688                    21953794.301
 119909655.053 7  93436171.99244  22818058.031                    22818067.871
 116415737.149 7  90713668.782 7  22153191.086                    22153202.977
 115520376.134 7  90015919.05845  21982783.023                    21982792.563
 114235064.091 7  89014374.03045  21738209.992                    21738218.137
 105319291.621 7  82067058.00946  20041608.984                    20041617.234
 109047127.469 8  84971811.529 7  20750982.781                    20750991.457
 114789362.230 8  89446292.47145  21843687.898                    21843695.172
 11  8 16 19 27  0.0000000  0  8G17G26G01G24G11G08G07G28
 115301785.356 8  89845597.836 7  21941179.719                    21941189.707
 119889813.014 7  93420710.62544  22814281.883                    22814291.621
 116403492.001 7  90704127.140 7  22150860.516                    22150872.801
 115505799.033 7  90004560.29645  21980009.102                    21980018.703
 114268424.862 7  89040369.41345  21744557.406                    21744566.113
 105306461.612 7  82057060.58746  20039167.711                    20039175.629
 109094597.780 8  85008801.324 7  20760016.438                    20760024.688
 114767020.443 8  89428883.28745  21839436.359                    21839443.637
 11  8 16 19 27 30.0000000  0  8G17G26G01G24G11G08G07G28
 115235901.780 7  89794260.052 7  21928642.430                    21928652.297
 119870575.399 7  93405720.25744  22810621.383                    22810631.480
 116391780.703 7  90695001.457 7  22148632.172                    22148644.176
 115491756.153 7  89993617.81645  21977336.680                    21977346.145
 114302348.676 7  89066803.52745  21751013.281                    21751021.344
 105294144.368 8  82047462.71446  20036823.641                    20036831.926
 109142549.654 8  85046166.376 7  20769141.133                    20769149.672
 114744708.682 8  89411497.49445  21835190.547                    21835197.969
 11  8 16 19 28  0.0000000  0  8G17G26G01G24G11G08G07G28
 115170370.392 8  89743196.714 7  21916172.133                    21916182.164
 119851942.832 7  93391201.34444  22807075.797                    22807085.684
 116380604.305 7  90686292.598 7  22146505.203                    22146517.582
 115478249.202 7  89983092.91945  21974765.820                    21974776.551
 114336834.935 7  89093675.91845  21757575.844                    21757583.941
 105282342.290 8  82038266.27446  20034577.641                    20034585.930
 109190983.060 8  85083906.634 7  20778358.063                    20778366.266
 114722427.347 7  89394135.41545  21830950.516                    21830957.695
 11  8 16 19 28 30.0000000  0  8G17G26G01G24G11G08G07G28
 115105191.904 8  89692408.350 7  21903769.430                    21903778.742
 119833914.994 7  93377153.65244  22803644.547                    22803655.402
 116369964.219 7  90678001.640 7  22144480.516                    22144492.391
 115465279.100 7  89972986.36845  21972298.367                    21972308.883
 114371882.573 7  89120985.73945  21764245.672                    21764253.438
 105271056.698 8  82029472.29146  20032430.453                    20032439.023
 109239897.034 8  85122021.374 7  20787665.906                    20787674.023
 114700176.249 8  89376796.88845  21826716.563                    21826723.828
 11  8 16 19 29  0.0000000  0  8G17G26G01G24G11G08G07G28
 115040366.898 8  89641895.438 7  21891433.305                    21891442.578
 119816492.262 7  93363577.49244  22800329.258                    22800339.367
 116359861.400 7  90670129.324 7  22142557.984                    22142570.098
 115452847.248 7  89963299.23345  21969932.781                    21969942.418
 114407490.773 7  89148732.37045  21771021.555                    21771029.680
 105260289.323 8  82021082.11546  20030381.211                    20030389.949
 109289291.409 8  85160510.452 7  20797065.344                    20797073.648
 114677955.158 7  89359481.75245  21822487.305                    21822495.133
 11  8 16 19 29 30.0000000  0  8G17G26G01G24G11G08G07G28
 114975896.336 7  89591658.707 7  21879164.961                    21879174.629
 119799674.726 7  93350472.88144  22797129.555                    22797139.352
 116350296.653 7  90662676.305 7  22140737.672                    22140749.773
 115440955.037 7  89954032.59545  21967669.453                    21967679.527
 114443658.389 7  89176914.89245  21777904.016                    21777911.805
 105250042.160 8  82013097.29746  20028431.320                    20028439.484
 109339165.533 8  85199373.334 7  20806556.258                    20806564.531
 114655763.912 8  89342189.87345  21818265.031                    21818272.082
 11  8 16 19 30  0.0000000  0  8G17G26G01G24G11G08G07G28
 114911780.715 8  89541698.546 7  21866963.828                    21866974.031
 119783462.355 7  93337839.86044  22794043.703                    22794054.117
 116341271.168 7  90655643.471 7  22139020.656                    22139032.188
 115429603.302 7  89945187.10345  21965509.328                    21965519.336
 114480384.114 8  89205532.33545  21784892.438                    21784900.434
 105240316.318 8  82005518.70046  20026580.523                    20026588.840
 109389518.870 8  85238609.655 7  20816138.031                    20816146.563
 114633602.371 8  89324921.13745  21814047.719                    21814055.141
 11  8 16 19 30 30.0000000  0  8G17G26G01G24G11G08G07G28
 114848020.859 8  89492015.625 7  21854830.781                    21854840.113
 119767855.145 7  93325678.38544  22791073.789                    22791084.242
 116332785.940 7  90649031.620 7  22137405.891                    22137417.344
 115418793.524 7  89936763.94245  21963451.930                    21963462.816
 114517667.200 7  89234584.08445  21791987.000                    21791995.234
 105231113.784 8  81998347.87546  20024829.711                    20024837.625
 109440351.067 8  85278219.108 7  20825811.164                    20825819.262
 114611470.644 8  89307675.63145  21809836.086                    21809843.559
 11  8 16 19 31  0.0000000  0  8G17G26G01G24G11G08G07G28
 114784617.122 7  89442610.165 7  21842765.422                    21842774.645
 119752853.171 7  93313988.50544  22788219.273                    22788228.914
 116324841.644 7  90642841.272 7  22135893.703                    22135905.395
 115408526.365 7  89928763.56645  21961498.742                    21961508.637
 114555506.357 7  89264069.12345  21799187.508                    21799195.723
 105222435.671 8  81991585.68346  20023178.430                    20023186.441
 109491661.381 8  85318201.119 7  20835575.391                    20835583.785
 114589368.154 8  89290452.90945  21805630.172                    21805637.789
 11  8 16 19 31 30.0000000  0  8G17G26G01G24G11G08G07G28
 114721570.524 7  89393483.003 7  21830767.891                    21830777.969
 119738456.393 7  93302770.20744  22785480.047                    22785489.563
 116317439.537 7  90637073.400 7  22134485.531                    22134497.094
 115398803.357 7  89921187.21345  21959648.203                    21959658.219
 114593901.079 7  89293987.07045  21806494.117                    21806502.332
 105214284.260 8  81985233.91146  20021627.148                    20021635.145
 109543449.394 8  85358555.358 7  20845430.344                    20845438.629
 114567295.165 8  89273253.17745  21801429.742                    21801437.293
 11  8 16 19 32  0.0000000  0  8G17G26G01G24G11G08G07G28
 114658881.865 7  89344634.787 7  21818838.844                    21818848.016
 119724664.844 7  93292023.49144  22782854.891                    22782865.344
 116310580.309 7  90631728.570 7  22133179.773                    22133191.613
 115389625.823 7  89914035.90445  21957901.578                    21957912.020
 114632849.768 7  89324336.68045  21813905.336                    21813913.305
 105206661.120 8  81979293.78546  20020176.234                    20020184.570
 109595714.418 8  85399281.307 7  20855376.203                    20855384.629
 114545251.938 8  89256076.63345  21797234.945                    21797242.625
 11  8 16 19 32 30.0000000  0  8G17G26G01G24G11G08G07G28
 114596551.355 7  89296065.604 7  21806977.602                    21806987.648
 119711478.247 7  93281748.19744  22780346.164                    22780356.113
 116304264.828 7  90626807.414 7  22131977.969                    22131989.723
 115380994.631 7  89907310.33245  21956259.133                    21956269.398
 114672351.271 7  89355117.04345  21821422.852                    21821430.762
 105199567.361 8  81973766.15546  20018826.547                    20018834.895
 109648455.644 8  85440378.310 7  20865412.438                    20865421.105
 114523237.812 8  89238922.75645  21793045.852                    21793053.520
 11  8 16 19 33  0.0000000  0  8G17G26G01G24G11G08G07G28
 114534579.540 7  89247775.938 7  21795184.695                    21795194.359
 119698896.294 7  93271944.06544  22777951.766                    22777962.121
 116298493.484 7  90622310.263 7  22130880.602                    22130892.133
 115372910.456 7  89901010.98645  21954721.297                    21954730.895
 114712404.298 7  89386327.19445  21829044.750                    21829052.441
 105193004.355 8  81968652.10546  20017577.766                    20017585.297
 109701672.366 8  85481845.831 7  20875539.305                    20875547.262
 114501252.488 7  89221791.33945  21788861.969                    21788869.723
 11  8 16 19 33 30.0000000  0  8G17G26G01G24G11G08G07G28
 114472967.103 7  89199766.315 7  21783460.258                    21783469.754
 119686918.774 7  93262610.91044  22775672.313                    22775683.293
 116293267.421 7  90618238.010 7  22129885.500                    22129897.465
 115365374.443 7  89895138.77545  21953286.578                    21953297.504
 114753007.508 7  89417966.04045  21836771.070                    21836778.922
 105186973.444 8  81963952.67546  20016429.938                    20016438.281
 109755363.929 8  85523683.371 7  20885756.203                    20885765.035
 114479296.175 8  89204682.51945  21784684.047                    21784692.090
 11  8 16 19 34  0.0000000  0  8G17G26G01G24G11G08G07G28
 114411714.375 7  89152036.985 7  21771804.141                    21771813.668
 119675545.430 7  93253748.51944  22773507.500                    22773518.777
 116288587.134 7  90614591.044 7  22128994.969                    22129007.262
 115358387.685 7  89889694.55345  21951957.430                    21951967.441
 114794159.823 7  89450032.75345  21844602.375                    21844610.445
 105181476.121 8  81959669.01746  20015384.063                    20015392.254
 109809529.464 8  85565890.220 7  20896063.969                    20896072.297
 114457368.883 8  89187596.31645  21780511.719                    21780519.281
 11  8 16 19 34 30.0000000  0  8G17G26G01G24G11G08G07G28
 114350822.440 8  89104588.786 7  21760216.906                    21760226.363
 119664776.495 7  93245357.13944  22771458.516                    22771469.301
 116284453.464 7  90611370.004 7  22128208.305                    22128220.246
 115351951.191 7  89884679.10745  21950732.188                    21950742.660
 114835860.232 7  89482526.57045  21852537.844                    21852546.164
 105176514.347 8  81955802.68746  20014439.836                    20014447.961
 109864168.403 7  85608465.931 7  20906461.406                    20906469.898
 114435470.644 8  89170532.75445  21776344.016                    21776351.793
 11  8 16 19 35  0.0000000  0  8G17G26G01G24G11G08G07G28
 114290291.679 7  89057422.025 7  21748698.281                    21748707.703
 119654611.734 7  93237436.52444  22769524.719                    22769534.809
 116280867.669 7  90608575.891 7  22127525.539                    22127537.918
 115346066.074 7  89880093.31245  21949612.227                    21949622.211
 114878107.471 8  89515446.47245  21860576.703                    21860584.695
 105172089.566 8  81952354.78946  20013597.484                    20013605.551
 109919280.426 8  85651410.309 7  20916948.758                    20916957.063
 114413601.597 8  89153491.92745  21772183.195                    21772190.227
 11  8 16 19 35 30.0000000  0  8G17G26G01G24G11G08G07G28
 114230123.029 7  89010537.423 7  21737248.305                    21737258.105
 119645051.204 7  93229986.73744  22767705.391                    22767715.996
 116277830.442 7  90606209.239 7  22126948.469                    22126959.742
 115340733.326 7  89875937.92945  21948597.734                    21948607.941
 114920900.797 8  89548791.89445  21868720.008                    21868727.945
 105168203.860 8  81949326.94646  20012858.453                    20012866.828
 109974864.617 8  85694722.604 7  20927526.352                    20927534.645
 114391761.791 8  89136473.90445  21768026.664                    21768034.668
 11  8 16 19 36  0.0000000  0  8G17G26G01G24G11G08G07G28
 114170316.652 7  88963935.107 7  21725867.523                    21725877.316
 119636094.085 7  93223007.14944  22766000.789                    22766011.191
 116275342.246 7  90604270.402 7  22126474.289                    22126486.543
 115335953.733 7  89872213.59945  21947688.250                    21947698.273
 114964238.322 7  89582561.37345  21876967.305                    21876975.527
 105164857.850 7  81946719.66346  20012221.477                    20012229.949
 110030920.210 7  85738402.224 7  20938192.883                    20938201.762
 114369951.083 8  89119478.56145  21763876.219                    21763884.371
 11  8 16 19 36 30.0000000  0  8G17G26G01G24G11G08G07G28
 114110872.862 7  88917615.328 7  21714556.070                    21714565.152
 119627739.876 7  93216497.33744  22764411.398                    22764421.633
 116273403.228 7  90602759.495 7  22126105.828                    22126117.844
 115331727.739 7  89868920.62645  21946884.016                    21946893.949
 115008118.380 7  89616753.60945  21885317.336                    21885324.684
 105162052.512 8  81944533.66546  20011687.523                    20011695.773
 110087446.146 8  85782448.350 7  20948950.047                    20948958.352
 114348169.040 8  89102505.53045  21759731.430                    21759739.270
 11  8 16 19 37  0.0000000  0  8G17G26G01G24G11G08G07G28
 114051792.399 7  88871578.671 7  21703313.297                    21703322.266
 119619988.218 7  93210457.08944  22762936.211                    22762946.797
 116272014.214 7  90601677.163 7  22125841.242                    22125853.242
 115328056.461 7  89866059.91845  21946185.188                    21946195.801
 115052539.954 7  89651367.79445  21893770.359                    21893778.281
 105159789.517 8  81942770.28946  20011257.469                    20011265.391
 110144441.691 7  85826860.407 7  20959795.602                    20959804.301
 114326415.660 8  89085554.86645  21755591.898                    21755599.918
 11  8 16 19 37 30.0000000  0  8G17G26G01G24G11G08G07G28
 113993075.672 7  88825825.447 7  21692139.727                    21692149.188
 119612838.811 7  93204886.07944  22761575.953                    22761586.184
 116271176.042 7  90601024.074 7  22125681.492                    22125693.855
 115324940.644 7  89863632.01445  21945592.375                    21945602.086
 115097501.742 7  89686402.94045  21902325.680                    21902334.414
 105158070.165 8  81941430.51546  20010929.484                    20010937.887
 110201906.173 7  85871637.855 7  20970730.789                    20970739.355
 114304691.522 8  89068626.96745  21751457.953                    21751465.414
 11  8 16 19 38  0.0000000  0  8G17G26G01G24G11G08G07G28
 113934723.264 7  88780356.108 7  21681035.438                    21681044.688
 119606291.529 7  93199784.27744  22760329.906                    22760339.656
 116270888.986 7  90600800.404 7  22125626.961                    22125638.887
 115322381.226 7  89861637.69545  21945105.766                    21945115.668
 115143002.291 7  89721857.87945  21910983.961                    21910992.246
 105156896.085 7  81940515.63246  20010706.258                    20010714.703
 110259838.726 7  85916780.035 7  20981755.039                    20981763.371
 114282996.421 8  89051721.70145  21747329.375                    21747337.129
 11  8 16 19 38 30.0000000  0  8G17G26G01G24G11G08G07G28
 113876735.661 7  88735171.024 7  21670000.672                    21670010.293
 119600345.976 7  93195151.36544  22759198.438                    22759208.305
 116271154.355 7  90601007.209 7  22125677.555                    22125689.090
 115320379.178 7  89860077.69045  21944724.445                    21944734.645
 115189040.318 8  89757731.65745  21919745.398                    21919752.984
 105156268.740 8  81940026.78146  20010587.203                    20010595.258
 110318238.665 8  85962286.418 7  20992868.531                    20992876.969
 114261330.563 8  89034839.20745  21743207.109                    21743214.109
 11  8 16 19 39  0.0000000  0  8G17G26G01G24G11G08G07G28
 113819113.684 7  88690270.844 7  21659035.531                    21659045.152
 119595001.784 7  93190987.00044  22758181.242                    22758191.813
 116271972.440 7  90601644.708 7  22125833.195                    22125845.152
 115318935.575 7  89858952.83445  21944449.172                    21944459.516
 115235614.636 7  89794023.30444  21928608.063                    21928616.668
 105156189.723 7  81939965.19246  20010572.000                    20010580.543
 110377105.113 7  86008156.311 7  21004070.164                    21004078.707
 114239694.274 8  89017979.77145  21739089.000                    21739096.988
 11  8 16 19 39 30.0000000  0  8G17G26G01G24G11G08G07G28
 113761856.846 7  88645655.187 7  21648139.914                    21648149.121
 119590257.764 7  93187290.33244  22757277.945                    22757288.766
 116273343.086 7  90602712.762 7  22126093.766                    22126105.504
 115318050.222 7  89858262.98245  21944281.578                    21944291.348
 115282723.228 7  89830731.28545  21937572.852                    21937580.762
 105156659.139 8  81940330.96346  20010661.117                    20010669.484
 110436436.490 7  86054388.501 7  21015360.688                    21015369.406
 114218086.618 8  89001142.64746  21734977.961                    21734985.125
 11  8 16 19 40  0.0000000  0  8G17G26G01G24G11G08G07G28
 113704965.687 7  88601324.462 7  21637313.898                    21637323.391
 119586113.426 7  93184060.96344  22756490.688                    22756500.238
 116275266.749 7  90604211.732 7  22126459.789                    22126471.688
 115317723.963 7  89858008.78745  21944219.570                    21944229.020
 115330364.516 7  89867854.35445  21946638.797                    21946646.828
 105157678.255 8  81941125.06946  20010855.266                    20010863.930
 110496232.065 8  86100982.387 7  21026739.359                    21026748.504
 114196507.888 8  88984328.04645  21730871.617                    21730878.863
 11  8 16 19 40 30.0000000  0  8G17G26G01G24G11G08G07G28
 113648440.897 7  88557279.249 7  21626557.555                    21626566.773
 119582568.307 7  93181298.52344  22755815.352                    22755825.770
 116277744.361 7  90606142.342 7  22126930.914                    22126943.703
 115317957.587 7  89858190.86445  21944263.797                    21944273.457
 115378537.249 7  89905391.52745  21955806.109                    21955813.758
 105159248.538 8  81942348.64746  20011154.492                    20011162.840
 110556491.179 7  86147937.474 7  21038206.438                    21038215.000
 114174958.546 8  88967536.35545  21726770.141                    21726778.027
 11  8 16 19 41  0.0000000  0  8G17G26G01G24G11G08G07G28
 113592282.795 7  88513519.741 7  21615871.070                    21615880.461
 119579622.145 7  93179002.80144  22755254.938                    22755265.203
 116280776.303 7  90608504.907 7  22127508.594                    22127520.172
 115318751.779 7  89858809.74545  21944414.414                    21944424.086
 115427239.901 8  89943341.61945  21965073.289                    21965081.570
 105161371.515 7  81944002.89846  20011558.172                    20011566.492
 110617212.613 7  86195252.829 7  21049761.250                    21049770.270
 114153438.216 8  88950767.27246  21722675.539                    21722683.180
 11  8 16 19 41 30.0000000  0  8G17G26G01G24G11G08G07G28
 113536492.250 7  88470046.633 7  21605254.117                    21605263.555
 119577274.584 6  93177173.49744  22754808.445                    22754818.348
 116284363.064 7  90611299.774 7  22128191.047                    22128202.145
 115320107.437 7  89859866.12345  21944672.906                    21944682.586
 115476471.528 8  89981703.90045  21974442.422                    21974450.184
 105164048.816 8  81946089.09246  20012067.477                    20012075.984
 110678395.997 7  86242928.121 7  21061404.008                    21061413.113
 114131947.702 8  88934021.41245  21718586.031                    21718593.594
 11  8 16 19 42  0.0000000  0  8G17G26G01G24G11G08G07G28
 113481069.434 7  88426860.085 7  21594707.797                    21594716.875
 119575524.736 7  93175809.95644  22754475.133                    22754486.012
 116288504.902 7  90614527.169 7  22128979.508                    22128990.988
 115322024.989 7  89861360.33045  21945037.188                    21945047.598
 115526230.092 7  90020476.79345  21983910.594                    21983918.734
 105167281.126 8  81948607.75646  20012682.844                    20012691.109
 110740040.156 7  86290962.472 7  21073134.648                    21073143.406
 114110487.127 8  88917298.89045  21714501.844                    21714510.348
 11  8 16 19 42 30.0000000  0  8G17G26G01G24G11G08G07G28
 113426014.257 7  88383959.984 7  21584231.063                    21584240.414
 119574371.575 6  93174911.37544  22754255.344                    22754266.203
 116293201.934 7  90618187.202 7  22129872.727                    22129884.652
 115324504.799 7  89863292.66945  21945509.203                    21945519.535
 115576513.780 7  90059658.86645  21993479.563                    21993487.660
 105171069.197 7  81951559.47746  20013403.641                    20013411.820
 110802143.641 7  86339354.759 7  21084952.703                    21084961.887
 114089055.885 8  88900599.22346  21710423.797                    21710431.895
 11  8 16 19 43  0.0000000  0  8G17G26G01G24G11G08G07G28
 113371327.451 7  88341346.945 7  21573824.141                    21573833.703
 119573814.763 6  93174477.46444  22754149.563                    22754160.270
 116298455.029 7  90622280.510 7  22130872.844                    22130884.383
 115327547.661 7  89865663.72645  21946088.305                    21946098.180
 115627321.551 7  90099249.30745  22003147.789                    22003155.535
 105175414.569 8  81954945.46346  20014230.688                    20014238.824
 110864705.685 7  86388104.329 7  21096858.117                    21096866.770
 114067654.450 7  88883922.78546  21706351.391                    21706358.930
 11  8 16 19 43 30.0000000  0  8G17G26G01G24G11G08G07G28
 113317009.325 7  88299021.192 7  21563487.852                    21563497.234
 119573853.777 7  93174507.83544  22754157.320                    22754168.250
 116304264.077 7  90626807.042 7  22131978.125                    22131989.734
 115331154.097 7  89868473.94345  21946774.445                    21946784.160
 115678651.518 7  90139246.66745  22012915.438                    22012923.477
 105180318.463 8  81958766.66046  20015163.664                    20015172.105
 110927725.176 7  86437210.356 7  21108850.492                    21108859.223
 114046283.113 7  88867269.80746  21702284.359                    21702292.195
 11  8 16 19 44  0.0000000  0  8G17G26G01G24G11G08G07G28
 113263060.217 7  88256982.969 7  21553221.555                    21553231.027
 119574487.393 7  93175001.52744  22754277.133                    22754288.383
 116310629.589 7  90631767.162 7  22133189.289                    22133201.137
 115335324.424 7  89871723.54445  21947568.555                    21947578.598
 115730501.977 7  90179649.58345  22022782.477                    22022790.348
 105185781.594 8  81963023.62246  20016203.500                    20016211.832
 110991201.159 7  86486672.091 7  21120929.555                    21120938.168
 114024941.685 7  88850640.11646  21698223.508                    21698231.238
 11  8 16 19 44 30.0000000  0  8G17G26G01G24G11G08G07G28
 113209480.150 7  88215232.318 7  21543025.883                    21543035.176
 119575714.967 6  93175958.05344  22754511.125                    22754522.285
 116317551.656 7  90637160.987 7  22134506.648                    22134518.770
 115340059.365 7  89875413.10745  21948469.148                    21948479.430
 115782871.500 7  90220456.99145  22032748.063                    22032755.902
 105191805.184 8  81967717.30746  20017349.609                    20017357.887
 111055132.459 7  86536488.617 7  21133095.148                    21133104.230
 114003630.497 7  88834033.99946  21694168.117                    21694175.766
 11  8 16 19 45  0.0000000  0  8G17G26G01G24G11G08G07G28
 113156269.446 7  88173769.480 7  21532900.516                    21532909.230
 119577535.769 6  93177376.82544  22754858.258                    22754868.371
 116325030.531 7  90642988.669 7  22135929.828                    22135941.625
 115345359.128 7  89879542.78545  21949477.547                    21949487.809
 115835758.077 7  90261667.30044  22042812.008                    22042819.922
 105198390.002 8  81972848.31246  20018602.648                    20018611.094
 111119517.928 7  86586659.036 7  21145347.391                    21145356.285
 113982349.692 7  88817451.54846  21690118.320                    21690125.813
 11  8 16 19 45 30.0000000  0  8G17G26G01G24G11G08G07G28
 113103428.769 7  88132594.975 7  21522844.453                    21522853.629
 119579949.100 6  93179257.32544  22755317.266                    22755327.637
 116333066.747 7  90649250.645 7  22137458.961                    22137471.141
 115351224.421 7  89884113.13945  21950594.063                    21950603.723
 115889160.393 7  90303279.48445  22052974.320                    22052982.121
 105205537.551 8  81978417.80446  20019963.320                    20019971.203
 111184356.785 7  86637182.740 7  21157685.758                    21157694.652
 113961099.810 7  88800893.20546  21686075.008                    21686082.527
 11  8 16 19 46  0.0000000  0  8G17G26G01G24G11G08G07G28
 113050957.981 7  88091708.684 7  21512860.250                    21512869.027
 119582953.775 6  93181598.60144  22755888.633                    22755898.977
 116341660.074 7  90655946.761 7  22139094.047                    22139106.102
 115357655.117 7  89889124.06845  21951817.469                    21951827.520
 115943076.440 7  90345291.97545  22063234.188                    22063242.141
 105213248.199 8  81984426.08046  20021430.203                    20021438.828
 111249647.382 7  86688058.456 7  21170110.461                    21170119.316
 113939880.234 7  88784358.47545  21682036.797                    21682044.035
 11  8 16 19 46 30.0000000  0  8G17G26G01G24G11G08G07G28
 112998857.765 7  88051111.163 7  21502945.563                    21502954.762
 119586549.538 6  93184400.47244  22756572.961                    22756583.832
 116350811.278 7  90663077.578 7  22140835.305                    22140846.961
 115364652.158 7  89894576.29945  21953149.250                    21953159.277
 115997505.067 7  90387703.87145  22073591.516                    22073599.535
 105221523.849 8  81990874.60446  20023005.172                    20023013.699
 111315388.995 7  86739285.596 7  21182620.570                    21182629.617
 113918691.859 7  88767848.04545  21678004.773                    21678012.539
 11  8 16 19 47  0.0000000  0  8G17G26G01G24G11G08G07G28
 112947128.078 7  88010802.351 7  21493101.781                    21493110.781
 119590735.140 7  93187661.95644  22757369.664                    22757380.527
 116360519.996 7  90670642.800 7  22142683.016                    22142695.082
 115372215.486 7  89900469.80745  21954588.352                    21954598.441
 116052444.293 7  90430513.61445  22084045.711                    22084054.418
 105230364.858 8  81997763.67346  20024687.352                    20024695.723
 111381580.593 7  86790863.392 7  21195216.508                    21195225.277
 113897534.827 7  88751362.04246  21673978.289                    21673986.000
 11  8 16 19 47 30.0000000  0  8G17G26G01G24G11G08G07G28
 112895768.837 7  87970782.206 7  21483328.016                    21483336.695
 119595509.481 7  93191382.19244  22758278.531                    22758288.973
 116370786.200 7  90678642.457 7  22144636.711                    22144648.547
 115380345.353 7  89906804.78045  21956135.625                    21956145.203
 116107892.034 7  90473719.63045  22094597.500                    22094605.484
 105239771.723 8  82005093.66746  20026477.461                    20026485.500
 111448220.535 7  86842790.548 7  21207897.680                    21207906.570
 113876408.975 7  88734900.33745  21669958.305                    21669966.570
 11  8 16 19 48  0.0000000  0  8G17G26G01G24G11G08G07G28
 112844780.381 7  87931050.974 7  21473625.305                    21473634.676
 119600871.335 6  93195560.23244  22759298.867                    22759309.156
 116381610.087 7  90687076.658 7  22146696.297                    22146708.789
 115389042.191 7  89913581.53545  21957790.570                    21957799.984
 116163846.598 7  90517320.53845  22105245.117                    22105253.918
 105249745.401 8  82012865.32746  20028375.359                    20028384.055
 111515307.405 7  86895065.952 7  21220664.188                    21220672.883
 113855314.696 7  88718463.22646  21665944.789                    21665951.777
 11  8 16 19 48 30.0000000  0  8G17G26G01G24G11G08G07G28
 112794162.699 7  87891608.665 7  21463993.414                    21464001.973
 119606819.751 6  93200195.32644  22760430.344                    22760441.387
 116392991.394 7  90695945.212 7  22148862.125                    22148874.270
 115398306.005 7  89920800.09545  21959553.289                    21959563.012
 116220305.970 7  90561314.84445  22115988.766                    22115997.242
 105260286.520 7  82021079.15246  20030381.516                    20030389.766
 111582839.926 7  86947688.609 7  21233515.086                    21233523.773
 113834251.668 7  88702050.45546  21661936.555                    21661944.434
 11  8 16 19 49  0.0000000  0  8G17G26G01G24G11G08G07G28
 112743916.682 7  87852455.954 7  21454431.641                    21454440.852
 119613354.157 6  93205287.04744  22761674.125                    22761684.652
 116404930.473 7  90705248.402 7  22151134.172                    22151145.711
 115408137.642 7  89928461.13245  21961424.336                    21961433.934
 116277268.804 7  90605701.43645  22126828.836                    22126837.012
 105271396.946 7  82029736.58946  20032495.484                    20032504.367
 111650817.600 7  87000658.163 7  21246450.852                    21246460.141
 113813220.752 7  88685662.73246  21657933.930                    21657942.113
 11  8 16 19 49 30.0000000  0  8G17G26G01G24G11G08G07G28
 112694042.109 7  87813592.693 7  21444941.070                    21444949.883
 119620473.433 6  93210834.50244  22763029.156                    22763039.676
 116417427.592 7  90714986.432 7  22153512.094                    22153524.301
 115418536.896 7  89936564.46445  21963403.336                    21963412.801
 116334733.134 7  90650478.79945  22137764.180                    22137772.531
 105283077.042 7  82038837.92946  20034718.102                    20034726.574
 111719238.908 7  87053973.384 7  21259471.203                    21259479.918
 113792222.135 7  88669300.16546  21653938.219                    21653945.750
 11  8 16 19 50  0.0000000  0  8G17G26G01G24G11G08G07G28
 112644538.897 7  87775018.800 7  21435520.461                    21435529.543
 119628176.281 7  93216836.69544  22764495.055                    22764505.086
 116430482.663 7  90725159.207 7  22155996.813                    22156008.609
 115429503.804 7  89945110.11145  21965490.055                    21965500.004
 116392697.148 7  90695645.54845  22148794.453                    22148802.293
 105295327.246 7  82048383.51446  20037049.563                    20037058.035
 111788102.418 7  87107633.195 7  21272575.148                    21272584.320
 113771256.113 7  88652962.98645  21649949.047                    21649956.172
 11  8 16 19 50 30.0000000  0  8G17G26G01G24G11G08G07G28
 112595407.224 7  87736734.402 7  21426171.320                    21426180.531
 119636461.520 6  93223292.70444  22766071.445                    22766082.512
 116444095.146 7  90735766.333 7  22158586.336                    22158598.609
 115441038.688 7  89954098.34245  21967684.883                    21967694.664
 116451158.739 7  90741199.99945  22159919.461                    22159927.238
 105308148.169 8  82058373.80946  20039489.172                    20039497.691
 111857406.420 7  87161636.228 7  21285763.445                    21285772.348
 113750322.700 8  88636651.22446  21645965.242                    21645972.992
 11  8 16 19 51  0.0000000  0  8G17G26G01G24G11G08G07G28
 112546646.870 7  87698739.375 7  21416892.922                    21416901.531
 119645327.755 7  93230201.41344  22767758.914                    22767769.137
 116458264.887 7  90746807.695 7  22161283.313                    22161294.930
 115453141.069 7  89963528.76745  21969987.930                    21969998.148
 116510115.850 7  90787140.58645  22171138.797                    22171146.855
 105321540.230 7  82068809.14846  20042037.555                    20042046.242
 111927149.670 7  87215981.537 7  21299035.281                    21299044.027
 113729421.837 7  88620364.84146  21641987.641                    21641995.699
 11  8 16 19 51 30.0000000  0  8G17G26G01G24G11G08G07G28
 112498258.575 7  87661034.263 7  21407684.328                    21407693.461
 119654774.217 7  93237562.23844  22769556.758                    22769567.043
 116472992.405 7  90758283.681 7  22164086.070                    22164097.469
 115465811.865 7  89973402.11545  21972399.234                    21972409.105
 116569566.991 7  90833466.15044  22182451.445                    22182459.574
 105335504.820 8  82079690.61746  20044694.906                    20044703.203
 111997331.419 7  87270668.518 7  21312390.227                    21312399.594
 113708554.531 8  88604104.59646  21638016.953                    21638024.031
 11  8 16 19 52  0.0000000  0  8G17G26G01G24G11G08G07G28
 112450242.163 7  87623618.921 7  21398546.922                    21398556.156
 119664799.331 7  93245373.98444  22771463.398                    22771474.922
 116488276.722 7  90770193.528 7  22166994.352                    22167006.566
 115479050.302 7  89983717.78145  21974917.883                    21974928.023
 116629509.946 7  90880174.91644  22193858.234                    22193866.004
 105350041.910 8  82091018.18746  20047461.758                    20047469.758
 112067949.575 8  87325695.572 7  21325828.609                    21325837.934
 113687720.292 8  88587870.11846  21634052.297                    21634059.805
 11  8 16 19 52 30.0000000  0  8G17G26G01G24G11G08G07G28
 112402597.652 7  87586493.382 7  21389480.430                    21389489.652
 119675402.420 7  93253636.07344  22773482.258                    22773492.086
 116504118.512 7  90782537.780 7  22170009.367                    22170020.891
 115492857.092 7  89994476.33045  21977545.648                    21977555.297
 116689943.096 7  90927265.67544  22205358.102                    22205366.652
 105365152.985 8  82102793.02346  20050336.984                    20050345.516
 112139003.428 7  87381062.128 7  21339349.859                    21339358.996
 113666919.996 7  88571662.10646  21630094.063                    21630101.457
 11  8 16 19 53  0.0000000  0  8G17G26G01G24G11G08G07G28
 112355325.388 7  87549657.886 7  21380484.969                    21380493.832
 119686582.396 7  93262347.73244  22775609.781                    22775619.563
 116520517.936 7  90795316.572 7  22173129.734                    22173141.332
 115507232.546 7  90005677.96845  21980281.289                    21980291.332
 116750864.878 7  90974737.17344  22216951.125                    22216959.492
 105380838.981 8  82115015.84946  20053321.797                    20053330.016
 112210491.756 7  87436767.245 7  21352953.969                    21352963.055
 113646154.458 7  88555481.15546  21626142.445                    21626150.254
 11  8 16 19 53 30.0000000  0  8G17G26G01G24G11G08G07G28
 112308424.964 7  87513112.157 7  21371560.063                    21371569.000
 119698337.414 7  93271507.44644  22777846.078                    22777856.863
 116537474.050 7  90808529.116 7  22176356.188                    22176368.211
 115522175.787 7  90017322.05045  21983124.641                    21983134.781
 116812272.346 7  91022587.11344  22228637.000                    22228645.023
 105397099.393 8  82127686.26446  20056416.617                    20056424.301
 112282412.506 8  87492809.309 7  21366639.844                    21366649.160
 113625422.858 8  88539326.67546  21622197.570                    21622205.520
 11  8 16 19 54  0.0000000  0  8G17G26G01G24G11G08G07G28
 112261896.918 7  87476856.596 7  21362705.992                    21362714.953
 119710666.654 7  93281114.61444  22780191.664                    22780203.066
 116554986.767 7  90822175.382 7  22179689.008                    22179700.934
 115537687.514 7  90029409.11245  21986076.680                    21986086.805
 116874164.333 7  91070814.61744  22240415.047                    22240422.234
 105413935.795 8  82140805.50446  20059620.227                    20059628.473
 112354764.827 7  87549187.637 7  21380408.273                    21380417.191
 113604726.336 8  88523199.53046  21618258.727                    21618266.324
 11  8 16 19 54 30.0000000  0  8G17G26G01G24G11G08G07G28
 112215741.235 7  87440891.172 7  21353923.016                    21353931.863
 119723568.881 7  93291168.26244  22782647.547                    22782657.887
 116573056.313 7  90836255.554 7  22183128.078                    22183139.176
 115553767.774 7  90041939.19445  21989136.297                    21989146.879
 116936539.095 7  91119418.31144  22252283.563                    22252291.930
 105431348.884 8  82154374.11846  20062933.695                    20062942.418
 112427547.131 7  87605901.051 7  21394258.164                    21394267.063
 113584065.314 8  88507100.04245  21614327.281                    21614335.031
 11  8 16 19 55  0.0000000  0  8G17G26G01G24G11G08G07G28
 112169957.479 7  87405215.579 7  21345210.734                    21345219.789
 119737042.158 7  93301666.86444  22785211.211                    22785221.895
 116591681.851 7  90850768.956 7  22186671.727                    22186683.668
 115570415.761 7  90054911.65245  21992304.258                    21992314.363
 116999393.631 7  91168395.85144  22264244.828                    22264253.289
 105449338.121 8  82168391.67946  20066356.844                    20066365.422
 112500757.672 8  87662948.146 7  21408189.922                    21408199.008
 113563439.319 8  88491027.84546  21610402.188                    21610409.816
 11  8 16 19 55 30.0000000  0  8G17G26G01G24G11G08G07G28
 112124545.754 8  87369829.861 7  21336568.734                    21336577.609
 119751085.363 7  93312609.56844  22787884.359                    22787894.535
 116610863.116 7  90865715.386 7  22190321.961                    22190333.828
 115587631.699 7  90068326.66045  21995580.953                    21995590.430
 117062726.209 7  91217745.88244  22276296.313                    22276304.785
 105467904.309 8  82182858.80346  20069890.000                    20069898.465
 112574395.126 8  87720327.882 7  21422202.547                    21422211.945
 113542849.302 8  88474983.68646  21606484.117                    21606492.094
 11  8 16 19 56  0.0000000  0  8G17G26G01G24G11G08G07G28
 112079506.234 8  87334734.178 7  21327998.086                    21328007.465
 119765697.339 7  93323995.45644  22790664.758                    22790675.480
 116630600.019 7  90881094.796 7  22194077.289                    22194089.023
 115605415.559 7  90082184.22145  21998965.141                    21998974.887
 117126535.156 7  91267467.10544  22288438.711                    22288447.703
 105487048.371 8  82197776.23046  20073533.305                    20073541.789
 112648458.081 7  87778039.178 7  21436295.883                    21436305.957
 113522295.550 8  88458967.79946  21602572.680                    21602580.586
 11  8 16 19 56 30.0000000  0  8G17G26G01G24G11G08G07G28
 112034839.163 8  87299928.717 7  21319498.281                    21319507.250
 119780876.401 7  93335823.25444  22793553.414                    22793564.297
 116650892.102 7  90896906.808 7  22197938.695                    22197950.941
 115623767.048 7  90096484.06545  22002456.766                    22002467.258
 117190818.193 7  91317557.75044  22300671.977                    22300679.934
 105506770.468 8  82213144.07346  20077286.336                    20077294.137
 112722944.948 7  87836080.819 7  21450470.898                    21450480.270
 113501778.406 8  88442980.41746  21598668.688                    21598676.629
 11  8 16 19 57  0.0000000  0  8G17G26G01G24G11G08G07G28
 111990544.034 8  87265413.067 7  21311068.906                    21311078.164
 119796621.312 7  93348091.95144  22796549.477                    22796560.422
 116671738.957 7  90913151.077 7  22201906.313                    22201917.973
 115642686.098 7  90111226.18645  22006057.461                    22006066.961
 117255573.450 7  91368016.36444  22312994.344                    22313002.160
 105527071.187 8  82228962.79446  20081149.398                    20081157.457
 112797854.331 7  87894451.661 7  21464726.031                    21464735.555
 113481298.470 8  88427022.03246  21594771.688                    21594779.375
 11  8 16 19 57 30.0000000  0  8G17G26G01G24G11G08G07G28
 111946620.776 8  87231187.185 7  21302710.586                    21302719.633
 119812930.430 7  93360800.29244  22799652.742                    22799663.383
 116693140.428 7  90929827.561 7  22205978.977                    22205990.684
 115662172.515 7  90126410.39045  22009765.547                    22009775.234
 117320798.559 7  91418841.09044  22325406.492                    22325413.816
 105547950.828 8  82245232.61946  20085122.625                    20085130.648
 112873184.563 8  87953150.448 7  21479060.570                    21479069.848
 113460855.770 8  88411092.67646  21590881.227                    21590889.023
 11  8 16 19 58  0.0000000  0  8G17G26G01G24G11G08G07G28
 111903069.152 8  87197250.884 7  21294422.898                    21294432.008
 119829802.085 7  93373946.99344  22802863.484                    22802873.816
 116715095.730 7  90946935.575 7  22210157.047                    22210168.605
 115682225.709 7  90142036.26645  22013581.391                    22013591.133
 117386491.166 7  91470030.11744  22337907.172                    22337915.590
 105569409.392 8  82261953.55446  20089205.719                    20089214.164
 112948934.177 8  88012176.036 7  21493475.523                    21493484.617
 113440450.634 8  88395192.57546  21586998.219                    21587005.859
 11  8 16 19 58 30.0000000  0  8G17G26G01G24G11G08G07G28
 111859889.083 8  87163604.105 7  21286205.938                    21286215.422
 119847234.855 7  93387530.89844  22806180.602                    22806191.176
 116737604.529 7  90964474.910 7  22214439.773                    22214452.055
 115702845.509 7  90158103.63045  22017505.063                    22017514.637
 117452649.450 7  91521581.98044  22350496.516                    22350505.023
 105591447.338 8  82279125.95646  20093399.469                    20093407.785
 113025101.266 8  88071526.918 7  21507969.242                    21507978.754
 113420083.491 8  88379322.09046  21583122.453                    21583130.277
 11  8 16 19 59  0.0000000  0  8G17G26G01G24G11G08G07G28
 111817080.703 8  87130246.958 7  21278059.672                    21278068.547
 119865227.020 7  93401550.71444  22809605.000                    22809615.559
 116760666.387 7  90982445.174 7  22218828.258                    22218840.352
 115724031.753 7  90174612.39945  22021536.523                    22021546.832
 117519271.565 7  91573495.27644  22363174.773                    22363182.758
 105614065.299 8  82296750.32146  20097703.672                    20097712.199
 113101684.470 8  88131202.052 7  21522542.922                    21522552.203
 113399754.638 8  88363481.43546  21579254.133                    21579261.973
 11  8 16 19 59 30.0000000  0  8G17G26G01G24G11G08G07G28
 111774643.366 8  87097178.941 7  21269984.414                    21269993.676
 119883777.127 7  93416005.29244  22813134.734                    22813145.031
 116784280.589 7  91000845.843 7  22223321.758                    22223333.691
 115745783.836 7  90191562.06845  22025675.508                    22025685.523
 117586354.606 7  91625767.75044  22375940.242                    22375947.918
 105637263.057 8  82314826.46446  20102118.250                    20102126.379
 113178682.257 8  88191200.234 7  21537194.922                    21537204.570
 113379464.539 8  88347670.98046  21575393.203                    21575401.305
 11  8 16 20  0  0.0000000  0  8G17G26G01G24G11G08G07G28
 111732578.077 8  87064400.819 7  21261979.500                    21261988.578
 119902884.189 7  93430893.84744  22816770.711                    22816781.836
 116808447.388 7  91019677.138 7  22227920.594                    22227932.727
 115768102.144 7  90208952.94345  22029923.031                    22029933.008
 117653897.444 7  91678398.52144  22388792.914                    22388801.215
 105661042.129 8  82333355.58546  20106642.969                    20106651.441
 113256093.385 8  88251520.494 7  21551926.047                    21551935.664
 113359214.625 8  88331891.83346  21571539.680                    21571547.418
 11  8 16 20  0 30.0000000  0  8G17G26G01G24G11G08G07G28
 111690884.024 8  87031911.968 7  21254045.469                    21254054.441
 119922546.172 7  93446214.79944  22820512.523                    22820523.539
 116833165.787 7  91038938.220 7  22232624.703                    22232636.348
 115790985.707 7  90226784.29945  22034277.680                    22034287.383
 117721897.521 7  91731385.53644  22401732.813                    22401741.270
 105685401.893 8  82352337.18846  20111278.789                    20111286.824
 113333915.769 8  88312161.219 7  21566735.305                    21566744.816
 113339004.724 8  88316143.86246  21567693.930                    21567701.355
 11  8 16 20  1  0.0000000  0  8G17G26G01G24G11G08G07G28
 111649561.052 8  86999712.275 7  21246182.344                    21246190.715
 119942761.053 7  93461966.60444  22824359.031                    22824370.254
 116858435.011 7  91058628.531 7  22237433.031                    22237445.000
 115814434.131 7  90245055.80445  22038739.281                    22038749.559
 117790352.441 7  91784727.00944  22414759.828                    22414767.746
 105710342.367 8  82371771.30446  20116024.984                    20116033.164
 113412147.746 8  88373121.114 7  21581622.164                    21581631.449
 113318834.902 8  88300427.12346  21563855.820                    21563863.781
 11  8 16 20  1 30.0000000  0  8G17G26G01G24G11G08G07G28
 111608608.733 8  86967801.406 7  21238388.859                    21238398.223
 119963527.510 6  93478148.17744  22828311.258                    22828321.629
 116884254.406 7  91078747.531 7  22242346.063                    22242358.363
 115838447.185 7  90263767.26245  22043309.438                    22043319.070
 117859260.088 7  91838421.25144  22427872.125                    22427880.484
 105735864.099 8  82391658.32146  20120881.367                    20120889.773
 113490787.830 8  88434399.017 7  21596586.953                    21596596.656
 113298705.824 8  88284742.14246  21560024.750                    21560032.441
 11  8 16 20  2  0.0000000  0  8G17G26G01G24G11G08G07G28
 111568027.251 8  86936179.503 7  21230666.617                    21230675.164
 119984844.060 7  93494758.41844  22832367.727                    22832378.324
 116910623.676 7  91099295.006 7  22247365.086                    22247376.332
 115863024.352 7  90282918.32145  22047986.609                    22047995.727
 117928618.465 7  91892466.70744  22441070.914                    22441078.945
 105761967.305 8  82411998.45446  20125848.703                    20125857.285
 113569834.431 8  88495993.689 7  21611629.375                    21611638.750
 113278618.603 8  88269089.76046  21556202.547                    21556210.129
 11  8 16 20  2 30.0000000  0  8G17G26G01G24G11G08G07G28
 111527815.799 8  86904845.942 7  21223014.359                    21223023.605
 120006708.043 7  93511795.22244  22836527.883                    22836539.109
 116937541.852 7  91120270.216 7  22252486.828                    22252498.102
 115888164.665 7  90302508.17045  22052770.258                    22052780.480
 117998424.899 7  91946861.31044  22454354.758                    22454362.785
 105788651.127 8  82432791.01046  20130926.586                    20130934.844
 113649285.230 8  88557903.310 7  21626748.195                    21626757.660
 113258572.386 8  88253469.34546  21552387.883                    21552395.430
 11  8 16 20  3  0.0000000  0  8G17G26G01G24G11G08G07G28
 111487974.390 8  86873800.726 7  21215432.930                    21215441.742
 120029118.255 6  93529257.64844  22840792.820                    22840803.602
 116965008.406 7  91141672.729 7  22257713.328                    22257725.676
 115913867.933 7  90322536.70345  22057661.594                    22057670.895
 118068677.097 7  92001603.22944  22467723.109                    22467731.719
 105815916.281 8  82454036.55446  20136114.813                    20136123.855
 113729138.688 8  88620126.687 7  21641944.023                    21641953.355
 113238568.018 8  88237881.53946  21548580.945                    21548589.160
 11  8 16 20  3 30.0000000  0  8G17G26G01G24G11G08G07G28
 111448503.373 8  86843044.132 7  21207922.102                    21207930.527
 120052073.525 7  93547144.77544  22845161.023                    22845171.734
 116993022.970 7  91163502.256 7  22263044.055                    22263056.113
 115940134.121 7  90343003.86045  22062659.836                    22062670.215
 118139373.502 7  92056691.31544  22481176.633                    22481184.188
 105843763.984 8  82475736.02746  20141413.961                    20141422.457
 113809393.922 8  88682663.140 7  21657216.320                    21657225.973
 113218606.690 8  88222327.27346  21544782.477                    21544790.238
 11  8 16 20  4  0.0000000  0  8G17G26G01G24G11G08G07G28
 111409403.031 8  86812576.377 7  21200480.953                    21200489.871
 120075572.085 7  93565455.27744  22849632.188                    22849643.617
 117021585.387 7  91185758.692 7  22268479.313                    22268491.719
 115966962.854 7  90363909.36645  22067764.758                    22067775.141
 118210512.184 7  92112124.03044  22494713.758                    22494721.750
 105872194.262 8  82497889.44846  20146824.039                    20146832.809
 113890049.378 8  88745511.454 7  21672564.148                    21672574.090
 113198689.737 8  88206807.57746  21540992.695                    21541000.109
 11  8 16 20  4 30.0000000  0  9G17G26G01G04G24G11G08G07G28
 111370671.781 8  86782396.224 7  21193111.422                    21193119.586
 120099611.232 7  93584187.00044  22854207.125                    22854217.988
 117050693.595 7  91208440.394 7  22274019.117                    22274031.195
 129251632.58615                  24595770.797
 115994352.596 7  90385252.01645  22072977.078                    22072987.059
 118282089.688 7  92167898.68744  22508334.242                    22508342.051
 105901205.414 8  82520495.51046  20152344.781                    20152353.293
 113971102.071 8  88808669.310 7  21687988.250                    21687998.082
 113178816.054 8  88191321.59946  21537210.852                    21537218.293
 11  8 16 20  5  0.0000000  0  9G17G26G01G04G24G11G08G07G28
 111332307.639 8  86752502.126 7  21185810.484                    21185819.250
 120124187.347 7  93603337.15844  22858883.336                    22858894.695
 117080345.218 7  91231545.553 7  22279661.250                    22279673.660
 129139148.793 6 100627979.63252  24574365.398                    24574381.801
 116022300.813 7  90407029.84345  22078295.789                    22078305.746
 118354101.768 7  92224011.97444  22522037.742                    22522045.578
 105930795.932 8  82543553.02046  20157976.008                    20157984.449
 114052548.526 8  88872133.989 7  21703487.281                    21703496.801
 113158984.350 8  88175868.33946  21533437.047                    21533444.594
 11  8 16 20  5 30.0000000  0  9G17G26G01G04G24G11G08G07G28
 111294312.086 8  86722895.243 7  21178580.031                    21178588.789
 120149300.586 7  93622905.83244  22863662.828                    22863674.055
 117110541.354 7  91255075.010 7  22285407.891                    22285419.738
 129026599.060 6 100540278.87142  24552947.547                    24552966.844
 116050808.959 7  90429243.98445  22083720.445                    22083730.340
 118426548.370 7  92280463.84044  22535823.992                    22535832.301
 105960968.096 7  82567063.76046  20163717.742                    20163725.922
 114134388.990 8  88935905.696 7  21719060.898                    21719070.285
 113139197.399 8  88160449.94746  21529671.570                    21529679.242
 11  8 16 20  6  0.0000000  0  9G17G26G01G04G24G11G08G07G28
 111256685.726 8  86693576.059 7  21171420.133                    21171428.930
 120174949.638 7  93642892.01144  22868543.391                    22868554.582
 117141282.090 7  91279028.826 7  22291257.414                    22291268.953
 128913986.598 6 100452529.11642  24531518.523                    24531537.633
 116079877.359 7  90451894.70245  22089251.945                    22089261.914
 118499427.859 7  92337253.01944  22549692.648                    22549700.645
 105991722.517 8  82591028.20746  20169569.922                    20169578.359
 114216622.380 8  88999983.566 7  21734709.359                    21734719.180
 113119456.341 8  88145067.31746  21525915.211                    21525922.203
 11  8 16 20  6 30.0000000  0  9G17G26G01G04G24G11G08G07G28
 111219428.472 8  86664544.467 7  21164330.180                    21164338.973
 120201132.496 7  93663294.15644  22873526.375                    22873536.719
 117172566.550 7  91303406.344 7  22297210.594                    22297222.227
 128801314.148 6 100364732.65842  24510077.523                    24510097.117
 116109505.304 7  90474981.40345  22094890.094                    22094899.941
 118572738.260 7  92394377.97644  22563642.242                    22563650.961
 106023059.311 8  82615446.45746  20175533.055                    20175541.527
 114299246.903 8  89064366.225 7  21750432.844                    21750442.629
 113099761.780 8  88129720.90346  21522167.203                    21522175.012
 11  8 16 20  7  0.0000000  0  9G17G26G01G04G24G11G08G07G28
 111182539.457 8  86635799.819 7  21157310.406                    21157319.375
 120227847.290 7  93684110.81144  22878609.547                    22878620.547
 117204393.676 7  91328206.693 7  22303266.711                    22303278.789
 128688583.902 6 100276891.16542  24488624.977                    24488644.980
 116139691.652 7  90498503.23945  22100634.133                    22100644.520
 118646476.606 7  92451836.38344  22577675.820                    22577682.867
 106054977.757 8  82640317.92946  20181607.086                    20181615.688
 114382260.627 8  89129052.169 7  21766229.664                    21766239.188
 113080114.269 8  88114411.17546  21518428.539                    21518436.121
 11  8 16 20  7 30.0000000  0  9G17G26G01G04G24G11G08G07G28
 111146018.029 8  86607341.612 7  21150360.563                    21150368.910
 120255091.658 6  93705340.10744  22883793.781                    22883805.484
 117236762.300 7  91353428.980 7  22309426.523                    22309438.648
 128575798.033 6 100189006.29043  24467161.781                    24467181.617
 116170435.590 7  90522459.53245  22106484.758                    22106494.453
 118720640.465 7  92509626.37844  22591787.758                    22591796.102
 106087477.246 7  82665642.16546  20187791.414                    20187800.234
 114465661.286 8  89194039.591 7  21782100.203                    21782110.523
 113060513.763 8  88099138.04146  21514698.695                    21514705.832
 11  8 16 20  8  0.0000000  0  9G17G26G01G04G24G11G08G07G28
 111109864.541 8  86579170.101 7  21143480.758                    21143489.742
 120282864.057 7  93726980.85644  22889079.219                    22889090.039
 117269672.039 7  91379072.913 7  22315688.547                    22315700.813
 128462959.829 6 100101080.61142  24445689.773                    24445708.195
 116201736.607 7  90546849.93945  22112440.805                    22112451.230
 118795227.902 7  92567746.42844  22605981.070                    22605989.402
 106120558.530 8  82691419.75246  20194086.516                    20194095.215
 114549447.582 8  89259327.522 7  21798044.594                    21798054.250
 113040961.479 8  88083902.50746  21510977.977                    21510985.773
 11  8 16 20  8 30.0000000  0  9G17G26G01G04G24G11G08G07G28
 111074078.597 8  86551284.990 7  21136671.219                    21136679.332
 120311162.533 7  93749031.54044  22894464.461                    22894475.406
 117303121.615 7  91405137.517 7  22322054.281                    22322065.836
 128350071.756 6 100013116.12343  24424207.992                    24424226.508
 116233594.113 7  90571673.96045  22118503.094                    22118513.766
 118870236.641 7  92626194.77544  22620255.039                    22620263.039
 106154221.769 8  82717650.80346  20200492.320                    20200501.090
 114633617.667 7  89324914.518 7  21814061.398                    21814071.410
 113021458.051 8  88068705.03946  21507266.570                    21507273.992
 11  8 16 20  9  0.0000000  0  9G17G26G01G04G24G11G08G07G28
 111038659.604 8  86523685.812 7  21129930.898                    21129939.254
 120339984.932 7  93771490.49044  22899949.125                    22899960.074
 117337110.624 7  91431622.436 7  22328522.188                    22328533.898
 128237136.345 6  99925114.69342  24402716.078                    24402735.660
 116266007.324 7  90596930.99745  22124671.133                    22124681.367
 118945664.028 7  92684969.33944  22634608.484                    22634616.168
 106188466.394 7  82744334.88846  20207009.164                    20207017.578
 114718169.383 8  89390798.883 7  21830150.789                    21830160.996
 113002003.765 8  88053545.85946  21503564.750                    21503572.109
 11  8 16 20  9 30.0000000  0  9G17G26G01G04G24G11G08G07G28
 111003606.815 8  86496371.976 7  21123260.664                    21123269.484
 120369329.020 7  93794355.92844  22905532.625                    22905544.961
 117371637.361 7  91458526.380 7  22335092.813                    22335104.910
 128124155.871 6  99837078.23942  24381217.000                    24381236.180
 116298974.936 7  90622620.04645  22130944.633                    22130954.672
 119021507.266 7  92744067.96744  22649040.609                    22649048.809
 106223291.481 8  82771471.27546  20213636.000                    20213644.676
 114803100.594 7  89456978.962 7  21846313.156                    21846322.820
 112982599.152 8  88038425.38646  21499872.039                    21499879.508
 11  8 16 20 10  0.0000000  0  9G17G26G01G04G24G11G08G07G28
 110968920.315 8  86469343.581 7  21116659.984                    21116668.637
 120399192.920 7  93817626.41844  22911215.914                    22911227.258
 117406701.188 7  91485848.826 7  22341765.367                    22341776.738
 128011133.245 5  99749008.85742  24359709.141                    24359728.484
 116332496.383 7  90648740.64545  22137323.914                    22137333.551
 119097764.620 7  92803489.25744  22663552.258                    22663560.070
 106258697.489 8  82799060.33046  20220373.484                    20220382.570
 114888409.880 7  89523453.630 7  21862547.117                    21862556.609
 112963245.153 8  88023344.35046  21496189.234                    21496196.672
 11  8 16 20 10 30.0000000  0  9G17G26G01G04G24G11G08G07G28
 110934599.299 8  86442599.976 7  21110128.609                    21110137.773
 120429574.243 7  93841300.09544  22916997.922                    22917008.813
 117442300.866 7  91513588.836 7  22348539.094                    22348550.805
 127898070.706 6  99660908.50343  24338194.133                    24338212.969
 116366570.402 7  90675291.81445  22143808.055                    22143818.063
 119174433.314 7  92863231.11644  22678142.242                    22678149.617
 106294683.381 8  82827101.24746  20227221.516                    20227230.348
 114974094.713 7  89590220.952 7  21878852.305                    21878861.977
 112943941.942 8  88008302.89046  21492515.906                    21492522.828
 11  8 16 20 11  0.0000000  0  9G17G26G01G04G24G11G08G07G28
 110900643.409 8  86416140.874 7  21103667.008                    21103676.082
 120460470.967 7  93865375.39244  22922877.398                    22922887.875
 117478435.473 7  91541745.657 7  22355415.156                    22355427.520
 127784971.109 6  99572779.22143  24316671.070                    24316691.102
 116401196.296 7  90702273.03145  22150396.773                    22150406.645
 119251510.908 7  92923291.56144  22692809.000                    22692817.867
 106331249.449 8  82855594.24246  20234180.125                    20234188.922
 115060153.733 7  89657279.850 7  21895228.539                    21895238.359
 112924690.066 8  87993301.43646  21488852.195                    21488859.617
 11  8 16 20 11 30.0000000  0  9G17G26G01G04G24G11G08G07G28
 110867052.543 8  86389966.207 7  21097274.984                    21097283.477
 120491881.217 7  93889850.83044  22928854.023                    22928865.867
 117515103.895 7  91570318.449 7  22362393.453                    22362405.539
 127671837.000 6  99484623.11043  24295142.469                    24295161.676
 116436373.295 7  90729683.66545  22157090.773                    22157101.266
 119328994.911 7  92983668.69544  22707553.531                    22707562.301
 106368395.194 8  82884538.94146  20241248.602                    20241257.141
 115146585.011 7  89724628.810 7  21911676.109                    21911685.773
 112905490.887 8  87978341.04346  21485198.531                    21485206.027
 11  8 16 20 12  0.0000000  0  9G17G26G01G04G24G11G08G07G28
 110833825.837 8  86364075.311 7  21090952.336                    21090960.711
 120523802.619 7  93914724.52344  22934928.625                    22934939.758
 117552305.284 7  91599306.528 7  22369472.250                    22369484.582
 127558670.992 6  99396442.11643  24273608.305                    24273626.516
 116472100.191 7  90757522.81845  22163889.055                    22163899.633
 119406883.022 7  93044360.71444  22722375.273                    22722383.910
 106406120.179 8  82913934.99346  20248427.117                    20248435.680
 115233386.409 7  89792266.134 7  21928193.727                    21928203.859
 112886344.680 7  87963421.93446  21481555.680                    21481562.605
 11  8 16 20 12 30.0000000  0  9G17G26G01G04G24G11G08G07G28
 110800962.968 8  86338467.920 7  21084698.555                    21084707.328
 120556233.032 7  93939994.90044  22941099.875                    22941111.727
 117590038.496 7  91628709.020 7  22376652.539                    22376664.570
 127445475.563 6  99308238.27743  24252067.313                    24252086.285
 116508375.898 7  90785789.59945  22170792.422                    22170802.457
 119485172.917 7  93105365.78344  22737273.680                    22737282.348
 106444424.068 8  82943782.13546  20255716.109                    20255725.219
 115320555.701 7  89860190.176 7  21944781.352                    21944791.527
 112867251.804 8  87948544.37246  21477921.992                    21477929.461
 11  8 16 20 13  0.0000000  0  9G17G26G01G04G24G11G08G07G28
 110768463.522 8  86313143.718 7  21078514.305                    21078523.008
 120589170.131 7  93965660.07744  22947367.469                    22947378.996
 117628302.063 7  91658524.795 7  22383934.273                    22383945.820
 127332253.631 6  99220013.72543  24230521.242                    24230539.977
 116545199.481 7  90814483.30145  22177799.930                    22177809.406
 119563862.011 7  93166681.91844  22752247.750                    22752256.195
 106483306.314 8  82974079.95546  20263115.484                    20263123.930
 115408090.984 7  89928399.401 7  21961439.039                    21961449.105
 112848213.268 7  87933709.16146  21474298.906                    21474306.586
 11  8 16 20 13 30.0000000  0  9G17G26G01G04G24G11G08G07G28
 110736326.667 8  86288102.063 7  21072398.172                    21072407.055
 120622612.146 7  93991718.67144  22953731.875                    22953743.395
 117667095.099 7  91688753.138 7  22391315.984                    22391327.500
 127219007.703 6  99131770.47343  24208971.648                    24208990.039
 116582570.212 7  90843603.34445  22184911.031                    22184921.262
 119642947.831 7  93228307.21244  22767297.406                    22767305.996
 106522766.814 8  83004828.34746  20270624.141                    20270633.570
 115495990.368 7  89996892.331 7  21978165.984                    21978175.852
 112829229.954 7  87918916.98246  21470687.047                    21470693.852
 11  8 16 20 14  0.0000000  0  9G17G26G01G04G24G11G08G07G28
 110704552.134 8  86263342.719 7  21066352.055                    21066360.648
 120656556.398 7  94018168.64744  22960191.742                    22960202.348
 117706416.245 7  91719392.975 7  22398798.461                    22398810.840
 127105740.275 6  99043510.50043  24187416.297                    24187435.727
 116620486.896 7  90873148.80845  22192126.531                    22192136.773
 119722428.136 7  93290239.87744  22782422.133                    22782430.574
 106562804.794 8  83036026.73246  20278243.594                    20278252.254
 115584251.632 7  90065667.249 7  21994961.727                    21994971.848
 112810302.208 8  87904168.10046  21467085.008                    21467092.207
 11  8 16 20 14 30.0000000  0  9G17G26G01G04G24G11G08G07G28
 110673140.001 8  86238865.783 7  21060374.367                    21060383.031
 120691000.898 7  94045008.40544  22966746.352                    22966757.039
 117746265.006 7  91750443.965 7  22406381.438                    22406393.676
 126992454.532 6  98955236.25742  24165859.477                    24165877.664
 116658948.867 7  90903119.18245  22199445.531                    22199455.402
 119802300.353 7  93352477.92344  22797621.273                    22797629.711
 106603420.352 8  83067675.17746  20285972.188                    20285980.961
 115672873.483 8  90134723.128 7  22011826.188                    22011835.891
 112791430.924 8  87889463.22046  21463494.070                    21463501.180
 11  8 16 20 15  0.0000000  0  9G17G26G01G04G24G11G08G07G28
 110642089.085 8  86214670.304 7  21054465.484                    21054474.246
 120725943.264 7  94072236.08644  22973395.508                    22973406.648
 117786639.641 7  91781904.708 7  22414064.781                    22414076.242
 126879152.664 6  98866949.49843  24144297.984                    24144316.570
 116697954.781 7  90933513.40545  22206868.281                    22206878.875
 119882562.036 7  93415019.48244  22812893.781                    22812902.293
 106644612.449 8  83099772.87246  20293811.289                    20293819.871
 115761853.344 7  90204057.993 7  22028758.367                    22028768.234
 112772616.816 8  87874802.89246  21459913.695                    21459921.219
 11  8 16 20 15 30.0000000  0  9G17G26G01G04G24G11G08G07G28
 110611399.034 8  86190756.021 7  21048625.375                    21048634.227
 120761381.193 7  94099849.93144  22980139.836                    22980149.719
 117827538.905 7  91813774.293 7  22421847.117                    22421859.504
 126765837.407 5  98778652.27842  24122734.273                    24122753.168
 116737503.346 7  90964330.46745  22214394.813                    22214404.105
 119963210.491 7  93477862.40844  22828241.578                    22828249.746
 106686380.447 8  83132319.32746  20301759.578                    20301768.250
 115851189.337 7  90273670.333 7  22045758.453                    22045768.832
 112753860.519 8  87860187.60746  21456344.523                    21456351.973
 11  8 16 20 16  0.0000000  0  9G17G26G01G04G24G11G08G07G28
 110581069.406 8  86167122.584 7  21042853.844                    21042863.266
 120797312.593 7  94127848.31744  22986976.375                    22986988.020
 117868961.968 7  91846052.002 7  22429729.867                    22429741.840
 126652511.378 6  98690346.69443  24101169.242                    24101187.656
 116777593.745 7  90995569.75745  22222023.117                    22222033.016
 120044243.490 7  93541004.95744  22843660.875                    22843669.508
 106728724.085 8  83165314.33246  20309817.703                    20309825.980
 115940879.503 7  90343558.665 7  22062826.031                    22062836.539
 112735163.187 8  87845618.26746  21452786.523                    21452793.922
 11  8 16 20 16 30.0000000  0  9G17G26G01G04G24G11G08G07G28
 110551099.684 8  86143769.589 7  21037150.773                    21037159.195
 120833735.122 7  94156229.38044  22993908.148                    22993918.918
 117910907.254 7  91878736.642 7  22437712.281                    22437723.879
 126539177.531 6  98602034.93043  24079602.180                    24079620.359
 116818224.900 7  91027230.40345  22229754.758                    22229765.191
 120125658.466 7  93604445.17344  22859154.141                    22859162.445
 106771643.033 8  83198757.62446  20317984.547                    20317993.129
 116030921.798 7  90413721.382 7  22079960.742                    22079970.465
 112716525.160 8  87831095.13746  21449239.977                    21449246.805
 11  8 16 20 17  0.0000000  0  9G17G26G01G04G24G11G08G07G28
 110521489.314 8  86120696.609 7  21031515.813                    21031524.391
 120870646.292 7  94184991.23144  23000931.789                    23000943.652
 117953373.655 7  91911827.334 7  22445793.359                    22445805.129
 126425838.634 6  98513719.32443  24058033.797                    24058051.941
 116859395.466 7  91059311.35545  22237588.656                    22237598.984
 120207452.927 7  93668181.07844  22874718.258                    22874727.379
 106815136.325 8  83232648.45646  20326260.813                    20326269.691
 116121313.846 7  90484156.630 7  22097161.977                    22097172.324
 112697947.196 8  87816618.80246  21445704.805                    21445711.969
 11  8 16 20 17 30.0000000  0  9G17G26G01G04G24G11G08G07G28
 110492237.855 8  86097903.310 7  21025950.039                    21025958.383
 120908043.712 7  94214131.97744  23008048.406                    23008059.777
 117996359.436 7  91945322.750 7  22453973.055                    22453985.055
 126312496.885 6  98425401.46143  24036465.250                    24036483.191
 116901103.942 7  91091811.47645  22245525.773                    22245536.219
 120289624.252 7  93732210.64743  22890355.906                    22890364.848
 106859203.073 8  83266986.13846  20334646.516                    20334655.555
 116212053.665 7  90554862.856 7  22114429.102                    22114439.453
 112679429.769 8  87802189.65446  21442180.586                    21442188.266
 11  8 16 20 18  0.0000000  0  9G17G26G01G04G24G11G08G07G28
 110463343.978 8  86075388.627 7  21020451.250                    21020459.801
 120945925.087 7  94243649.81444  23015257.031                    23015268.707
 118039863.709 7  91979222.163 7  22462252.281                    22462263.781
 126199155.564 6  98337083.95043  24014898.055                    24014914.926
 116943349.586 7  91124730.15144  22253565.125                    22253575.191
 120372169.877 7  93796531.86744  22906063.055                    22906072.000
 106903843.047 8  83301770.49146  20343141.164                    20343150.008
 116303139.383 7  90625838.616 7  22131762.367                    22131772.719
 112660974.352 8  87787808.80946  21438668.367                    21438675.906
 11  8 16 20 18 30.0000000  0  9G17G26G01G04G24G11G08G07G28
 110434807.023 8  86053152.093 7  21015020.773                    21015029.250
 120984287.883 7  94273542.80344  23022557.563                    23022568.684
 118083884.884 7  92013524.385 7  22470628.703                    22470640.641
 126085816.712 6  98248768.37043  23993328.820                    23993347.066
 116986130.677 7  91158066.08444  22261706.164                    22261716.129
 120455086.993 7  93861142.58044  22921842.750                    22921850.910
 106949054.867 8  83337000.43546  20351744.906                    20351753.977
 116394568.557 7  90697081.994 7  22149160.625                    22149171.102
 112642581.239 8  87773476.51446  21435168.820                    21435175.793
 11  8 16 20 19  0.0000000  0  9G17G26G01G04G24G11G08G07G28
 110406627.426 8  86031193.994 7  21009658.289                    21009667.156
 121023129.778 7  94303809.10744  23029949.063                    23029960.563
 118128421.993 7  92048228.611 7  22479103.758                    22479115.855
 125972483.665 6  98160457.28443  23971762.641                    23971780.289
 117029446.521 7  91191818.69144  22269948.797                    22269958.328
 120538373.818 7  93926041.38244  22937691.594                    22937699.953
 106994838.673 8  83372676.08746  20360457.148                    20360466.008
 116486339.264 7  90768591.501 7  22166624.266                    22166634.398
 112624251.468 8  87759193.58046  21431680.414                    21431687.969
 11  8 16 20 19 30.0000000  0  9G17G26G01G04G24G11G08G07G28
 110378803.750 8  86009513.243 7  21004363.672                    21004372.313
 121062448.316 7  94334446.83044  23037430.617                    23037442.297
 118173473.034 7  92083333.312 7  22487676.977                    22487688.816
 125859158.664 6  98072152.47143  23950196.789                    23950215.148
 117073295.313 7  91225986.59645  22278293.172                    22278302.891
 120622027.134 7  93991225.75444  22953610.125                    22953618.621
 107041192.953 8  83408796.26446  20369278.156                    20369287.125
 116578449.144 7  90840365.317 7  22184152.164                    22184162.320
 112605985.465 8  87744960.33646  21428204.578                    21428211.973
 11  8 16 20 20  0.0000000  0  9G17G26G01G04G24G11G08G07G28
 110351335.845 8  85988109.703 7  20999136.844                    20999145.199
 121102241.023 7  94365454.02844  23045003.555                    23045015.137
 118219037.008 7  92118837.689 7  22496347.055                    22496359.313
 125745844.647 7  97983856.19143  23928633.930                    23928651.461
 117117675.991 7  91260568.94145  22286738.563                    22286748.277
 120706044.688 7  94056693.95444  22969598.367                    22969606.461
 107088117.285 8  83445360.63446  20378207.586                    20378216.461
 116670896.540 7  90912402.114 7  22201744.625                    22201754.688
 112587784.282 8  87730777.60246  21424741.148                    21424748.355
 11  8 16 20 20 30.0000000  0  9G17G26G01G04G24G11G08G07G28
 110324222.797 8  85966982.681 7  20993977.477                    20993986.137
 121142505.343 7  94396828.74444  23052665.172                    23052677.102
 118265112.072 7  92154740.330 7  22505115.297                    22505127.145
 125632544.296 6  97895570.60243  23907072.609                    23907090.883
 117162587.062 7  91295564.58644  22295284.484                    22295294.625
 120790423.929 7  94122443.96644  22985655.117                    22985663.520
 107135610.743 8  83482368.47346  20387245.836                    20387254.836
 116763679.004 7  90984700.004 6  22219400.727                    22219410.730
 112569648.605 8  87716645.90946  21421290.195                    21421297.367
 11  8 16 20 21  0.0000000  0  9G17G26G01G04G24G11G08G07G28
 110297463.973 8  85946131.682 7  20988885.211                    20988894.191
 121183239.122 7  94428569.24844  23060417.031                    23060429.008
 118311697.335 7  92191040.515 7  22513979.750                    22513991.773
 125519260.375 6  97807297.81843  23885515.633                    23885532.781
 117208027.635 7  91330972.79945  22303931.672                    22303941.859
 120875162.523 7  94188474.01543  23001780.383                    23001788.641
 107183672.978 8  83519819.51846  20396391.609                    20396400.215
 116856794.540 7  91057257.445 7  22237119.898                    22237130.508
 112551579.720 8  87702566.25846  21417851.219                    21417858.910
 11  8 16 20 21 30.0000000  0  9G17G26G01G04G24G11G08G07G28
 110271058.542 8  85925556.054 7  20983860.125                    20983868.887
 121224439.523 7  94460673.37444  23068257.156                    23068268.313
 118358791.262 7  92227737.066 7  22522941.984                    22522953.418
 125405995.617 6  97719039.96043  23863961.672                    23863979.035
 117253996.043 7  91366792.33044  22312679.445                    22312689.059
 120960257.571 7  94254781.80444  23017973.602                    23017982.113
 107232302.646 8  83557712.71646  20405645.313                    20405654.070
 116950240.905 7  91130072.669 7  22254902.414                    22254912.898
 112533578.053 8  87688538.99246  21414425.906                    21414433.191
 11  8 16 20 22  0.0000000  0  9G17G26G01G04G24G11G08G07G28
 110245005.666 8  85905255.146 7  20978902.492                    20978910.879
 121266103.788 7  94493138.93144  23076186.430                    23076197.246
 118406391.859 7  92264828.418 7  22531999.641                    22532012.039
 125292752.542 6  97630799.01643  23842411.625                    23842428.789
 117300490.566 7  91403021.81544  22321527.117                    22321536.918
 121045706.299 7  94321365.19644  23034233.445                    23034242.094
 107281498.416 8  83596047.03246  20415007.000                    20415015.695
 117044015.554 7  91203143.702 7  22272746.875                    22272757.859
 112515644.054 8  87674564.46146  21411013.266                    21411020.563
 11  8 16 20 22 30.0000000  0  9G17G26G01G04G24G11G08G07G28
 110219305.318 8  85885228.925 7  20974012.211                    20974020.328
 121308229.908 7  94525964.37844  23084202.289                    23084214.137
 118454498.294 7  92302313.943 7  22541154.133                    22541166.477
 125179534.418 6  97542577.48643  23820865.891                    23820883.422
 117347510.226 7  91439660.49844  22330474.398                    22330484.129
 121131506.524 7  94388222.49044  23050561.195                    23050569.730
 107331260.203 8  83634822.40046  20424476.164                    20424485.543
 117138116.554 7  91276469.017 7  22290653.688                    22290664.605
 112497779.438 8  87660643.98546  21407613.445                    21407620.789
 11  8 16 20 23  0.0000000  0  9G17G26G01G04G24G11G08G07G28
 110193956.549 8  85865476.676 7  20969188.234                    20969197.102
 121350815.315 7  94559147.73244  23092306.023                    23092317.449
 118503108.747 7  92340192.198 7  22550404.398                    22550416.109
 125066343.781 6  97454377.45843  23799325.914                    23799344.266
 117395053.590 7  91476707.27345  22339521.492                    22339531.949
 121217655.840 7  94455351.76844  23066954.219                    23066963.027
 107381587.191 8  83674038.17946  20434053.469                    20434062.328
 117232541.895 7  91350047.056 7  22308622.875                    22308633.461
 112479984.508 8  87646777.81446  21404227.430                    21404234.832
 11  8 16 20 23 30.0000000  0  9G17G26G01G04G24G11G08G07G28
 110168958.931 8  85845998.059 7  20964431.375                    20964439.762
 121393857.591 7  94592687.08644  23100496.859                    23100508.320
 118552222.027 7  92378462.285 7  22559750.648                    22559761.711
 124953183.473 6  97366201.01743  23777793.070                    23777810.383
 117443119.382 7  91514161.12244  22348668.133                    22348678.199
 121304151.646 7  94522751.07043  23083413.742                    23083423.430
 107432478.654 8  83713693.81646  20443737.758                    20443747.227
 117327289.622 7  91423876.319 7  22326652.633                    22326663.555
 112462260.871 8  87632967.20546  21400854.719                    21400861.824
 11  8 16 20 24  0.0000000  0  9G17G26G01G04G24G11G08G07G28
 110144311.322 8  85826792.156 7  20959741.094                    20959749.758
 121437353.572 7  94626579.96844  23108773.789                    23108785.477
 118601836.328 7  92417122.769 7  22569191.570                    22569203.953
 124840055.998 6  97278050.14743  23756266.125                    23756282.094
 117491705.749 7  91552020.61445  22357913.820                    22357923.957
 121390990.826 6  94590417.90943  23099939.477                    23099947.820
 107483932.554 8  83753787.70546  20453529.203                    20453538.488
 117422356.980 7  91497954.644 7  22344743.570                    22344754.246
 112444608.589 8  87619212.19246  21397495.781                    21397502.824
 11  8 16 20 24 30.0000000  0  9G17G26G01G04G24G11G08G07G28
 110120013.022 8  85807858.464 7  20955117.328                    20955125.730
 121481300.845 7  94660824.49944  23117136.352                    23117148.105
 118651949.607 6  92456172.080 7  22578727.961                    22578740.055
 124726964.231 6  97189927.06243  23734744.617                    23734761.059
 117540811.280 7  91590284.66744  22367258.477                    22367268.629
 121478171.009 7  94658350.48444  23116529.078                    23116537.336
 107535948.389 8  83794319.46846  20463427.773                    20463436.883
 117517741.948 7  91572280.443 7  22362894.609                    22362905.203
 112427028.942 8  87605513.77846  21394149.914                    21394157.930
 11  8 16 20 25  0.0000000  0  9G17G26G01G04G24G11G08G07G28
 110096063.193 8  85789196.294 7  20950559.305                    20950568.484
 121525696.848 7  94695418.67244  23125585.000                    23125596.969
 118702560.687 7  92495609.277 7  22588359.125                    22588370.836
 124613910.788 6  97101833.87143  23713230.633                    23713247.438
 117590434.395 7  91628952.02045  22376701.367                    22376711.145
 121565689.915 7  94726546.99244  23133183.648                    23133191.918
 107588525.204 8  83835288.36346  20473432.266                    20473441.133
 117613442.181 7  91646851.910 7  22381105.602                    22381116.824
 112409522.523 8  87591872.42146  21390818.969                    21390826.164
 11  8 16 20 25 30.0000000  0  9G17G26G01G04G24G11G08G07G28
 110072461.571 8  85770805.461 7  20946068.789                    20946077.273
 121570539.046 7  94730360.56044  23134118.305                    23134130.355
 118753668.107 7  92535433.249 7  22598084.398                    22598096.184
 124500898.906 6  97013773.05343  23691725.016                    23691741.305
 117640573.920 7  91668021.77745  22386242.492                    22386252.566
 121653544.670 6  94795005.19444  23149901.398                    23149910.773
 107641662.129 8  83876693.70646  20483544.430                    20483553.520
 117709455.775 7  91721667.551 7  22399376.703                    22399387.645
 112392090.453 8  87578289.00246  21387501.594                    21387508.992
 11  8 16 20 26  0.0000000  0  9G17G26G01G04G24G11G08G07G28
 110049207.013 8  85752685.066 7  20941643.008                    20941651.781
 121615824.675 7  94765647.99544  23142736.469                    23142747.734
 118805270.214 7  92575642.680 7  22607903.430                    22607915.723
 124387930.998 7  96925746.47343  23670228.453                    23670243.883
 117691227.908 7  91707492.39544  22395881.969                    22395891.973
 121741732.637 7  94863723.08144  23166683.453                    23166691.988
 107695357.698 8  83918534.35246  20493762.070                    20493771.113
 117805780.142 7  91796725.343 7  22417706.875                    22417718.027
 112374733.410 8  87564764.05046  21384198.641                    21384206.031
 11  8 16 20 26 30.0000000  0  9G17G26G01G04G24G11G08G07G28
 110026299.071 8  85734834.758 7  20937284.195                    20937292.219
 121661551.115 7  94801278.87744  23151437.586                    23151448.824
 118857365.084 7  92616236.059 7  22617817.227                    22617829.523
 124275010.138 7  96837756.54343  23648739.133                    23648754.617
 117742395.131 7  91747362.97244  22405618.656                    22405628.242
 121830251.302 7  94932698.62844  23183528.000                    23183535.992
 107749611.129 8  83960809.69146  20504086.570                    20504095.738
 117902413.137 7  91872023.628 7  22436095.500                    22436106.613
 112357452.730 8  87551298.58946  21380910.438                    21380917.922
 11  8 16 20 27  0.0000000  0  9G17G26G01G04G24G11G08G07G28
 110003736.065 8  85717253.253 7  20932990.445                    20932998.676
 121707715.520 7  94837251.06344  23160222.469                    23160234.098
 118909951.203 7  92657212.256 7  22627823.828                    22627835.766
 124162138.846 6  96749805.25343  23627260.586                    23627276.105
 117794073.692 7  91787631.96544  22415452.625                    22415462.781
 121919097.884 7  95001929.68644  23200434.703                    23200443.957
 107804420.949 8  84003518.58146  20514516.109                    20514525.273
 117999352.194 7  91947560.400 7  22454542.867                    22454553.852
 112340248.979 8  87537893.09246  21377636.594                    21377643.789
 11  8 16 20 27 30.0000000  0  9G17G26G01G04G24G11G08G07G28
 109981517.468 8  85699940.091 7  20928762.469                    20928770.516
 121754315.086 7  94873562.29844  23169090.125                    23169102.023
 118963026.872 6  92698569.900 7  22637924.500                    22637936.145
 124049319.762 7  96661894.65243  23605791.391                    23605807.145
 117846262.041 7  91828298.21344  22425384.133                    22425393.484
 122008269.764 6  95071414.22043  23217404.313                    23217412.547
 107859786.021 8  84046660.13346  20525052.000                    20525061.223
 118096595.726 7  92023334.449 7  22473047.852                    22473058.477
 112323122.885 8  87524548.10146  21374377.438                    21374384.652
 11  8 16 20 28  0.0000000  0  9G17G26G01G04G24G11G08G07G28
 109959642.966 8  85682895.053 7  20924599.602                    20924608.070
 121801347.501 7  94910210.83944  23178039.797                    23178051.871
 119016590.290 7  92740307.638 7  22648116.727                    22648129.008
 123936556.221 6  96574027.36343  23584332.797                    23584348.828
 117898958.813 7  91869360.63544  22435411.406                    22435421.793
 122097764.508 6  95141150.37043  23234434.789                    23234442.965
 107915705.450 8  84090233.65646  20535693.086                    20535702.465
 118194140.722 7  92099343.374 7  22491610.391                    22491621.340
 112306075.994 8  87511264.81746  21371133.656                    21371140.754
 11  8 16 20 28 30.0000000  0  9G17G26G01G04G24G11G08G07G28
 109938112.279 8  85666117.943 7  20920502.695                    20920510.652
 121848810.197 7  94947194.66744  23187071.992                    23187084.746
 119070640.263 7  92782424.480 7  22658402.406                    22658414.543
 123823851.119 6  96486205.60943  23562885.367                    23562901.098
 117952162.569 7  91910818.09544  22445535.977                    22445546.070
 122187579.752 6  95211136.23944  23251525.328                    23251534.324
 107972178.412 8  84134238.49646  20546439.547                    20546449.059
 118291985.463 7  92175585.870 6  22510229.227                    22510239.836
 112289109.996 8  87498044.57746  21367905.102                    21367912.469
 11  8 16 20 29  0.0000000  0  9G17G26G01G04G24G11G08G07G28
 109916924.256 8  85649607.824 7  20916470.547                    20916478.871
 121896700.326 7  94984511.55544  23196185.250                    23196197.629
 119125174.819 7  92824918.917 7  22668779.617                    22668792.070
 123711207.252 6  96398431.53043  23541449.859                    23541465.129
 118005871.574 7  91952669.25944  22455756.992                    22455766.039
 122277712.702 6  95281369.68643  23268677.008                    23268685.789
 108029203.853 8  84178673.84446  20557291.344                    20557300.551
 118390127.609 7  92252060.133 7  22528905.219                    22528916.480
 112272224.660 8  87484887.18846  21364691.852                    21364699.266
 11  8 16 20 29 30.0000000  0  9G17G26G01G04G24G11G08G07G28
 109896077.626 8  85633363.723 7  20912503.641                    20912511.918
 121945014.960 7  95022159.21744  23205378.953                    23205391.371
 119180192.231 7  92867789.628 7  22679248.859                    22679260.750
 123598627.180 6  96310707.20743  23520026.070                    23520041.648
 118060083.885 7  91994912.61445  22466072.633                    22466083.012
 122368160.599 6  95351848.52943  23285889.133                    23285897.648
 108086779.952 8  84223538.27546  20568247.570                    20568257.145
 118488564.703 7  92328764.177 6  22547637.250                    22547648.242
 112255421.089 8  87471793.50646  21361494.438                    21361501.879
 11  8 16 20 30  0.0000000  0  9G17G26G01G04G24G11G08G07G28
 109875571.483 8  85617384.939 8  20908601.336                    20908609.594
 121993751.237 7  95060135.41444  23214653.641                    23214666.063
 119235690.256 6  92911034.801 7  22689809.781                    22689822.051
 123486113.586 6  96223034.64644  23498615.094                    23498630.898
 118114797.640 7  92037546.69144  22476484.266                    22476494.805
 122458920.787 7  95422570.71243  23303160.297                    23303168.770
 108144905.225 8  84268830.63646  20579308.555                    20579317.672
 118587294.327 7  92405696.207 6  22566425.734                    22566435.691
 112238700.287 8  87458764.32646  21358312.625                    21358319.730
 11  8 16 20 30 30.0000000  0  9G17G26G01G04G24G11G08G07G28
 109855405.270 8  85601671.033 7  20904764.109                    20904772.289
 122042906.559 7  95098438.15944  23224007.570                    23224019.430
 119291667.419 7  92954653.348 7  22700461.852                    22700473.570
 123373669.301 6  96135416.11443  23477217.383                    23477233.371
 118170011.169 7  92080570.21544  22486991.234                    22487001.500
 122549990.632 6  95493534.20643  23320489.828                    23320498.477
 108203578.486 8  84314550.00846  20590473.664                    20590482.688
 118686313.917 7  92482854.148 6  22585268.055                    22585279.258
 112222063.071 8  87445800.27946  21355146.367                    21355153.512
 11  8 16 20 31  0.0000000  0  9G17G26G01G04G24G11G08G07G28
 109835577.974 8  85586221.221 7  20900990.805                    20900999.145
 122092477.931 7  95137065.07744  23233440.367                    23233452.871
 119348122.116 7  92998643.985 7  22711205.586                    22711216.863
 123261297.405 6  96047853.99243  23455833.148                    23455849.016
 118225722.772 7  92123981.82044  22497593.141                    22497602.227
 122641367.429 7  95564736.87843  23337878.773                    23337887.109
 108262798.527 8  84360695.44146  20601743.258                    20601752.457
 118785621.507 7  92560236.498 7  22604165.359                    22604177.070
 112205510.820 8  87432902.42646  21351996.672                    21352003.996
 11  8 16 20 31 30.0000000  0  9G17G26G01G04G24G11G08G07G28
 109816088.989 7  85571035.027 8  20897281.781                    20897290.473
 122142462.816 7  95176014.24744  23242952.508                    23242964.555
 119405052.394 7  93043005.231 7  22722038.656                    22722050.895
 123149000.704 6  95960350.44843  23434463.758                    23434479.250
 118281930.858 7  92167780.30844  22508288.563                    22508298.531
 122733048.850 6  95636176.93143  23355324.461                    23355333.309
 108322564.138 8  84407265.99846  20613116.117                    20613124.992
 118885214.895 7  92637841.558 7  22623118.086                    22623128.684
 112189044.847 7  87420071.82246  21348863.570                    21348870.590
 11  8 16 20 32  0.0000000  0  9G17G26G01G04G24G11G08G07G28
 109796937.175 8  85556111.558 7  20893637.516                    20893646.168
 122192858.290 7  95215283.32244  23252542.500                    23252554.922
 119462456.389 7  93087735.588 7  22732962.344                    22732974.246
 123036781.932 6  95872907.63043  23413109.156                    23413124.363
 118338633.449 7  92211964.11744  22519078.688                    22519088.719
 122825031.939 6  95707852.03643  23372828.805                    23372837.352
 108382873.659 8  84454260.38246  20624592.539                    20624601.742
 118985091.398 7  92715667.245 6  22642123.859                    22642134.945
 112172665.655 8  87407308.83446  21345746.625                    21345753.973
 11  8 16 20 32 30.0000000  0  9G17G26G01G04G24G11G08G07G28
 109778121.685 8  85541450.157 7  20890057.203                    20890065.289
 122243661.275 7  95254869.94544  23262209.773                    23262222.332
 119520332.237 7  93132833.636 7  22743975.484                    22743987.676
 122924644.126 6  95785527.88644  23391769.867                    23391784.559
 118395828.826 7  92256531.92644  22529962.875                    22529972.535
 122917314.355 6  95779760.41043  23390390.023                    23390397.895
 108443726.068 8  84501677.78946  20636172.469                    20636181.539
 119085248.999 7  92793711.942 7  22661183.875                    22661195.102
 112156374.114 8  87394614.13346  21342645.844                    21342653.629
 11  8 16 20 33  0.0000000  0  9G17G26G01G04G24G11G08G07G28
 109759641.549 8  85527050.080 7  20886540.445                    20886548.863
 122294869.206 7  95294772.11544  23271954.242                    23271967.168
 119578678.064 7  93178297.899 7  22755078.680                    22755091.113
 122812589.775 7  95698213.15044  23370446.406                    23370461.020
 118453515.117 7  92301482.26644  22540940.336                    22540950.422
 123009893.092 6  95851899.65043  23408006.828                    23408015.332
 108505119.685 8  84549516.91646  20647855.453                    20647864.574
 119185684.984 7  92871973.568 7  22680295.656                    22680307.047
 112140171.390 8  87381988.65046  21339563.016                    21339570.594
 11  8 16 20 33 30.0000000  0  9G17G26G01G04G24G11G08G07G28
 109741496.364 7  85512910.992 7  20883087.523                    20883095.863
 122346479.094 7  95334987.49144  23281776.070                    23281788.109
 119637492.151 7  93224127.026 7  22766270.734                    22766282.746
 122700622.126 7  95610966.01644  23349139.453                    23349154.426
 118511691.079 7  92346814.15144  22552010.828                    22552021.301
 123102765.854 6  95924268.00043  23425679.742                    23425688.367
 108567053.387 8  84597776.89046  20659640.625                    20659650.125
 119286396.986 7  92950450.278 6  22699460.422                    22699472.430
 112124058.596 7  87369433.23546  21336496.953                    21336504.387
 11  8 16 20 34  0.0000000  0  9G17G26G01G04G24G11G08G07G28
 109723684.314 8  85499031.500 7  20879698.156                    20879706.223
 122398488.076 7  95375513.85344  23291673.227                    23291685.113
 119696772.126 7  93270319.204 7  22777551.969                    22777563.422
 122588743.584 7  95523788.26744  23327848.578                    23327863.563
 118570354.037 7  92392525.52744  22563173.523                    22563183.980
 123195929.464 6  95996862.97343  23443407.938                    23443416.980
 108629524.935 8  84646455.96146  20671528.586                    20671537.695
 119387382.499 7  93029140.097 6  22718677.828                    22718689.711
 112108036.711 8  87356948.66146  21333448.102                    21333455.215
 11  8 16 20 34 30.0000000  0  9G17G26G01G04G24G11G08G07G28
 109706205.134 8  85485411.403 7  20876371.516                    20876379.840
 122450893.399 7  95416349.06344  23301645.234                    23301657.762
 119756516.669 7  93316873.347 7  22788920.078                    22788933.004
 122476957.374 7  95436682.50044  23306576.883                    23306591.637
 118629502.481 7  92438615.20844  22574429.938                    22574439.262
 123289381.485 6  96069682.71043  23461191.203                    23461200.340
 108692533.373 8  84695553.38646  20683519.242                    20683528.176
 119488639.376 7  93108041.381 7  22737947.016                    22737958.000
 112092106.899 8  87344535.82646  21330416.445                    21330424.207
 11  8 16 20 35  0.0000000  0  9G17G26G01G04G24G11G08G07G28
 109689057.352 8  85472049.525 7  20873108.625                    20873117.129
 122503691.860 7  95457490.58544  23311693.125                    23311705.648
 119816723.457 7  93363787.739 7  22800376.789                    22800389.637
 122365266.116 7  95349650.69243  23285322.172                    23285336.703
 118689134.513 7  92485081.70444  22585777.414                    22585787.203
 123383119.447 6  96142725.21243  23479029.750                    23479037.855
 108756077.173 8  84745067.97946  20695610.898                    20695620.465
 119590165.073 7  93187152.136 7  22757266.672                    22757278.234
 112076269.979 8  87332195.37646  21327402.703                    21327410.324
 11  8 16 20 35 30.0000000  0  9G17G26G01G04G24G11G08G07G28
 109672240.678 8  85458945.659 7  20869908.469                    20869916.766
 122556880.817 7  95498936.38344  23321814.102                    23321827.461
 119877390.838 7  93411060.991 7  22811921.758                    22811934.051
 122253672.926 7  95262695.30144  23264086.555                    23264101.184
 118749248.231 7  92531923.54544  22597216.680                    22597226.703
 123477140.733 6  96215988.53243  23496921.086                    23496929.730
 108820155.095 8  84794998.77346  20707804.563                    20707813.809
 119691957.584 7  93266470.789 6  22776637.125                    22776648.738
 112060527.462 8  87319928.50046  21324407.086                    21324414.957
 11  8 16 20 36  0.0000000  0  9G17G26G01G04G24G11G08G07G28
 109655753.934 8  85446098.886 7  20866771.078                    20866779.254
 122610457.518 7  95540684.33844  23332009.828                    23332022.309
 119938516.799 6  93458691.587 7  22823554.000                    22823565.902
 122142180.667 6  95175818.56344  23242869.758                    23242884.352
 118809841.882 7  92579139.37144  22608746.813                    22608757.313
 123571442.551 6  96289470.42243  23514865.969                    23514874.777
 108884765.691 8  84845344.62746  20720099.594                    20720109.414
 119794014.316 7  93345995.330 6  22796058.266                    22796069.543
 112044880.099 8  87307735.75346  21321429.453                    21321437.320
 11  8 16 20 36 30.0000000  0  9G17G26G01G04G24G11G08G07G28
 109639596.554 8  85433508.769 7  20863696.633                    20863704.906
 122664418.857 7  95582731.99344  23342278.781                    23342290.980
 120000099.464 7  93506678.066 7  22835272.711                    22835284.801
 122030792.158 7  95089022.64044  23221673.211                    23221687.578
 118870913.473 7  92626727.60244  22620368.867                    22620379.145
 123666022.336 6  96363168.92643  23532864.117                    23532873.008
 108949907.016 8  84896104.03146  20732496.094                    20732505.469
 119896332.829 7  93425723.901 6  22815528.406                    22815540.410
 112029329.166 8  87295618.15146  21318470.273                    21318477.844
 11  8 16 20 37  0.0000000  0  9G17G26G01G04G24G11G08G07G28
 109623767.094 8  85421174.172 7  20860684.117                    20860692.652
 122718761.635 7  95625076.88744  23352619.563                    23352632.035
 120062136.745 7  93555018.799 7  22847077.586                    22847090.324
 121919510.134 7  95002309.69244  23200496.359                    23200510.316
 118932461.149 7  92674686.82444  22632080.758                    22632091.105
 123760877.422 6  96437081.93543  23550914.422                    23550922.836
 109015577.449 8  84947275.74346  20744992.438                    20745001.730
 119998910.880 7  93505654.675 6  22835048.469                    22835060.016
 112013875.676 8  87283576.48746  21315529.563                    21315537.027
 11  8 16 20 37 30.0000000  0  9G17G26G01G04G24G11G08G07G28
 109608264.436 8  85409094.230 8  20857733.742                    20857742.398
 122773483.430 7  95667717.08344  23363033.250                    23363045.426
 120124626.782 7  93603712.307 7  22858969.516                    22858981.770
 121808337.609 7  94915682.06543  23179340.500                    23179354.953
 118994482.868 7  92723015.43644  22643883.438                    22643893.102
 123856005.076 6  96511207.35843  23569016.148                    23569024.742
 109081775.833 8  84998858.82746  20757589.906                    20757599.813
 120101745.609 6  93585785.422 6  22854617.555                    22854629.293
 111998520.606 8  87271611.49346  21312607.555                    21312614.668
 11  8 16 20 38  0.0000000  0  9G17G26G01G04G24G11G08G07G28
 109593088.087 8  85397268.554 8  20854846.484                    20854854.438
 122828580.857 7  95710650.03844  23373517.438                    23373530.520
 120187567.455 7  93652756.977 7  22870945.992                    22870958.207
 121697277.735 6  94829142.22143  23158205.891                    23158220.531
 119056976.751 7  92771711.96644  22655775.211                    22655785.797
 123951402.838 6  96585543.25843  23587170.070                    23587178.336
 109148500.365 8  85050851.90746  20770286.984                    20770296.777
 120204834.872 7  93666114.549 6  22874234.531                    22874247.039
 111983265.363 8  87259724.30546  21309704.555                    21309712.125
 11  8 16 20 38 30.0000000  0  9G17G26G01G04G24G11G08G07G28
 109578236.644 8  85385696.046 8  20852019.922                    20852028.422
 122884051.187 7  95753873.51644  23384074.555                    23384085.633
 120250956.372 7  93702150.914 7  22883009.125                    22883021.320
 121586333.053 7  94742692.10844  23137094.586                    23137108.188
 119119940.590 7  92820774.67444  22667757.289                    22667766.570
 124047067.857 6  96660087.42243  23605374.508                    23605383.176
 109215749.112 8  85103253.46046  20783083.781                    20783093.434
 120308176.133 7  93746640.012 6  22893900.531                    22893911.535
 111968110.873 8  87247915.62046  21306820.992                    21306828.438
 11  8 16 20 39  0.0000000  0  9G17G26G01G04G24G11G08G07G28
 109563709.308 8  85374376.093 8  20849255.297                    20849263.977
 122939891.308 7  95797385.17044  23394699.523                    23394712.070
 120314792.142 7  93751893.061 7  22895157.039                    22895168.824
 121475506.497 7  94656334.04044  23116005.016                    23116018.758
 119183372.445 7  92870202.07244  22679827.602                    22679838.250
 124142997.516 6  96734837.76743  23623629.430                    23623637.797
 109283520.538 8  85156062.28846  20795980.555                    20795990.227
 120411767.053 7  93827360.043 6  22913613.492                    22913625.020
 111953058.391 8  87236186.42146  21303956.305                    21303963.957
 11  8 16 20 39 30.0000000  0  9G17G26G01G04G24G11G08G07G28
 109549504.663 8  85363307.577 8  20846552.344                    20846560.828
 122996098.084 7  95841182.52244  23405395.633                    23405408.207
 120379072.016 7  93801981.272 7  22907388.500                    22907401.188
 121364800.780 7  94570070.16344  23094938.172                    23094952.230
 119247270.085 7  92919992.44144  22691986.883                    22691997.234
 124239188.941 6  96809792.07043  23641934.461                    23641942.551
 109351812.333 8  85209276.60746  20808976.102                    20808985.621
 120515604.826 7  93908272.399 6  22933372.836                    22933385.215
 111938108.597 8  87224537.23546  21301111.938                    21301119.129
 11  8 16 20 40  0.0000000  0  9G17G26G01G04G24G11G08G07G28
 109535622.047 8  85352490.005 8  20843910.492                    20843918.953
 123052668.676 7  95885263.35544  23416160.820                    23416172.797
 120443794.210 7  93852414.123 7  22919704.719                    22919717.816
 121254218.906 7  94483902.74844  23073895.031                    23073908.484
 119311631.662 7  92970144.29744  22704234.648                    22704244.813
 124335639.899 6  96884948.62043  23660288.570                    23660296.570
 109420623.306 8  85262895.47246  20822070.250                    20822080.324
 120619687.308 7  93989375.456 6  22953179.367                    22953190.891
 111923262.904 8  87212969.16746  21298286.492                    21298294.285
 11  8 16 20 40 30.0000000  0  9G17G26G01G04G24G11G08G07G28
 109522060.698 8  85341922.759 7  20841329.961                    20841338.207
 123109600.182 7  95929625.39744  23426994.898                    23427007.504
 120508956.898 7  93903190.226 7  22932104.961                    22932117.391
 121143763.973 7  94397834.26143  23052875.102                    23052888.871
 119376455.287 7  93020656.21844  22716570.242                    22716579.594
 124432347.681 6  96960305.33643  23678691.008                    23678699.594
 109489952.084 8  85316917.82446  20835263.453                    20835272.867
 120724012.340 7  94070667.476 6  22973032.117                    22973043.898
 111908522.552 8  87201483.19046  21295481.555                    21295488.723
 11  8 16 20 41  0.0000000  0  9G17G26G01G04G24G11G08G07G28
 109508819.595 8  85331605.047 7  20838810.227                    20838818.523
 123166889.518 7  95974266.32344  23437895.906                    23437909.270
 120574557.840 7  93954307.844 7  22944588.484                    22944600.566
 121033438.995 7  94311867.01244  23031880.344                    23031894.715
 119441738.696 7  93071526.40844  22728993.094                    22729002.938
 124529309.583 6  97035860.02943  23697142.047                    23697150.766
 109559796.602 8  85371342.06546  20848554.117                    20848563.973
 120828576.980 7  94152146.226 6  22992930.211                    22992942.051
 111893888.651 8  87190080.16046  21292696.953                    21292703.867
 11  8 16 20 41 30.0000000  0  9G17G26G01G04G24G11G08G07G28
 109495897.438 8  85321535.880 7  20836350.766                    20836359.535
 123224533.645 7  96019183.70944  23448866.016                    23448877.699
 120640595.129 7  94005765.448 7  22957154.742                    22957167.410
 120923246.763 7  94226003.21344  23010912.227                    23010925.887
 119507480.078 7  93122753.44744  22741503.391                    22741513.023
 124626523.003 6  97111610.69443  23715641.211                    23715650.238
 109630155.241 8  85426166.90746  20861943.477                    20861952.625
 120933379.050 7  94233810.006 6  23012873.297                    23012885.129
 111879362.437 8  87178761.03746  21289932.648                    21289939.852
 11  8 16 20 42  0.0000000  0  9G17G26G01G04G24G11G08G07G28
 109483293.133 7  85311714.394 8  20833952.508                    20833960.520
 123282529.711 7  96064375.30544  23459902.250                    23459915.160
 120707066.412 7  94057561.249 7  22969804.172                    22969815.809
 120813190.036 7  94140244.95244  22989968.938                    22989982.430
 119573677.062 7  93174335.51944  22754100.297                    22754110.047
 124723984.916 6  97187554.98843  23734187.938                    23734196.738
 109701025.997 8  85481390.80646  20875429.375                    20875439.035
 121038415.755 7  94315656.612 6  23032861.133                    23032873.082
 111864944.920 7  87167526.62246  21287189.008                    21287196.273
 11  8 16 20 42 30.0000000  0  9G17G26G01G04G24G11G08G07G28
 109471006.201 8  85302140.187 7  20831614.344                    20831622.738
 123340874.537 7  96109838.68544  23471004.859                    23471017.391
 120773969.979 7  94109693.877 7  22982535.422                    22982547.688
 120703271.971 7  94054594.74044  22969052.523                    22969065.852
 119640327.894 7  93226271.20844  22766783.969                    22766793.332
 124821693.110 6  97263691.19243  23752781.234                    23752790.191
 109772407.424 8  85537012.61746  20889013.211                    20889022.711
 121143684.982 7  94397684.375 6  23052893.805                    23052905.465
 111850637.785 8  87156378.21246  21284466.313                    21284473.586
 11  8 16 20 43  0.0000000  0  9G17G26G01G04G24G11G08G07G28
 109459034.805 8  85292811.853 7  20829336.258                    20829343.934
 123399565.002 7  96155571.39444  23482173.422                    23482186.531
 120841302.982 7  94162161.135 7  22995348.188                    22995360.379
 120593495.123 7  93969054.57744  22948162.266                    22948175.656
 119707430.009 7  93278558.61544  22779552.578                    22779562.066
 124919644.568 6  97340016.98143  23771421.313                    23771429.613
 109844297.303 8  85593030.64646  20902693.141                    20902703.004
 121249183.982 7  94479891.194 6  23072969.570                    23072981.637
 111836441.191 8  87145315.94146  21281764.930                    21281772.309
 11  8 16 20 43 30.0000000  0  9G17G26G01G04G24G11G08G07G28
 109447378.229 8  85283728.845 8  20827118.117                    20827126.227
 123458598.047 7  96201571.06244  23493406.836                    23493420.531
 120909063.633 7  94214961.646 7  23008242.320                    23008254.613
 120483862.693 7  93883626.94144  22927299.289                    22927313.473
 119774981.581 7  93331196.18344  22792407.461                    22792417.707
 125017836.846 6  97416530.38443  23790106.391                    23790114.699
 109916694.026 8  85649443.60145  20916469.969                    20916479.848
 121354910.694 6  94562275.446 6  23093088.719                    23093100.887
 111822357.044 8  87134341.29646  21279084.992                    21279091.996
 11  8 16 20 44  0.0000000  0  9G17G26G01G04G24G11G08G07G28
 109436035.252 7  85274890.181 7  20824959.609                    20824967.789
 123517970.503 7  96247835.19544  23504705.828                    23504718.391
 120977249.712 7  94268093.672 7  23021218.023                    23021230.277
 120374377.281 7  93798313.81344  22906464.641                    22906478.215
 119842980.244 7  93384182.16144  22805346.930                    22805356.266
 125116267.236 6  97493229.36243  23808837.438                    23808845.910
 109989595.073 8  85706249.54745  20930342.500                    20930352.066
 121460862.015 7  94644834.709 6  23113250.773                    23113263.320
 111808386.083 7  87123454.84146  21276426.078                    21276433.172
 11  8 16 20 44 30.0000000  0  9G17G26G01G04G24G11G08G07G28
 109425005.153 8  85266295.327 8  20822860.648                    20822868.512
 123577679.531 7  96294361.53744  23516067.977                    23516080.828
 121045859.267 7  94321555.652 7  23034274.047                    23034286.191
 120265042.010 7  93713117.67344  22885659.039                    22885672.227
 119911424.180 7  93437515.08244  22818371.563                    22818381.852
 125214933.125 6  97570111.84843  23827612.445                    23827621.313
 110062999.220 8  85763447.50146  20944310.969                    20944320.418
 121567035.708 7  94727567.244 6  23133454.797                    23133467.332
 111794529.897 8  87112657.82646  21273789.313                    21273796.832
 11  8 16 20 45  0.0000000  0  9G17G26G01G04G24G11G08G07G28
 109414286.335 8  85257943.032 7  20820820.781                    20820828.980
 123637721.912 7  96341147.66444  23527494.125                    23527506.254
 121114889.883 7  94375345.770 7  23047410.375                    23047422.004
 120155859.648 7  93628040.66144  22864882.414                    22864895.438
 119980310.839 7  93491193.00944  22831479.688                    22831490.402
 125313831.974 6  97647175.86343  23846432.320                    23846440.367
 110136904.501 7  85821035.97346  20958375.156                    20958384.539
 121673429.292 7  94810471.116 6  23153700.977                    23153713.996
 111780789.352 8  87101950.92346  21271174.750                    21271181.594
 11  8 16 20 45 30.0000000  0  9G17G26G01G04G24G11G08G07G28
 109403878.198 8  85249832.815 8  20818840.375                    20818848.227
 123698094.574 7  96388191.18544  23538983.211                    23538994.930
 121184339.542 7  94429462.407 7  23060626.203                    23060637.883
 120046833.373 7  93543085.27644  22844134.906                    22844148.730
 120049638.348 7  93545214.44844  22844673.039                    22844682.656
 125412960.942 6  97724419.20043  23865295.719                    23865304.324
 110211308.775 8  85879013.25446  20972533.844                    20972543.219
 121780040.290 7  94893544.418 6  23173988.680                    23174001.570
 111767166.057 8  87091335.38746  21268582.094                    21268589.523
 11  8 16 20 46  0.0000000  0  9G17G26G01G04G24G11G08G07G28
 109393779.540 8  85241963.758 7  20816918.391                    20816926.637
 123758794.387 7  96435489.57543  23550533.516                    23550546.434
 121254206.020 7  94483903.812 7  23073921.281                    23073933.375
 119937966.179 7  93458253.83044  22823418.461                    22823431.770
 120119404.508 7  93599577.70544  22857948.602                    22857959.211
 125512317.629 6  97801839.92143  23884203.211                    23884211.148
 110286210.290 8  85937378.00446  20986786.578                    20986796.504
 121886866.220 7  94976785.162 6  23194317.367                    23194330.055
 111753661.246 8  87080812.18046  21266012.188                    21266019.563
 11  8 16 20 46 30.0000000  0  9G17G26G01G04G24G11G08G07G28
 109383989.157 8  85234334.907 7  20815055.516                    20815063.422
 123819818.349 7  96483040.59044  23562145.664                    23562158.219
 121324486.928 7  94538668.179 7  23087295.180                    23087307.230
 119829260.702 7  93373548.39244  22802732.320                    22802745.230
 120189606.929 7  93654280.86244  22871307.820                    22871318.027
 125611899.344 6  97879436.07143  23903152.844                    23903161.457
 110361606.694 8  85996128.39145  21001134.563                    21001144.332
 121993904.407 7  95060191.351 6  23214686.984                    23214698.566
 111740276.622 8  87070382.61146  21263465.547                    21263472.496
 11  8 16 20 47  0.0000000  0  9G17G26G01G04G24G11G08G07G28
 109374505.826 8  85226945.324 8  20813250.500                    20813258.465
 123881163.004 6  96530841.47644  23573819.148                    23573833.355
 121395180.008 7  94593753.690 7  23100747.797                    23100759.711
 119720719.754 7  93288971.18444  22782077.297                    22782090.699
 120260243.365 7  93709322.26544  22884749.617                    22884759.211
 125711703.095 6  97957205.17243  23922144.367                    23922153.324
 110437495.669 8  86055262.58146  21015576.016                    21015585.586
 122101152.144 7  95143760.797 6  23235095.172                    23235107.508
 111727012.209 8  87060046.73346  21260940.961                    21260948.254
 11  8 16 20 47 30.0000000  0  9G17G26G01G04G24G11G08G07G28
 109365328.302 8  85219794.029 8  20811504.445                    20811512.465
 123942825.348 6  96578889.91344  23585553.461                    23585567.234
 121466282.880 7  94649158.516 7  23114278.547                    23114290.375
 119612346.408 7  93204524.56344  22761454.352                    22761467.984
 120331311.474 7  93764699.99144  22898273.625                    22898283.320
 125811726.286 6  98035145.29642  23941177.742                    23941186.977
 110513875.410 8  86114779.19845  21030110.102                    21030119.930
 122208607.182 7  95227491.752 6  23255543.070                    23255555.730
 111713869.426 8  87049805.62246  21258439.977                    21258447.125
 11  8 16 20 48  0.0000000  0  9G17G26G01G04G24G11G08G07G28
 109356455.915 8  85212880.509 7  20809816.141                    20809824.145
 124004802.572 7  96627183.72844  23597347.609                    23597360.785
 121537793.760 7  94704881.287 7  23127886.844                    23127898.688
 119504143.791 7  93120210.99044  22740864.164                    22740877.363
 120402809.184 7  93820412.51744  22911878.781                    22911889.219
 125911966.721 6  98113254.68343  23960253.898                    23960262.281
 110590744.578 8  86174677.18445  21044738.039                    21044747.684
 122316267.129 7  95311382.437 6  23276030.016                    23276042.797
 111700850.060 8  87039660.67846  21255962.383                    21255969.703
 11  8 16 20 48 30.0000000  0  9G17G26G01G04G24G11G08G07G28
 109347887.623 8  85206203.937 7  20808185.500                    20808193.813
 124067091.525 6  96675720.41144  23609200.055                    23609214.156
 121609710.404 7  94760920.219 7  23141572.172                    23141583.719
 119396114.913 7  93036032.78244  22720306.820                    22720319.621
 120474734.191 7  93876457.95744  22925565.383                    22925576.141
 126012421.781 6  98191531.30043  23979369.523                    23979378.402
 110668101.034 8  86234954.88445  21059458.766                    21059468.125
 122424129.421 7  95395430.724 6  23296556.055                    23296569.035
 111687955.320 8  87029612.84746  21253508.836                    21253515.980
 11  8 16 20 49  0.0000000  0  9G17G26G01G04G24G11G08G07G28
 109339622.105 8  85199763.301 8  20806612.719                    20806620.742
 124129688.819 7  96724497.41044  23621112.633                    23621126.039
 121682029.958 7  94817273.122 7  23155333.625                    23155345.656
 119288262.342 7  92951991.98944  22699782.773                    22699796.324
 120547084.359 7  93932834.71444  22939333.055                    22939343.820
 126113088.541 6  98269972.88043  23998526.250                    23998534.703
 110745942.342 8  86295610.38745  21074271.250                    21074281.285
 122532191.420 7  95479634.657 6  23317119.750                    23317132.891
 111675186.067 8  87019662.80646  21251078.750                    21251086.234
 11  8 16 20 49 30.0000000  0  9G17G26G01G04G24G11G08G07G28
 109331658.174 8  85193557.666 7  20805097.094                    20805105.422
 124192591.398 7  96773512.27544  23633082.953                    23633095.875
 121754750.493 7  94873938.454 7  23169171.391                    23169184.020
 119180589.202 7  92868091.03644  22679293.422                    22679306.188
 120619857.280 7  93989540.87544  22953181.672                    22953191.781
 126213964.311 6  98348577.35643  24017722.602                    24017730.480
 110824266.551 8  86356642.17645  21089175.563                    21089185.344
 122640450.520 7  95563992.176 6  23337720.820                    23337734.191
 111662543.818 8  87009811.71446  21248673.203                    21248680.324
 11  8 16 20 50  0.0000000  0  9G17G26G01G04G24G11G08G07G28
 109323994.527 8  85187586.029 8  20803638.492                    20803646.809
 124255796.030 7  96822762.48544  23645110.320                    23645123.281
 121827869.715 7  94930914.464 7  23183086.367                    23183098.055
 119073098.326 7  92784332.10844  22658838.359                    22658851.285
 120693050.657 7  94046574.68644  22967109.891                    22967119.559
 126315046.705 6  98427342.79143  24036957.242                    24036965.977
 110903071.305 8  86418048.40545  21104172.008                    21104181.875
 122748904.170 7  95648501.275 6  23358359.367                    23358372.289
 111650029.865 8  87000060.60546  21246291.570                    21246298.512
 11  8 16 20 50 30.0000000  0  9G17G26G01G04G24G11G08G07G28
 109316630.188 8  85181847.602 7  20802237.281                    20802245.484
 124319299.515 6  96872245.59343  23657194.492                    23657207.445
 121901385.283 7  94988199.321 7  23197075.625                    23197087.492
 118965792.751 7  92700717.56844  22638418.320                    22638431.469
 120766662.274 7  94103934.37044  22981117.844                    22981128.363
 126416332.900 6  98506267.07243  24056231.586                    24056240.527
 110982354.662 7  86479827.58745  21119259.094                    21119268.898
 122857550.062 7  95733160.171 6  23379034.008                    23379047.109
 111637645.412 8  86990410.40046  21243935.102                    21243942.109
 11  8 16 20 51  0.0000000  0  9G17G26G01G04G24G11G08G07G28
 109309563.806 8  85176341.359 7  20800892.359                    20800900.418
 124383098.833 6  96921959.17743  23669335.180                    23669348.184
 121975294.823 7  95045791.153 7  23211139.828                    23211152.129
 118858675.243 7  92617249.58444  22618034.516                    22618047.188
 120840689.753 7  94161618.11144  22995204.891                    22995214.531
 126517820.286 6  98585348.11543  24075543.984                    24075553.000
 111062114.180 7  86541977.79245  21134437.289                    21134446.852
 122966385.275 7  95817966.613 6  23399744.430                    23399757.445
 111625391.608 8  86980861.99146  21241603.133                    21241610.309
 11  8 16 20 51 30.0000000  0  9G17G26G01G04G24G11G08G07G28
 109302794.702 8  85171066.767 8  20799603.836                    20799612.508
 124447190.948 6  96971900.92643  23681531.758                    23681545.195
 122049596.365 7  95103688.423 7  23225279.133                    23225290.605
 118751749.029 7  92533930.65844  22597686.680                    22597700.320
 120915131.023 7  94219624.30544  23009370.406                    23009379.980
 126619506.485 6  98664584.05843  24094893.930                    24094902.938
 111142348.297 7  86604497.82045  21149705.195                    21149715.352
 123075407.607 7  95902918.855 6  23420490.484                    23420504.172
 111613270.228 8  86971416.77246  21239296.727                    21239304.234
 11  8 16 20 52  0.0000000  0  9G17G26G01G04G24G11G08G07G28
 109296321.330 8  85166022.598 8  20798372.531                    20798381.117
 124511572.345 6  97022068.12043  23693783.375                    23693796.863
 122124287.152 7  95161889.030 7  23239491.633                    23239503.867
 118645016.630 7  92450762.81444  22577375.641                    22577389.242
 120989983.265 7  94277950.69144  23023614.367                    23023624.480
 126721388.751 6  98743972.78243  24114281.242                    24114290.484
 111223054.120 7  86667385.40545  21165063.063                    21165072.734
 123184614.434 7  95988014.822 6  23441272.734                    23441285.887
 111601282.076 8  86962075.37546  21237015.281                    21237022.742
 11  8 16 20 52 30.0000000  0  9G17G26G01G04G24G11G08G07G28
 109290142.573 8  85161207.997 8  20797196.820                    20797204.973
 124576239.920 6  97072458.29143  23706089.461                    23706102.773
 122199364.885 6  95220391.144 7  23253779.156                    23253790.680
 118538481.216 7  92367748.41444  22557103.422                    22557115.641
 121065244.379 7  94336595.72244  23037935.836                    23037945.918
 126823464.427 6  98823512.21643  24133706.102                    24133714.965
 111304229.588 7  86730638.96945  21180510.313                    21180519.539
 123294003.086 6  96073252.497 6  23462088.133                    23462102.203
 111589428.554 8  86952838.87546  21234759.523                    21234766.828
